[[{"header":{"parameterUnit":"m.s-1","parameterCategory":1,"la1":30.6,"la2":29.2853,"lo1":-89.7004,"lo2":-87.6739,"dx":0.0162,"dy":0.0183,"nx":112,"ny":82,"refTime":"2022-11-07T18:00:00:Z","depth":0,"parameterNumber":2,"parameterNumberName":"U-component_of_WINDS"},"data":[0.0,0.0,0.0,0.0,0.0,0.0,0.0,0.0,0.0,0.0,0.0,0.0,0.0,0.0,0.0,0.0,0.0,0.0,0.0,0.0,0.0,0.0,0.0,0.0,0.0,0.0,0.0,0.0,0.0,0.0,0.0,0.0,0.0,0.0,0.0,0.0,0.0,0.0,0.0,0.0,0.0,0.0,0.0,0.0,0.0,0.0,0.0,0.0,0.0,0.0,0.0,0.0,0.0,0.0,0.0,0.0,0.0,0.0,0.0,0.0,0.0,0.0,0.0,0.0,0.0,0.0,0.0,0.0,0.0,0.0,0.0,0.0,0.0,0.0,0.0,0.0,0.0,0.0,0.0,0.0,0.0,0.0,0.0,0.0,0.0,0.0,0.0,0.0,0.0,0.0,4.7969,5.1797,5.418,5.5508,5.5508,5.4844,5.2179,4.6904,0.0,0.0,0.0,0.0,0.0,0.0,0.0,0.0,0.0,0.0,0.0,0.0,0.0,0.0,0.0,0.0,0.0,0.0,0.0,0.0,0.0,0.0,0.0,0.0,0.0,0.0,0.0,0.0,0.0,0.0,0.0,0.0,0.0,0.0,0.0,0.0,0.0,0.0,0.0,0.0,0.0,0.0,0.0,0.0,0.0,0.0,0.0,0.0,0.0,0.0,0.0,0.0,0.0,0.0,0.0,0.0,0.0,0.0,0.0,0.0,0.0,0.0,0.0,0.0,0.0,0.0,0.0,0.0,0.0,0.0,0.0,0.0,0.0,0.0,0.0,0.0,0.0,0.0,0.0,0.0,0.0,0.0,0.0,0.0,0.0,0.0,0.0,0.0,0.0,0.0,0.0,0.0,0.0,0.0,0.0,0.0,0.0,0.0,0.0,0.0,0.0,0.0,0.0,0.0,4.957,5.5195,5.6172,5.6406,5.6406,5.6289,5.3945,4.8669,0.0,0.0,0.0,0.0,0.0,0.0,0.0,0.0,0.0,0.0,0.0,0.0,0.0,0.0,0.0,0.0,0.0,0.0,0.0,0.0,0.0,0.0,0.0,0.0,0.0,0.0,0.0,0.0,0.0,0.0,0.0,0.0,0.0,0.0,0.0,0.0,0.0,0.0,0.0,0.0,0.0,0.0,0.0,0.0,0.0,0.0,0.0,0.0,0.0,0.0,0.0,0.0,0.0,0.0,0.0,0.0,0.0,0.0,0.0,0.0,0.0,0.0,0.0,0.0,0.0,0.0,0.0,0.0,0.0,0.0,0.0,0.0,0.0,0.0,0.0,0.0,0.0,0.0,0.0,0.0,0.0,0.0,0.0,0.0,0.0,0.0,0.0,0.0,0.0,0.0,0.0,0.0,0.0,0.0,0.0,0.0,0.0,0.0,0.0,0.0,0.0,0.0,0.0,4.8867,5.2344,5.7461,5.8008,5.7812,5.7344,5.7305,5.4883,4.918,4.6384,0.0,0.0,0.0,0.0,0.0,0.0,0.0,0.0,0.0,0.0,0.0,0.0,0.0,0.0,0.0,0.0,0.0,0.0,0.0,0.0,0.0,0.0,0.0,0.0,0.0,0.0,0.0,0.0,0.0,0.0,0.0,0.0,0.0,0.0,0.0,0.0,0.0,0.0,0.0,0.0,0.0,0.0,0.0,0.0,0.0,0.0,0.0,0.0,0.0,0.0,0.0,0.0,0.0,0.0,0.0,0.0,0.0,0.0,0.0,0.0,0.0,0.0,0.0,0.0,0.0,0.0,0.0,0.0,0.0,0.0,0.0,0.0,0.0,0.0,0.0,0.0,0.0,0.0,0.0,0.0,0.0,0.0,0.0,0.0,0.0,0.0,0.0,0.0,0.0,0.0,0.0,0.0,0.0,0.0,0.0,0.0,0.0,0.0,0.0,0.0,0.0,0.0,5.293,5.5508,5.8828,5.9219,5.8945,5.8242,5.8008,5.539,4.957,4.6561,0.0,0.0,0.0,0.0,0.0,0.0,0.0,0.0,0.0,0.0,0.0,0.0,0.0,0.0,0.0,0.0,0.0,0.0,0.0,0.0,0.0,0.0,0.0,0.0,0.0,0.0,0.0,0.0,0.0,0.0,0.0,0.0,0.0,0.0,0.0,0.0,0.0,0.0,0.0,0.0,0.0,0.0,0.0,0.0,0.0,0.0,0.0,0.0,0.0,0.0,0.0,0.0,0.0,0.0,0.0,0.0,0.0,0.0,0.0,0.0,0.0,0.0,0.0,0.0,0.0,0.0,0.0,0.0,0.0,0.0,0.0,0.0,0.0,0.0,0.0,0.0,0.0,0.0,0.0,0.0,0.0,0.0,0.0,0.0,0.0,0.0,0.0,0.0,0.0,0.0,0.0,0.0,0.0,0.0,0.0,0.0,0.0,0.0,0.0,0.0,0.0,0.0,5.5234,5.8867,5.918,5.9219,5.918,5.9101,5.8359,5.5664,5.043,4.6874,0.0,0.0,0.0,0.0,0.0,0.0,0.0,0.0,0.0,0.0,0.0,0.0,0.0,0.0,0.0,0.0,0.0,0.0,0.0,0.0,0.0,0.0,0.0,0.0,0.0,0.0,0.0,0.0,0.0,0.0,0.0,0.0,0.0,0.0,0.0,0.0,0.0,0.0,0.0,0.0,0.0,0.0,0.0,0.0,0.0,0.0,0.0,0.0,0.0,0.0,0.0,0.0,0.0,0.0,0.0,0.0,0.0,0.0,0.0,0.0,0.0,0.0,0.0,0.0,0.0,0.0,0.0,0.0,0.0,0.0,0.0,0.0,0.0,0.0,0.0,0.0,0.0,0.0,0.0,0.0,0.0,0.0,0.0,0.0,0.0,0.0,0.0,0.0,0.0,0.0,0.0,0.0,0.0,0.0,0.0,0.0,0.0,0.0,0.0,0.0,0.0,0.0,5.4336,5.7773,6.0469,6.0742,6.0547,6.0,5.9648,5.6562,4.9805,0.0,0.0,0.0,0.0,0.0,0.0,0.0,0.0,0.0,0.0,0.0,0.0,0.0,0.0,0.0,0.0,0.0,0.0,0.0,0.0,0.0,0.0,0.0,0.0,0.0,0.0,0.0,0.0,0.0,0.0,0.0,0.0,0.0,0.0,0.0,0.0,0.0,0.0,0.0,0.0,0.0,0.0,0.0,0.0,0.0,0.0,0.0,0.0,0.0,0.0,0.0,0.0,0.0,0.0,0.0,0.0,0.0,0.0,0.0,0.0,0.0,0.0,0.0,0.0,0.0,0.0,0.0,0.0,0.0,0.0,0.0,0.0,0.0,0.0,0.0,0.0,0.0,0.0,0.0,0.0,0.0,0.0,0.0,0.0,0.0,0.0,0.0,0.0,0.0,0.0,0.0,0.0,0.0,0.0,0.0,0.0,0.0,0.0,0.0,0.0,0.0,0.0,5.0781,5.4883,5.8555,6.1758,6.1875,6.1562,6.125,6.0703,5.7226,4.9766,0.0,0.0,0.0,0.0,0.0,0.0,0.0,0.0,0.0,0.0,0.0,0.0,0.0,0.0,0.0,0.0,0.0,0.0,0.0,0.0,0.0,0.0,0.0,0.0,0.0,0.0,0.0,0.0,0.0,0.0,0.0,0.0,0.0,0.0,0.0,0.0,0.0,0.0,0.0,0.0,0.0,0.0,0.0,0.0,0.0,0.0,0.0,0.0,0.0,0.0,0.0,0.0,0.0,0.0,0.0,0.0,0.0,0.0,0.0,0.0,0.0,0.0,0.0,0.0,0.0,0.0,0.0,0.0,0.0,0.0,0.0,0.0,0.0,0.0,0.0,0.0,0.0,0.0,0.0,0.0,0.0,0.0,0.0,0.0,0.0,0.0,0.0,0.0,0.0,0.0,0.0,0.0,0.0,0.0,0.0,0.0,0.0,0.0,0.0,0.0,0.0,0.0,5.1211,5.7461,6.2031,6.293,6.2226,6.207,6.293,6.1445,5.7539,0.0,0.0,0.0,0.0,0.0,0.0,0.0,0.0,0.0,0.0,0.0,0.0,0.0,0.0,0.0,0.0,0.0,0.0,0.0,0.0,0.0,0.0,0.0,0.0,0.0,0.0,0.0,0.0,0.0,0.0,0.0,0.0,0.0,0.0,0.0,0.0,0.0,0.0,0.0,0.0,0.0,0.0,0.0,0.0,0.0,0.0,0.0,0.0,0.0,0.0,0.0,0.0,0.0,0.0,0.0,0.0,0.0,0.0,0.0,0.0,0.0,0.0,0.0,0.0,0.0,0.0,0.0,0.0,0.0,0.0,0.0,0.0,0.0,0.0,0.0,0.0,0.0,0.0,0.0,0.0,0.0,0.0,0.0,0.0,0.0,0.0,0.0,0.0,0.0,0.0,0.0,0.0,0.0,0.0,0.0,0.0,0.0,0.0,0.0,0.0,0.0,0.0,0.0,5.293,5.8711,6.2969,6.3828,6.3672,6.3633,6.3906,6.3437,5.9961,5.2422,0.0,0.0,0.0,0.0,0.0,0.0,0.0,0.0,0.0,0.0,0.0,0.0,0.0,0.0,0.0,0.0,0.0,0.0,0.0,0.0,0.0,0.0,0.0,0.0,0.0,0.0,0.0,0.0,0.0,0.0,0.0,0.0,0.0,0.0,0.0,0.0,0.0,0.0,0.0,0.0,0.0,0.0,0.0,0.0,0.0,0.0,0.0,0.0,0.0,0.0,0.0,0.0,0.0,0.0,0.0,0.0,0.0,0.0,0.0,0.0,0.0,0.0,0.0,0.0,0.0,0.0,0.0,0.0,0.0,0.0,0.0,0.0,0.0,0.0,0.0,0.0,0.0,0.0,0.0,0.0,0.0,0.0,0.0,0.0,0.0,0.0,0.0,0.0,0.0,0.0,0.0,0.0,0.0,0.0,0.0,0.0,0.0,0.0,0.0,0.0,0.0,0.0,5.3672,5.957,6.3867,6.4726,6.4492,6.4453,6.4805,6.4492,6.1562,5.5195,0.0,0.0,0.0,0.0,0.0,0.0,0.0,0.0,0.0,0.0,0.0,0.0,0.0,0.0,0.0,0.0,0.0,0.0,0.0,0.0,0.0,0.0,0.0,0.0,0.0,0.0,0.0,0.0,0.0,0.0,0.0,0.0,0.0,0.0,0.0,0.0,0.0,0.0,0.0,0.0,0.0,0.0,0.0,0.0,0.0,0.0,0.0,0.0,0.0,0.0,0.0,0.0,0.0,0.0,0.0,0.0,0.0,0.0,0.0,0.0,0.0,0.0,0.0,0.0,0.0,0.0,0.0,0.0,0.0,0.0,0.0,0.0,0.0,0.0,0.0,0.0,0.0,0.0,0.0,0.0,0.0,0.0,0.0,0.0,0.0,0.0,0.0,0.0,0.0,0.0,0.0,0.0,0.0,0.0,0.0,0.0,0.0,0.0,0.0,0.0,0.0,0.0,5.3906,6.0273,6.4844,6.5625,6.5,6.4844,6.5664,6.5,6.2734,5.8515,0.0,0.0,0.0,0.0,0.0,0.0,0.0,0.0,0.0,0.0,0.0,0.0,0.0,0.0,0.0,0.0,0.0,0.0,0.0,0.0,0.0,0.0,0.0,0.0,0.0,0.0,0.0,0.0,0.0,0.0,0.0,0.0,0.0,0.0,0.0,0.0,0.0,0.0,0.0,0.0,0.0,0.0,0.0,0.0,0.0,0.0,0.0,0.0,0.0,0.0,0.0,0.0,0.0,0.0,0.0,0.0,0.0,0.0,0.0,0.0,3.6492,3.299,0.0,0.0,0.0,0.0,0.0,0.0,0.0,0.0,0.0,0.0,0.0,0.0,0.0,0.0,0.0,0.0,0.0,0.0,0.0,0.0,0.0,0.0,0.0,0.0,0.0,0.0,0.0,0.0,0.0,0.0,0.0,0.0,0.0,0.0,0.0,0.0,0.0,0.0,0.0,0.0,5.5703,6.207,6.6406,6.6601,6.6445,6.6406,6.6601,6.6445,6.4765,6.1133,5.8789,0.0,0.0,0.0,0.0,0.0,0.0,0.0,0.0,0.0,0.0,0.0,0.0,0.0,0.0,0.0,0.0,0.0,0.0,0.0,0.0,0.0,0.0,0.0,0.0,0.0,0.0,0.0,0.0,0.0,0.0,0.0,0.0,0.0,0.0,0.0,0.0,0.0,0.0,0.0,0.0,0.0,0.0,0.0,0.0,0.0,0.0,0.0,0.0,0.0,0.0,0.0,0.0,0.0,0.0,0.0,0.0,0.0,0.0,0.0,4.004,3.7627,0.0,0.0,0.0,0.0,0.0,0.0,0.0,0.0,0.0,0.0,0.0,0.0,0.0,0.0,0.0,0.0,0.0,0.0,0.0,0.0,0.0,0.0,0.0,0.0,0.0,0.0,0.0,0.0,0.0,0.0,0.0,0.0,0.0,0.0,0.0,0.0,0.0,0.0,0.0,0.0,5.6836,6.289,6.6914,6.6914,6.6914,6.6914,6.6914,6.6914,6.6133,6.4297,6.1406,0.0,0.0,0.0,0.0,0.0,0.0,0.0,0.0,0.0,0.0,0.0,0.0,0.0,0.0,0.0,0.0,0.0,0.0,0.0,0.0,0.0,0.0,0.0,0.0,0.0,0.0,0.0,0.0,0.0,0.0,0.0,0.0,0.0,0.0,0.0,0.0,0.0,0.0,0.0,0.0,0.0,0.0,0.0,0.0,0.0,0.0,0.0,0.0,0.0,0.0,0.0,0.0,0.0,4.1601,4.2262,4.2982,4.3681,4.5164,4.7002,4.3443,4.274,4.3805,3.9546,0.0,0.0,0.0,0.0,0.0,0.0,0.0,0.0,0.0,0.0,0.0,0.0,0.0,0.0,0.0,0.0,0.0,0.0,0.0,0.0,0.0,0.0,4.8594,4.9609,5.1445,5.1836,4.7734,0.0,0.0,0.0,0.0,0.0,0.0,0.0,0.0,0.0,0.0,0.0,5.8086,6.3437,6.6953,6.7109,6.7148,6.7148,6.7148,6.7148,6.707,6.6914,6.3515,6.0898,0.0,0.0,0.0,0.0,0.0,0.0,0.0,0.0,0.0,0.0,0.0,0.0,0.0,0.0,0.0,0.0,0.0,0.0,0.0,0.0,0.0,0.0,0.0,0.0,0.0,0.0,0.0,0.0,0.0,0.0,0.0,0.0,2.9258,3.0117,0.0,0.0,0.0,0.0,0.0,0.0,0.0,0.0,0.0,0.0,0.0,0.0,0.0,3.9648,4.0508,4.3672,4.5351,4.5508,4.8476,4.9922,5.0078,5.0189,5.042,5.0693,5.0133,0.0,4.5887,4.521,0.0,0.0,0.0,0.0,0.0,0.0,0.0,0.0,0.0,0.0,0.0,0.0,0.0,0.0,0.0,0.0,0.0,0.0,0.0,0.0,0.0,0.0,5.6758,5.8359,5.8984,5.9219,5.9297,5.3555,4.8008,4.668,4.7734,4.7539,0.0,0.0,0.0,0.0,0.0,0.0,6.0547,6.4531,6.7187,6.7969,6.8047,6.8047,6.8047,6.8047,6.7695,6.6953,6.6367,6.4297,6.039,5.914,0.0,0.0,0.0,0.0,0.0,0.0,0.0,0.0,0.0,0.0,0.0,0.0,0.0,0.0,0.0,0.0,0.0,0.0,0.0,0.0,0.0,0.0,0.0,0.0,0.0,0.0,0.0,0.0,0.0,2.832,3.0117,3.1484,3.0195,2.8945,0.0,0.0,0.0,0.0,0.0,0.0,0.0,0.0,0.0,4.2656,4.3711,4.4883,4.625,4.8203,4.918,4.918,5.0664,5.1641,5.2148,5.2148,5.2419,5.2882,5.3377,5.2749,5.1112,4.8223,4.518,4.2251,0.0,0.0,0.0,0.0,4.2031,4.2812,4.5859,4.6914,4.6875,4.6406,0.0,0.0,0.0,0.0,0.0,0.0,0.0,5.1055,5.3633,5.5742,5.7734,5.9883,6.039,6.0625,6.1523,5.914,5.6015,5.3203,5.2461,5.0976,4.6641,4.8125,0.0,0.0,0.0,5.8789,6.1992,6.5469,6.7773,6.8164,6.8594,6.8906,6.8945,6.8906,6.8515,6.7695,6.7617,6.6562,6.414,6.1836,5.8398,0.0,0.0,0.0,0.0,0.0,0.0,0.0,0.0,0.0,0.0,0.0,0.0,0.0,0.0,0.0,0.0,0.0,0.0,0.0,0.0,0.0,0.0,0.0,0.0,0.0,0.0,0.0,0.0,3.0156,3.1797,3.332,3.3125,3.2266,0.0,0.0,0.0,0.0,0.0,0.0,4.1406,4.2344,4.4023,4.6562,4.7891,4.9219,5.0508,5.1328,5.1719,5.1758,5.1953,5.2383,5.3047,5.3047,5.3398,5.4058,5.4674,5.4978,5.4697,5.1076,4.9048,4.8108,4.6616,4.5483,4.4979,4.7377,4.8124,4.8398,5.1601,5.2578,5.2344,5.1953,5.0937,4.9726,4.8867,0.0,0.0,0.0,0.0,5.4648,5.7226,5.789,5.8515,6.0859,6.1562,6.2031,6.3125,6.3359,6.2383,5.918,5.7695,5.5664,5.1562,5.3164,0.0,5.4141,5.7851,6.1601,6.4023,6.6601,6.8359,6.8789,6.9375,6.9765,6.9805,6.9765,6.9375,6.8594,6.8711,6.8359,6.7265,6.5156,6.2695,5.9883,0.0,0.0,0.0,0.0,0.0,0.0,0.0,0.0,0.0,0.0,0.0,0.0,0.0,0.0,0.0,0.0,0.0,0.0,0.0,0.0,0.0,0.0,0.0,0.0,0.0,0.0,0.0,0.0,0.0,3.6914,3.7734,0.0,0.0,0.0,0.0,3.8281,4.0,4.2461,4.5781,4.6797,4.8437,5.1016,5.1172,5.125,5.1328,5.2187,5.2617,5.2656,5.3476,5.3906,5.3945,5.3945,5.3945,5.3984,5.4062,5.4056,5.4103,5.4693,5.442,5.3518,5.2581,5.1726,5.1148,5.2961,5.3085,5.2773,5.543,5.5781,5.5234,5.6015,5.457,5.2812,5.4375,5.375,0.0,0.0,5.6875,5.8242,6.0781,6.1445,6.1875,6.3672,6.4726,6.5781,6.75,6.5976,6.418,6.3945,6.4492,6.3906,6.0351,0.0,6.1211,6.1172,6.1445,6.3164,6.7383,6.8086,6.8828,7.039,7.0625,7.0625,7.0625,7.0625,7.0273,6.9492,7.0156,6.9844,6.8203,6.9492,6.75,6.168,6.0547,0.0,0.0,0.0,0.0,0.0,0.0,0.0,0.0,0.0,0.0,0.0,0.0,0.0,0.0,0.0,0.0,0.0,0.0,0.0,0.0,0.0,0.0,0.0,0.0,0.0,0.0,0.0,0.0,3.8789,3.9648,0.0,3.9062,4.0469,4.1992,4.3437,4.5703,4.7734,4.9492,4.9883,5.0469,5.1367,5.1953,5.2226,5.2226,5.3086,5.3555,5.3555,5.3867,5.4297,5.4844,5.543,5.5976,5.6562,5.7647,5.8453,5.8983,5.9295,5.727,5.4068,5.4888,5.5357,5.579,5.7489,5.8279,5.8633,5.957,5.9687,5.9453,5.9765,5.8867,5.7773,5.8398,5.8164,5.7969,5.9453,6.0508,6.164,6.3672,6.4219,6.4492,6.5703,6.5781,6.5937,6.7109,6.6172,6.5312,6.5859,6.5312,6.4023,6.164,6.3359,6.4492,6.2773,6.4453,6.664,6.8711,6.9453,7.0039,7.0625,7.1719,7.2383,7.2383,7.289,7.2617,7.1211,7.1367,7.0781,6.9101,6.9609,6.8906,6.6719,6.5859,6.2187,0.0,0.0,0.0,0.0,0.0,0.0,0.0,0.0,0.0,0.0,0.0,0.0,0.0,0.0,0.0,0.0,0.0,0.0,0.0,0.0,0.0,0.0,0.0,0.0,0.0,3.691,3.9513,4.0126,4.1982,4.2812,4.1719,4.4219,4.6367,4.7539,4.9453,5.0859,5.1367,5.168,5.1836,5.1836,5.2695,5.3125,5.3125,5.3984,5.4609,5.4883,5.5195,5.5781,5.664,5.75,5.8203,5.8828,6.0214,6.1169,6.1715,6.1715,5.969,5.6723,5.8207,5.93,6.0202,6.1313,6.1912,6.2109,6.1797,6.1719,6.1758,6.2031,6.1758,6.1328,6.164,6.1914,6.2265,6.2851,6.3633,6.457,6.5742,6.6055,6.6172,6.6758,6.6445,6.6367,6.75,6.7305,6.7148,6.8008,6.6797,6.5234,6.4101,6.6015,6.6953,6.4648,6.6797,6.8828,6.9336,7.043,7.1367,7.1953,7.3047,7.375,7.375,7.3476,7.3164,7.289,7.2344,7.164,7.082,6.9961,6.9336,6.8984,6.8164,6.4805,5.875,0.0,0.0,0.0,0.0,0.0,0.0,0.0,0.0,0.0,0.0,0.0,0.0,0.0,0.0,0.0,0.0,0.0,0.0,0.0,0.0,0.0,0.0,0.0,3.745,3.9469,4.1142,4.1195,4.4961,4.6953,4.5312,4.8203,5.0195,5.0234,5.0976,5.1406,5.1445,5.2226,5.2695,5.2734,5.3594,5.4062,5.4062,5.4961,5.582,5.6719,5.7578,5.8437,5.9297,6.0117,6.0469,6.0547,6.1385,6.1798,6.1837,6.1832,6.1837,6.1954,6.2696,6.3516,6.4301,6.432,6.3824,6.3008,6.2148,6.1875,6.1992,6.2851,6.3125,6.3281,6.414,6.4961,6.5664,6.5664,6.6289,6.6914,6.6914,6.6953,6.6953,6.6953,6.6992,6.7422,6.9062,6.9414,6.9648,7.0508,6.9375,6.8281,6.8242,6.8906,6.8906,6.7305,6.8515,0.0,6.957,7.1055,7.2695,7.4336,7.4531,7.457,7.457,7.2265,7.1914,7.4492,7.3047,7.25,7.332,7.1015,6.9297,6.8437,6.7422,6.5625,6.3086,0.0,0.0,0.0,0.0,0.0,0.0,0.0,0.0,0.0,0.0,0.0,0.0,0.0,0.0,0.0,0.0,0.0,0.0,0.0,0.0,0.0,3.7498,4.0204,3.9754,4.1969,4.4086,4.5332,4.6668,4.7744,4.8554,4.957,5.043,5.1016,5.1289,5.168,5.2305,5.2578,5.3008,5.3633,5.4492,5.5234,5.5898,5.6758,5.793,5.9375,5.9609,6.0156,6.1055,6.1914,6.2305,6.2344,6.3202,6.3933,6.4531,6.4548,6.4906,6.5294,6.3638,6.3516,6.4379,6.5009,6.5498,6.5781,6.5547,6.5469,6.5508,6.5742,6.582,6.5859,6.6094,6.6367,6.668,6.7305,6.7187,6.7031,6.7695,6.7851,6.8008,6.8633,6.8789,6.9062,7.0117,6.9844,6.9492,6.9765,6.9922,6.9805,6.918,6.9765,7.039,7.0586,7.1523,7.2461,7.3086,7.3594,7.3594,7.2812,7.3281,7.3672,7.3672,7.3594,7.4101,7.5469,7.5078,7.4648,7.4258,7.418,7.3711,7.2851,6.8945,6.625,0.0,0.0,0.0,0.0,0.0,0.0,0.0,0.0,0.0,0.0,0.0,0.0,0.0,0.0,0.0,0.0,0.0,0.0,0.0,0.0,0.0,0.0,4.0874,4.3361,4.3361,4.4703,4.6189,4.7571,4.8172,4.8864,4.9852,5.0367,5.0953,5.1812,5.1872,5.2266,5.3164,5.3594,5.418,5.5078,5.5937,5.6797,5.7695,5.8515,5.9609,6.0937,6.1328,6.1953,6.2812,6.3672,6.4101,6.414,6.5,6.5697,6.6131,6.6149,6.6429,6.6745,0.0,0.0,0.0,0.0,6.6715,6.7422,6.7422,6.7422,6.75,6.7851,6.7734,6.75,6.7851,6.7695,6.7539,6.8047,6.7851,6.7656,6.8476,6.8711,6.8906,6.9805,6.9726,6.9687,7.0508,7.0312,7.0156,7.0937,7.1484,0.0,7.1601,7.1719,7.1836,7.1992,7.3047,7.3906,7.4023,7.5,7.543,7.4805,7.5469,7.5976,7.5976,7.5469,0.0,0.0,0.0,7.5195,7.3594,7.4336,0.0,0.0,0.0,6.9336,6.9922,6.8008,0.0,0.0,6.2177,6.1286,0.0,0.0,0.0,0.0,0.0,0.0,0.0,0.0,0.0,0.0,0.0,0.0,0.0,0.0,0.0,0.0,4.4399,4.7171,4.7364,4.7434,4.7773,4.8561,4.9397,4.991,5.0023,5.0819,5.1676,5.2446,5.2728,5.3197,5.3982,5.5,0.0,0.0,0.0,5.8594,5.9453,6.0273,6.1172,6.2148,6.293,6.375,6.4609,6.539,6.5742,6.5781,6.6562,6.6949,6.7039,6.7039,6.709,6.718,6.7062,6.7093,6.716,6.7186,6.7695,6.8359,6.8359,0.0,0.0,6.9258,6.9023,6.8594,6.9219,6.9023,6.8594,6.8515,6.8476,6.8633,6.9375,6.9492,6.9648,7.0508,7.0117,6.9805,7.0781,7.0976,7.1484,7.3125,7.3437,7.3711,7.4609,7.4101,7.3359,7.2695,7.3906,7.4687,7.4101,7.5976,7.7617,7.8281,7.8984,0.0,7.9414,7.7422,7.7226,7.9687,7.7734,7.543,7.3125,7.3594,7.3203,7.1758,7.2187,7.3594,7.5898,7.5117,7.4623,7.4228,6.6569,6.4569,0.0,0.0,0.0,0.0,0.0,0.0,0.0,0.0,0.0,0.0,0.0,0.0,0.0,0.0,0.0,4.2425,4.5171,4.7558,4.891,4.9173,4.9281,4.9436,4.9668,5.0085,5.0787,5.1717,5.2337,5.2492,5.3761,5.4594,5.4787,5.6356,5.7305,5.7461,5.9062,6.0312,6.1211,6.207,6.3281,6.4844,6.5039,0.0,6.6406,6.6562,6.664,6.664,6.6836,6.7304,6.7967,6.7967,6.8359,6.8944,6.8202,6.8359,6.8905,6.8984,6.9101,6.9258,6.9258,6.9258,6.9297,6.9453,6.9805,7.0117,6.9648,7.0312,0.0,7.039,7.0234,7.0234,7.039,6.9961,6.9687,7.0508,7.0586,7.0898,7.2461,7.2812,7.3086,7.414,7.4336,7.4648,7.5508,7.5508,7.5586,7.6094,7.6484,7.7109,7.832,7.8359,7.8047,7.75,7.7578,7.7695,7.7695,7.789,7.8789,8.0625,8.0273,7.9805,7.9297,7.8125,7.7656,7.7969,7.6094,7.539,7.5898,7.5742,7.5231,7.4384,7.3401,7.317,0.0,0.0,0.0,0.0,0.0,0.0,0.0,0.0,0.0,0.0,0.0,3.6738,3.8907,0.0,4.3018,4.4752,4.6882,4.8591,4.9418,4.9992,5.0294,5.0326,5.0326,5.0674,5.1563,5.2066,5.2879,5.4138,5.468,5.5536,5.69,5.7419,5.8331,5.9648,6.0586,6.168,6.3008,6.3867,6.4726,6.5625,6.6055,6.6484,6.6914,6.6914,6.7148,6.7539,6.7539,6.8047,6.8789,6.8828,6.9336,7.0078,6.9609,6.9414,6.9414,6.9453,6.9726,7.0117,7.0117,7.039,7.0742,7.0742,7.1015,7.1289,7.0859,7.1328,7.1914,7.1484,7.1055,7.0781,7.125,7.1055,7.0976,7.1797,7.2344,7.289,7.375,7.3945,7.4219,7.5078,7.5586,7.6172,7.7031,7.7539,7.7812,7.7851,7.8203,7.875,7.9609,7.9726,7.9765,7.9765,8.0156,8.0586,8.1015,8.1445,8.207,8.289,8.2539,8.2304,8.2304,8.1484,8.125,8.164,7.9961,7.9336,7.9765,7.8867,7.8437,7.8359,7.926,7.8571,0.0,0.0,0.0,0.0,0.0,0.0,0.0,3.2776,3.4122,3.7507,3.8738,3.9969,4.2354,4.3893,4.5355,4.7086,4.8603,4.9581,4.9732,5.04,5.0935,5.1122,5.1138,5.1447,5.2144,5.2647,5.3807,5.5857,5.5896,5.6764,5.8738,5.8729,5.9593,6.1619,6.2185,6.3125,6.4531,6.543,6.5859,6.5859,6.6562,6.6992,6.7148,6.7148,6.7617,6.8437,6.8594,6.9062,6.9687,6.9883,7.0351,7.0937,7.0937,7.0508,6.9922,6.9922,7.0351,7.0937,7.0937,7.1523,7.2265,7.2265,7.2383,7.2461,7.2305,7.2383,7.2461,7.2305,7.1875,7.1601,7.2305,7.25,7.2695,7.3398,7.4101,7.4648,7.4805,7.5,7.5351,7.625,7.7109,7.789,7.8594,7.9414,7.9726,7.9062,7.9375,7.9805,8.0156,8.082,8.1601,8.2461,8.332,8.414,8.4844,8.4726,8.4648,8.4648,8.414,8.3789,8.3594,8.375,8.3867,8.3867,8.3008,8.289,8.3594,8.2187,8.1797,8.2344,8.3359,8.2071,2.839,2.8198,2.9121,2.9813,3.1814,3.4622,0.0,3.8892,3.9392,4.2739,4.3547,4.4162,4.6009,4.6471,4.7163,4.8856,4.9314,4.977,5.0542,5.0803,5.1199,5.195,5.2028,5.2105,5.2182,5.4233,5.5702,5.5973,5.8062,5.9145,5.8738,6.0877,6.199,6.1632,6.3935,6.5273,6.5469,6.6328,6.6758,6.6758,6.6836,6.7305,6.8047,6.8047,6.8515,6.9297,7.0078,7.0469,7.0625,7.1406,7.1758,7.1836,7.1836,7.1797,7.1719,7.1719,7.1758,7.1836,7.1836,7.2422,7.3164,7.3164,7.3672,7.414,7.3398,7.3711,7.414,7.3359,7.3633,7.418,7.4297,7.4297,7.4336,7.4414,7.4531,7.4805,7.5586,7.6367,7.7187,7.8047,7.8867,7.9453,7.9531,8.0273,8.082,8.0742,8.0156,8.0273,8.1797,8.2109,8.25,8.3359,8.4219,8.4804,8.4883,8.4179,8.375,8.375,8.4375,8.4414,8.3633,8.4336,8.4765,8.4765,8.3906,8.3515,8.3594,8.3398,8.2969,8.2344,8.3984,8.3994,3.2314,3.2583,3.316,3.4507,3.6353,3.8469,4.0739,4.1008,4.1585,4.447,4.547,4.6047,4.6778,4.7702,4.8586,4.9355,4.9854,5.037,5.0808,5.1305,5.1763,5.2144,5.3498,5.4426,5.4426,5.5354,5.6631,5.8178,5.8797,5.9687,6.0886,6.155,6.2457,6.3703,6.4848,6.5677,6.6211,6.6601,6.6836,6.6914,6.7422,6.7851,6.8203,6.8711,6.9414,7.0195,7.1094,7.1445,7.1484,7.1836,7.1992,7.2031,7.2578,7.2773,7.2773,7.2773,7.2773,7.2812,7.3359,7.375,7.4062,7.4062,7.4297,7.4531,7.418,7.4687,7.5273,7.4922,7.5078,7.5351,7.5351,7.5351,7.5351,7.5351,7.6133,7.6953,7.7344,7.8086,7.875,7.914,7.9883,8.0469,8.0469,8.1601,8.25,8.25,8.2187,8.2226,8.2969,8.3515,8.3945,8.4336,8.4687,8.4883,8.4883,8.457,8.4375,8.4375,8.4687,8.4726,8.4375,8.4726,8.5156,8.5664,8.4804,8.4844,8.5859,8.4844,8.4687,8.5312,8.5547,8.5327,3.3968,3.5122,3.6238,3.793,3.9969,4.17,4.2354,4.2701,4.3355,4.5201,4.6278,4.6971,4.7201,4.8451,4.9509,4.9815,5.0334,5.0889,5.1172,5.1747,5.242,5.3149,5.489,5.6283,5.7018,5.7095,5.7869,5.9764,5.9725,6.0499,6.2472,6.2455,6.3274,6.5233,6.5544,6.599,6.6667,6.6657,6.6823,6.7174,6.7811,6.8398,6.8906,6.9737,7.0487,7.1094,7.168,7.1953,7.2031,7.2265,7.2344,7.2461,7.332,7.3672,7.3672,7.3945,7.3867,7.375,7.4375,7.4765,7.4961,7.4961,7.5117,7.5312,7.5312,7.5742,7.625,7.625,7.625,7.625,7.625,7.6445,7.6601,7.6601,7.7734,7.8828,7.8828,7.9492,8.0078,8.0078,8.0976,8.1719,8.1719,8.2969,8.3945,8.3945,8.414,8.4219,8.3984,8.4492,8.5,8.5234,8.5039,8.5,8.5234,8.5039,8.4883,8.4883,8.5117,8.5273,8.5273,8.5508,8.5898,8.6562,8.5937,8.625,8.75,8.6211,8.6289,8.7461,8.6836,8.642,3.1775,3.4199,3.7084,3.8815,4.1739,4.4201,4.4201,4.4893,4.5509,4.5586,4.6278,4.7163,4.7932,4.8854,4.9738,5.0547,5.0773,5.1189,5.1962,5.215,5.3111,5.5586,5.5973,5.7018,5.9532,5.9764,5.9803,5.988,6.1389,6.2394,6.2588,6.4116,6.5083,6.5296,6.6128,6.6574,6.6612,6.6594,6.6985,6.7764,6.7913,6.8906,7.0547,7.1364,7.1809,7.1953,7.1836,7.1875,7.207,7.289,7.3242,7.3359,7.4219,7.457,7.4648,7.5508,7.5273,7.457,7.4609,7.5156,7.5859,7.5859,7.6445,7.7109,7.7109,7.7148,7.7148,7.7148,7.7148,7.7148,7.7148,7.7773,7.8437,7.8437,7.9062,7.9648,7.9648,8.0351,8.0976,8.0976,8.2344,8.3515,8.3515,8.4258,8.4844,8.4844,8.5586,8.582,8.4961,8.4883,8.5234,8.6054,8.539,8.5234,8.6094,8.539,8.4883,8.4883,8.5703,8.6172,8.6172,8.6953,8.7422,8.7461,8.7422,8.7461,8.75,8.7461,8.7461,8.75,8.7461,8.7357,3.494,3.7394,3.9777,4.2047,4.3893,4.5163,4.5163,4.5393,4.574,4.6355,4.624,4.6471,4.7855,4.8392,4.8908,4.9791,5.046,5.1206,5.205,5.3188,5.4426,5.5818,5.7521,5.8913,5.9803,5.988,6.0344,6.1466,6.2085,6.2936,6.4135,6.4715,6.5296,6.5876,6.6185,6.665,6.7307,6.7327,6.7769,6.8661,6.9284,7.0192,7.1331,7.1643,7.1809,7.1899,7.2514,7.2812,7.293,7.3789,7.414,7.4258,7.5117,7.5469,7.5586,7.6445,7.6562,7.6328,7.6328,7.6523,7.6758,7.6758,7.6953,7.7187,7.7187,7.7187,7.7305,7.789,7.8047,7.8203,7.8711,7.9062,7.9297,7.9297,7.9922,8.0547,8.0547,8.1719,8.2734,8.2734,8.3672,8.4453,8.4453,8.5195,8.5742,8.5742,8.5508,8.5664,8.6523,8.5625,8.5234,8.6094,8.5429,8.5039,8.5312,8.5078,8.4883,8.4883,8.5195,8.5351,8.5351,8.5625,8.6054,8.664,8.664,8.6914,8.75,8.6914,8.6914,8.75,8.6914,8.6559,3.7406,3.9674,4.1391,4.3848,4.492,4.5303,4.5303,4.54,4.5726,4.659,4.6165,4.6009,4.7432,4.7987,4.8441,4.896,5.0361,5.1647,5.2531,5.3884,5.5316,5.6747,5.841,5.9803,6.0692,6.0809,6.1234,6.2317,6.2975,6.3826,6.4948,6.5257,6.5682,6.6185,6.6495,6.6959,6.7617,6.7926,6.8545,6.9473,7.0399,7.1116,7.1753,7.177,7.1965,7.238,7.2949,7.3442,7.3828,7.4636,7.4983,7.5061,7.5897,7.6241,7.6367,7.686,7.71,7.7226,7.7578,7.7461,7.7265,7.7578,7.7461,7.7265,7.7578,7.7656,7.7851,7.8672,7.8945,7.9062,7.957,7.9922,8.0156,8.0156,8.082,8.1562,8.1875,8.2812,8.3672,8.3984,8.4765,8.5351,8.5351,8.6094,8.6562,8.625,8.5703,8.5664,8.6484,8.5859,8.5586,8.6133,8.5703,8.5508,8.5781,8.582,8.582,8.582,8.582,8.582,8.582,8.582,8.6094,8.664,8.664,8.6953,8.75,8.6953,8.6953,8.75,8.6914,8.6601,3.9127,4.0883,4.2103,4.4241,4.48,4.48,4.48,4.4988,4.5409,4.6194,4.586,4.5683,4.6453,4.7465,4.815,4.815,5.0394,5.2453,5.342,5.431,5.5818,5.8372,5.872,5.9725,6.2162,6.2472,6.2549,6.2549,6.4058,6.5025,6.5064,6.5799,6.6224,6.6263,6.7075,6.7539,6.7617,6.8506,6.9357,7.0247,7.1098,7.1562,7.1777,7.176,7.2302,7.3278,7.3239,7.3755,7.4683,7.5439,7.5763,7.5824,7.6513,7.6872,7.6985,7.6839,7.6997,7.7381,7.8241,7.7968,7.7422,7.8281,7.8008,7.7461,7.832,7.8555,7.8711,7.9531,7.9765,7.9765,7.9805,8.0469,8.1054,8.1054,8.1719,8.2578,8.3437,8.3672,8.3984,8.4804,8.5625,8.6211,8.625,8.6914,8.7148,8.6328,8.625,8.5976,8.5156,8.5703,8.6211,8.625,8.6289,8.6601,8.7422,8.75,8.75,8.75,8.75,8.75,8.75,8.75,8.75,8.75,8.75,8.75,8.75,8.75,8.75,8.75,8.7539,8.7578,4.0962,4.2845,4.4075,4.4649,4.48,4.48,4.48,4.4849,4.4782,4.441,4.3672,4.3031,4.2713,4.4576,4.6145,4.6145,4.9015,5.1989,5.4155,5.52,5.667,5.9261,6.0654,6.1698,6.2356,6.3555,6.4329,6.4329,6.4754,6.5257,6.5876,6.6108,6.6495,6.7152,6.7384,6.8081,6.9357,7.0247,7.0789,7.1021,7.1253,7.1369,7.1468,7.2274,7.277,7.3013,7.4422,7.5115,7.5356,7.6171,7.6496,7.6537,7.6725,7.6808,7.6838,7.6794,7.7258,7.8004,7.8854,7.8713,7.8281,7.914,7.9258,7.9101,7.9336,7.9375,7.957,8.0429,8.0664,8.082,8.1484,8.1797,8.1953,8.1953,8.2617,8.332,8.3554,8.4609,8.5586,8.582,8.6054,8.6406,8.707,8.6797,8.6445,8.6211,8.6758,8.7109,8.6875,8.6445,8.6445,8.7109,8.7187,8.7265,8.7461,8.75,8.75,8.75,8.75,8.75,8.75,8.75,8.75,8.75,8.75,8.75,8.75,8.75,8.75,8.75,8.8125,8.8398,4.2473,4.3945,4.4599,4.4465,4.4438,4.425,4.3536,4.3491,4.3253,4.2092,4.095,4.0144,4.0131,4.2354,4.4365,4.4784,4.8831,5.258,5.4542,5.5818,5.7404,5.9609,6.1041,6.2124,6.2897,6.4213,6.5141,6.5489,6.5528,6.5721,6.6185,6.6572,6.6998,6.7501,6.8197,6.9241,7.0556,7.1059,7.1291,7.1291,7.1291,7.1523,7.1988,7.2634,7.3309,7.4053,7.5157,7.5795,7.6099,7.6527,7.6711,7.6707,7.663,7.69,7.7295,7.7215,7.7816,7.8742,7.9544,7.9671,7.9559,8.0032,7.9961,7.9765,8.0156,8.0273,8.0469,8.1328,8.1562,8.1679,8.2187,8.2304,8.2383,8.2773,8.3242,8.3828,8.457,8.5508,8.6211,8.6211,8.6523,8.6679,8.6406,8.6601,8.664,8.625,8.6953,8.75,8.75,8.707,8.6953,8.7461,8.75,8.7656,8.8008,8.8047,8.8203,8.8554,8.8594,8.8437,8.8047,8.8047,8.7851,8.75,8.7851,8.8047,8.8047,8.8398,8.8594,8.8594,8.9062,8.9258,4.3557,4.4355,4.4308,4.4048,4.3986,4.3578,4.198,4.1689,4.1267,3.9414,3.8109,3.7427,3.7864,4.0421,4.2814,4.3826,4.8874,5.3242,5.4757,5.6321,5.8023,5.9996,6.0963,6.2085,6.371,6.4638,6.545,6.6147,6.6185,6.6185,6.6185,6.7036,6.7617,6.781,6.9357,7.0518,7.1291,7.1291,7.1291,7.1291,7.1291,7.1833,7.28,7.2916,7.3898,7.5443,7.5604,7.6049,7.6746,7.663,7.6552,7.6552,7.6552,7.7094,7.7867,7.7867,7.8525,7.9492,8.015,8.0614,8.0949,8.0978,8.0547,8.0195,8.0937,8.1172,8.1328,8.2109,8.2304,8.2344,8.2422,8.2461,8.2695,8.3554,8.3867,8.4375,8.5859,8.6211,8.6211,8.6367,8.6797,8.6758,8.5469,8.6406,8.7109,8.6484,8.7031,8.75,8.75,8.75,8.7539,8.7656,8.7656,8.8008,8.8789,8.8867,8.9219,8.9961,9.0,8.9648,8.8906,8.8867,8.8554,8.7851,8.8515,8.8867,8.8867,8.9648,8.9922,8.9844,8.9961,8.9922,4.3802,4.425,4.4048,4.3986,4.3986,4.3578,4.198,4.1109,3.9835,3.6845,3.6534,3.6248,3.4344,3.8033,4.1732,4.2717,4.6972,5.1447,5.526,5.667,5.8449,6.1582,6.2743,6.3632,6.4677,6.5489,6.6031,6.6185,6.6185,6.6185,6.6185,6.7036,6.8119,6.9512,7.0556,7.1137,7.1291,7.1291,7.1291,7.1291,7.1291,7.1756,7.2645,7.3496,7.4353,7.5232,7.6057,7.6436,7.6475,7.6436,7.6436,7.6475,7.721,7.7597,7.7829,7.8525,7.9299,8.0072,8.0188,8.0885,8.1746,8.1837,8.1875,8.1875,8.2031,8.207,8.2109,8.2265,8.2304,8.2461,8.3203,8.3359,8.3594,8.4453,8.5234,8.582,8.6133,8.6211,8.6406,8.7148,8.6211,8.5703,8.6836,8.6719,8.6601,8.7187,8.7383,8.75,8.75,8.75,8.7734,8.8437,8.8476,8.8828,8.9687,8.9765,8.9844,9.0,9.0,8.9922,8.9765,8.9765,8.9726,8.957,8.9687,8.9765,8.9765,8.9922,8.9648,8.8945,8.9648,8.9609,4.3722,4.4109,4.3986,4.3986,4.3986,4.3355,4.0866,3.9342,3.7522,3.4253,3.3213,3.2767,3.2432,3.6025,3.9618,4.1521,4.6454,5.126,5.4746,5.6828,5.9068,6.2046,6.3168,6.4019,6.4909,6.5721,6.6185,6.6185,6.6611,6.6882,6.6882,6.8081,6.9396,7.0634,7.1059,7.1291,7.1291,7.1291,7.1291,7.1291,7.1756,7.2413,7.3303,7.4231,7.5044,7.5817,7.6281,7.6436,7.6397,7.6397,7.6397,7.6475,7.7365,7.7983,7.8486,7.9337,8.015,8.0885,8.0885,8.1349,8.1895,8.1967,8.2132,8.2304,8.2304,8.2617,8.2969,8.2969,8.3281,8.375,8.4179,8.4297,8.4492,8.5351,8.625,8.6758,8.6289,8.6562,8.6719,8.625,8.6211,8.6367,8.6758,8.6836,8.7031,8.7422,8.75,8.75,8.75,8.7851,8.8281,8.8672,8.9101,8.9726,9.0586,9.0664,9.0859,9.1328,9.1367,9.1133,9.0703,9.0664,9.0469,9.0,9.0469,9.0469,9.0,9.0469,9.0234,8.9375,8.9804,8.9765,4.3318,4.3875,4.3986,4.3986,4.3986,4.3095,3.964,3.7596,3.5516,3.221,3.0411,2.989,3.1504,3.4547,3.78,4.0647,4.5774,5.0527,5.3803,5.6289,5.8913,6.2046,6.3013,6.3903,6.5141,6.5837,6.6263,6.6456,6.7462,6.8042,6.8042,6.928,7.0402,7.1253,7.1291,7.1291,7.1291,7.1291,7.1291,7.1291,7.2181,7.3071,7.3922,7.4734,7.5585,7.6397,7.6397,7.6397,7.6397,7.6397,7.6397,7.6514,7.7558,7.8409,7.9105,8.0111,8.0923,8.1504,8.1504,8.1658,8.191,8.2124,8.2365,8.2578,8.2578,8.3203,8.3867,8.3867,8.4375,8.4922,8.5117,8.5195,8.539,8.6289,8.6875,8.7109,8.6601,8.6719,8.664,8.5664,8.6406,8.707,8.6562,8.7031,8.75,8.75,8.75,8.7578,8.7734,8.8476,8.9062,8.9258,8.9883,9.0625,9.1484,9.1562,9.1875,9.2578,9.2617,9.2304,9.1601,9.1406,9.0976,9.0273,9.0781,9.0664,9.0,9.0703,9.0586,8.9726,8.9726,8.9648,4.2463,4.3429,4.3986,4.3986,4.3986,4.2946,3.8934,3.6779,3.4661,3.1414,3.0002,2.989,3.1504,3.4098,3.7122,4.0533,4.3787,4.7607,5.2685,5.4396,5.694,6.1814,6.2472,6.3478,6.5876,6.6147,6.6533,6.7307,6.8854,6.9783,6.9783,6.9899,7.0402,7.1253,7.1291,7.1291,7.1291,7.1291,7.1291,7.1291,7.2181,7.3071,7.3922,7.4734,7.5585,7.6397,7.6397,7.6397,7.6397,7.6397,7.6397,7.6552,7.8216,7.8912,7.9183,8.0807,8.1426,8.1504,8.1504,8.162,8.1871,8.28,8.3263,8.3476,8.3476,8.4101,8.4765,8.4765,8.4844,8.5078,8.5898,8.6094,8.6289,8.7187,8.6836,8.6523,8.7226,8.6211,8.5547,8.6992,8.6758,8.6562,8.7265,8.7461,8.75,8.75,8.75,8.7773,8.8515,8.9336,9.0195,9.0976,9.1133,9.1523,9.2422,9.2461,9.25,9.2578,9.2617,9.2578,9.2461,9.1719,9.125,9.1172,9.0469,9.0078,9.0,9.0078,8.9687,8.8828,8.8828,8.8437,4.2203,4.3392,4.3986,4.3986,4.328,4.172,3.8599,3.585,3.3324,3.108,2.9556,2.9295,3.1392,3.3216,3.5684,3.9557,4.2713,4.6128,5.024,5.3106,5.6321,6.0422,6.1776,6.34,6.5953,6.6185,6.6766,6.8197,6.9357,7.0208,7.075,7.0789,7.0943,7.1291,7.1291,7.1291,7.1291,7.1291,7.1562,7.2104,7.2955,7.3806,7.4657,7.5508,7.6049,7.6397,7.6397,7.6397,7.6397,7.6397,7.6707,7.7287,7.8525,7.9299,7.9879,8.1078,8.1504,8.1504,8.1504,8.1658,8.1978,8.2919,8.3761,8.4375,8.4375,8.5,8.5664,8.5664,8.6054,8.6523,8.6875,8.6992,8.707,8.7422,8.7226,8.6914,8.6758,8.6562,8.6523,8.6679,8.6875,8.7109,8.7422,8.75,8.75,8.75,8.75,8.7773,8.8594,8.9453,9.0312,9.1211,9.1758,9.2226,9.2578,9.2617,9.2383,9.1836,9.1836,9.1562,9.1054,9.0703,9.0508,9.0508,9.0195,8.9726,8.9219,8.9219,8.8789,8.8008,8.8476,8.8515,4.1163,4.2835,4.3986,4.3986,4.2797,4.0903,3.8154,3.5182,3.247,3.0634,2.9109,2.8866,3.1318,3.2633,3.4642,3.8644,4.1376,4.4325,4.801,5.1043,5.4349,5.8294,6.0035,6.2085,6.5141,6.6379,6.7501,6.87,6.9783,7.0634,7.1253,7.1291,7.1291,7.1291,7.1291,7.1291,7.1291,7.1291,7.1756,7.2607,7.3496,7.4309,7.5121,7.6011,7.6397,7.6397,7.6397,7.6397,7.6397,7.6668,7.7132,7.779,7.8912,7.9685,8.0266,8.0885,8.1271,8.1465,8.1233,8.1465,8.2045,8.3231,8.4215,8.4948,8.5504,8.6094,8.6562,8.6562,8.7031,8.75,8.75,8.75,8.75,8.75,8.7304,8.7031,8.664,8.6875,8.6992,8.664,8.707,8.75,8.75,8.75,8.75,8.75,8.75,8.789,8.8945,8.9609,9.0429,9.1562,9.2226,9.2617,9.2617,9.2344,9.1953,9.1328,9.1054,9.0625,9.0039,8.9765,8.9609,8.9609,8.9375,8.9062,8.8711,8.8711,8.8554,8.8242,8.8828,8.9062,3.8934,4.1534,4.3986,4.3986,4.2797,4.0717,3.7448,3.4773,3.2321,2.9927,2.87,2.8866,3.1318,3.2568,3.4373,3.7932,3.9471,4.1816,4.6292,4.7812,5.0364,5.5432,5.6824,5.9029,6.3323,6.6804,6.8777,6.8816,7.0324,7.1291,7.1291,7.1291,7.1291,7.1291,7.1291,7.1291,7.1291,7.1291,7.1756,7.2607,7.3496,7.4309,7.5121,7.6011,7.6397,7.6397,7.6397,7.6397,7.6475,7.7326,7.7674,7.7867,7.9531,8.0188,8.0188,8.0227,8.0769,8.1387,8.0653,8.0962,8.2045,8.403,8.4688,8.5053,8.6923,8.7461,8.75,8.75,8.75,8.75,8.75,8.75,8.75,8.75,8.6836,8.6445,8.7304,8.6836,8.6484,8.7304,8.75,8.75,8.75,8.75,8.75,8.75,8.75,8.8086,8.9765,9.0,9.0664,9.2383,9.2578,9.2617,9.2617,9.1797,9.1328,9.1289,9.0508,9.0,9.0,8.9179,8.8711,8.8711,8.7929,8.789,8.8711,8.8711,8.914,8.9961,8.9961,9.0,3.611,3.7782,3.9008,3.9008,3.7782,3.611,3.4513,3.2692,3.1005,2.9667,2.9184,2.9556,3.1429,3.2163,3.397,3.8634,4.0406,4.2364,4.556,4.9396,5.2917,5.5664,6.0383,6.4135,6.6108,6.781,6.9048,6.9589,7.0672,7.1291,7.1291,7.1291,7.1291,7.1291,7.1291,7.1291,7.1291,7.1872,7.2645,7.3496,7.4347,7.516,7.6011,7.6281,7.6397,7.6397,7.6397,7.6397,7.6475,7.7326,7.8061,7.868,7.9801,8.0575,8.1039,8.042,8.0807,8.1504,8.0691,8.149,8.3076,8.4301,8.5171,8.5956,8.7145,8.75,8.75,8.75,8.75,8.7344,8.6758,8.7031,8.7344,8.6758,8.6875,8.7148,8.7422,8.7265,8.7187,8.7461,8.75,8.75,8.75,8.75,8.75,8.75,8.75,8.8125,8.9765,9.0,9.0664,9.2422,9.207,9.1719,9.1719,9.1445,9.0781,8.9609,8.9258,8.8867,8.832,8.8047,8.8125,8.8672,8.8437,8.875,8.9609,8.9609,9.0039,9.0898,9.0898,9.1211,3.325,3.5367,3.6705,3.6705,3.5442,3.3993,3.3175,3.1764,3.0373,2.9593,2.9407,2.989,3.1504,3.22,3.3915,3.8226,4.0177,4.2211,4.524,4.9351,5.3304,5.6592,6.1892,6.5605,6.6456,6.7926,6.9125,6.9938,7.0789,7.1291,7.1291,7.1291,7.1291,7.1291,7.1291,7.1291,7.1291,7.2142,7.2877,7.3419,7.4579,7.5392,7.5933,7.6243,7.6397,7.6397,7.6397,7.6591,0.0,7.7829,7.868,7.9531,8.0382,8.0807,8.0962,8.042,8.0614,8.1141,8.0648,8.1769,8.3537,8.4492,8.5652,8.6797,8.7344,8.75,8.75,8.75,8.7265,8.6953,8.6758,8.6836,8.6953,8.6758,8.7109,8.75,8.75,8.75,8.75,8.75,8.75,8.75,8.75,8.75,8.75,8.75,8.75,8.8125,8.9765,9.0,9.0547,9.1953,9.1601,9.1015,9.0351,9.0312,8.9844,8.8789,8.8437,8.8008,8.7539,8.7773,8.8203,8.8672,8.9023,8.9609,9.0508,9.082,9.125,9.1797,9.1797,9.207,0.0,3.3621,3.5999,3.5999,3.4884,3.3547,3.2804,3.1541,0.0,2.9556,2.9407,2.9927,3.1652,3.2642,3.4212,3.7262,3.9222,4.1677,4.5462,4.8546,5.2569,5.8294,6.1853,6.4213,6.5102,6.7384,6.9164,7.0015,7.0827,7.1291,7.1291,7.1291,7.1291,7.1291,7.1291,7.1291,7.1291,7.2142,7.2645,7.2723,7.4347,7.5121,7.5237,7.6011,7.6397,7.6397,7.6397,7.69,7.7751,7.8641,7.9453,8.0304,8.1155,8.0962,8.0188,8.0188,8.0304,8.0439,8.0581,8.1865,8.3677,8.4731,8.6172,8.75,8.75,8.75,8.75,8.7422,8.6875,8.6445,8.7148,8.6797,8.6484,8.7226,8.7461,8.75,8.75,8.75,8.75,8.75,8.75,8.75,8.75,8.75,8.75,8.75,8.7539,8.8164,8.9804,9.0,9.0312,9.1211,9.1172,9.0469,8.8828,8.8711,8.8672,8.8633,8.7969,8.7578,8.7578,8.8359,8.8828,8.8867,8.9726,9.0586,9.1406,9.2226,9.2617,9.2617,9.2617,9.2617,2.6916,0.0,2.9221,2.9221,2.9349,2.946,0.0,2.9481,2.963,2.9444,2.9407,3.0262,3.3101,3.3493,3.4881,3.9564,4.1322,4.3426,4.7264,5.3382,5.8758,6.2085,6.4329,6.5953,6.6843,6.8081,6.9396,7.0866,7.1175,7.1291,7.1291,7.1291,7.1291,7.1291,7.1291,7.1291,7.1291,7.2142,7.2916,7.3612,7.4618,7.5469,7.6088,7.632,7.6397,7.6397,7.6397,7.69,7.7751,7.8641,7.9453,8.0304,8.1155,8.0962,8.0188,8.0188,8.0343,8.057,8.0567,8.2318,8.4809,8.6365,8.7187,8.75,8.75,8.75,8.7344,8.6679,8.6836,8.6914,8.5781,8.6367,8.707,8.6601,8.6992,8.75,8.75,8.75,8.75,8.75,8.75,8.75,8.75,8.75,8.75,8.75,8.8008,8.8789,8.9844,9.0,9.0312,9.1211,9.0117,8.914,8.8711,8.8711,8.8437,8.7812,8.8164,8.8437,8.8437,8.9258,9.0,9.0664,9.1523,9.2109,9.2304,9.25,9.2617,9.2617,9.2617,9.2617,2.5269,2.6898,2.8626,2.8626,2.9221,2.9795,2.9795,2.9593,2.9407,2.9407,3.0002,3.1154,3.325,3.5117,3.7289,4.0193,4.3216,4.6627,5.0758,5.6592,6.1118,6.2897,6.4948,6.6688,6.7965,6.8854,6.9744,7.0634,7.1059,7.1137,7.0711,7.1059,7.1291,7.1291,7.1291,7.1291,7.1291,7.2142,7.2839,7.3303,7.4541,7.5353,7.5817,7.6204,7.6397,7.6397,7.6397,7.7132,7.8332,7.8796,7.9724,8.0807,8.0885,8.0614,8.0188,8.0188,8.0382,8.0648,8.1073,8.2833,8.5195,8.6914,8.75,8.7422,8.7031,8.7187,8.7383,8.6914,8.6562,8.6289,8.6133,8.6484,8.6875,8.6797,8.7148,8.75,8.75,8.75,8.75,8.75,8.75,8.75,8.75,8.75,8.75,8.75,8.8164,8.8867,8.9336,8.9765,9.0039,9.0117,8.9258,8.8711,8.8711,8.8711,8.8515,8.8086,8.8828,8.9297,8.9297,9.0117,9.1015,9.1875,9.2344,9.2617,9.2617,9.2617,9.2617,9.2617,9.2617,9.2617,2.5054,2.8015,3.0868,3.0081,3.0788,3.1607,3.1496,3.0581,2.9816,2.9927,3.1132,3.2567,3.3915,3.7182,3.9911,4.0862,4.5572,5.0524,5.4585,5.8818,6.1814,6.2704,6.4793,6.6882,6.8622,6.9435,6.9899,7.017,7.075,7.0827,7.0208,7.0905,7.1291,7.1291,7.1291,7.1369,7.1485,7.222,7.2684,7.28,7.4347,7.516,7.5314,7.6049,7.6397,7.6397,7.6397,7.7403,7.8989,7.8989,7.9995,8.1426,8.0691,8.0343,8.0227,8.0382,8.0498,8.0771,8.1948,8.3471,8.5195,8.6914,8.7422,8.7187,8.6562,8.6719,8.7148,8.7422,8.6445,8.5625,8.6953,8.6836,8.6562,8.7304,8.75,8.75,8.75,8.75,8.75,8.75,8.75,8.75,8.75,8.75,8.75,8.75,8.8281,8.8867,8.8711,8.9453,8.9687,8.8789,8.8711,8.8711,8.8711,8.8945,8.9101,8.9101,8.9804,9.0273,9.039,9.1094,9.1836,9.2578,9.2617,9.2617,9.2617,9.2617,9.2617,9.2617,9.2617,9.2617,2.6636,2.9986,3.2089,2.7708,2.8838,3.0847,3.0114,3.0702,3.1615,3.2284,3.3175,3.5019,3.8877,3.9119,4.022,4.4824,5.018,5.4491,5.6464,6.0519,6.3632,6.4483,6.5566,6.6882,6.8622,6.8932,6.9589,7.0982,7.0518,7.044,7.1059,7.1214,7.1291,7.1291,7.1291,7.164,7.2375,7.2529,7.2955,7.3728,7.4657,7.5508,7.6204,7.632,7.6397,7.6397,7.6397,7.7403,7.8989,7.8989,7.9995,8.1504,8.1349,8.0846,8.0304,8.1155,8.1078,8.0971,8.3568,8.4646,8.5195,8.6914,8.6992,8.6523,8.7109,8.6367,8.5625,8.707,8.7304,8.6992,8.6523,8.6836,8.7344,8.7461,8.75,8.75,8.75,8.75,8.75,8.75,8.75,8.75,8.75,8.75,8.75,8.75,8.8828,8.9531,8.8789,8.9453,8.9687,8.8789,8.8711,8.8711,8.8711,9.0039,9.0898,9.0898,9.1015,9.1445,9.2187,9.2344,9.2461,9.2617,9.2617,9.2617,9.2617,9.2617,9.2617,9.2617,9.2617,9.2617,2.5933,2.8859,3.1336,2.9908,3.3048,3.648,3.6535,3.6398,3.6071,3.5539,3.6686,3.8314,4.0004,4.2328,4.5849,5.1413,5.4071,5.5998,5.768,6.0423,6.2781,6.4135,6.5412,6.6882,6.8622,6.9203,6.9589,6.9938,6.9976,7.017,7.0556,7.1021,7.1291,7.1291,7.1756,7.2181,7.2607,7.3496,7.4154,7.4541,7.4928,7.5546,7.6397,7.6397,7.6397,7.6436,7.69,7.7829,7.9028,7.9453,8.0382,8.1465,8.1001,8.0846,8.0987,8.1563,8.189,8.2287,8.4238,8.4883,8.5117,8.6367,8.6211,8.5586,8.5976,8.5859,8.5781,8.6562,8.6797,8.6797,8.6875,8.7187,8.75,8.75,8.75,8.75,8.75,8.75,8.75,8.75,8.75,8.75,8.75,8.75,8.7656,8.8086,8.8789,8.914,8.875,8.9062,8.8984,8.8125,8.8437,8.8906,8.9375,9.0586,9.1484,9.1953,9.1992,9.2187,9.2578,9.2617,9.2617,9.2617,9.2617,9.2617,9.2617,9.2617,9.2617,9.2617,9.2617,9.2617,2.5853,2.816,3.092,3.3087,3.6535,3.9903,4.1829,4.0874,3.9502,3.9049,4.0473,4.1765,4.1749,4.6138,5.1232,5.5596,5.6638,5.735,5.872,6.0344,6.2124,6.4058,6.5257,6.6766,6.8893,6.9473,6.9551,6.9125,6.9667,7.0092,7.0286,7.0943,7.1291,7.1291,7.2142,7.2684,7.2916,7.4347,7.5121,7.5121,7.5314,7.574,7.6397,7.6397,7.6397,7.6436,7.7326,7.8177,7.9067,7.9879,8.073,8.1426,8.0769,8.0923,8.1591,8.1813,8.2481,8.338,8.4289,8.4726,8.5,8.5664,8.5312,8.4687,8.5078,8.5547,8.5976,8.6406,8.6484,8.664,8.7344,8.75,8.75,8.75,8.75,8.75,8.75,8.75,8.75,8.75,8.75,8.75,8.75,8.75,8.7695,8.832,8.8594,8.8633,8.8437,8.8594,8.8398,8.7578,8.8281,8.9297,9.0508,9.1211,9.1875,9.2578,9.2617,9.2617,9.2617,9.2617,9.2617,9.2617,9.2617,9.2617,9.2617,9.2617,9.2617,9.2617,9.2617,9.2617,2.8187,3.0186,3.2366,3.5608,3.5267,3.5457,4.0444,3.9996,3.9415,4.2595,4.3984,4.5133,4.692,5.0371,5.3109,5.359,5.6965,5.9592,5.9803,6.1234,6.3245,6.5721,6.545,6.634,6.9589,6.928,6.9164,6.986,6.9976,7.0363,7.1175,7.1253,7.1291,7.1291,7.2142,7.2993,7.3806,7.4657,7.5121,7.5121,7.5933,7.632,7.6397,7.6397,7.6397,7.6436,7.7326,7.8177,7.9067,7.9879,8.073,8.1504,8.1426,8.1542,8.1697,8.1862,8.2518,8.3437,8.3632,8.4219,8.4922,8.4961,8.4414,8.3984,8.5625,8.5586,8.5312,8.6953,8.7422,8.7422,8.7461,8.75,8.75,8.75,8.75,8.75,8.75,8.75,8.75,8.75,8.75,8.75,8.75,8.75,8.7539,8.7578,8.8203,8.8437,8.7695,8.8242,8.8398,8.7578,8.8515,9.0039,9.2226,9.2461,9.2539,9.2617,9.2617,9.2617,9.2617,9.2617,9.2617,9.2617,9.2617,9.2617,9.2617,9.2617,9.2617,9.2617,9.2617,9.2617,2.7099,2.9882,3.2914,3.5325,3.6473,3.8344,4.3655,4.4534,4.4522,4.5475,4.7057,4.8785,5.0597,5.302,5.515,5.6329,5.8317,5.9939,6.0558,6.166,6.3362,6.5915,6.5915,6.665,6.9048,6.897,6.8932,6.9241,6.9705,7.0363,7.1253,7.1291,7.1291,7.1291,7.2684,7.3574,7.3883,7.5237,7.5895,7.5895,7.6243,7.6397,7.6397,7.6397,7.6397,7.6475,7.7906,7.868,7.9105,8.0459,8.1194,8.1504,8.1504,8.1542,8.162,8.1813,8.2491,8.3295,8.351,8.3828,8.4101,8.4101,8.3515,8.3125,8.4844,8.5156,8.5273,8.6992,8.75,8.75,8.75,8.75,8.75,8.75,8.75,8.75,8.75,8.75,8.75,8.75,8.75,8.75,8.75,8.75,8.7656,8.8164,8.8086,8.8008,8.8203,8.8086,8.7851,8.7539,8.8515,9.0117,9.2422,9.2617,9.2617,9.2617,9.2617,9.2617,9.2617,9.2617,9.2617,9.2617,9.2617,9.2617,9.2617,9.2617,9.2617,9.2617,9.2617,9.2617,2.8253,3.0842,3.3796,3.6416,3.8038,4.0345,4.5704,4.6724,4.695,4.8203,4.9949,5.1644,5.3085,5.4847,5.6631,5.8102,5.9338,6.0344,6.0964,6.1834,6.3245,6.5566,6.5837,6.6495,6.8236,6.8661,6.8816,6.8816,6.9783,7.0672,7.1253,7.1291,7.1291,7.1291,7.2993,7.3883,7.3883,7.5546,7.6397,7.6397,7.6397,7.6552,7.6823,7.6823,7.6823,7.69,7.837,7.8834,7.8718,8.042,8.1271,8.1504,8.1504,8.1504,8.1542,8.1813,8.2437,8.3204,8.3193,8.3359,8.3554,8.3281,8.2969,8.2969,8.4453,8.5078,8.5625,8.7109,8.75,8.75,8.75,8.75,8.75,8.75,8.75,8.75,8.75,8.75,8.75,8.75,8.75,8.75,8.75,8.75,8.7695,8.8242,8.7851,8.7695,8.8242,8.7851,8.7656,8.8008,8.8906,9.0312,9.2422,9.2617,9.2617,9.2617,9.2617,9.2617,9.2617,9.2617,9.2617,9.2617,9.2617,9.2617,9.2617,9.2617,9.2617,9.2617,9.2617,9.2617,3.2391,3.3545,3.5238,3.9431,3.9725,4.0366,4.5704,4.5438,4.5553,5.0855,5.2626,5.3472,5.4357,5.5895,5.7302,5.8175,5.9798,6.1018,6.1002,6.1814,6.3052,6.4793,6.4986,6.5682,6.7346,6.8274,6.8816,6.8816,7.0363,7.1291,7.1291,7.1291,7.1291,7.1291,7.2993,7.3883,7.3883,7.5546,7.6397,7.6397,7.6397,7.6862,7.7713,7.7713,7.7713,7.7751,7.8602,7.8525,7.7829,7.9531,8.073,8.1504,8.1504,8.1504,8.1542,8.1813,8.2437,8.3087,8.2529,8.2851,8.3437,8.2578,8.289,8.375,8.4648,8.5508,8.6367,8.7265,8.75,8.75,8.75,8.75,8.75,8.75,8.75,8.75,8.75,8.75,8.75,8.75,8.75,8.75,8.75,8.75,8.75,8.75,8.75,8.75,8.75,8.75,8.7929,8.9062,8.9687,9.0703,9.2461,9.2617,9.2617,9.2617,9.2617,9.2617,9.2617,9.2617,9.2617,9.2617,9.2617,9.2617,9.2617,9.2617,9.2617,9.2617,9.2617,9.2617,2.9236,3.3045,3.7046,3.7661,4.1629,4.5783,4.7375,4.7644,4.8694,5.2854,5.3933,5.4357,5.5203,5.7203,5.8649,5.8368,5.9798,6.1211,6.1852,6.2704,6.3942,6.5644,6.5837,6.6533,6.8236,6.8661,6.9048,6.9589,7.0672,7.1291,7.1291,7.1291,7.1291,7.1291,7.2993,7.3883,7.3883,7.5546,7.6397,7.6397,7.6397,7.6862,7.7713,7.7713,7.7713,7.7751,7.8602,7.8834,7.8757,8.042,8.1271,8.1504,8.1504,8.1504,8.1542,8.1813,8.2048,8.2296,8.2295,8.2461,8.2656,8.2383,8.289,8.375,8.4648,8.5508,8.6367,8.7265,8.75,8.75,8.75,8.75,8.75,8.75,8.75,8.75,8.75,8.75,8.75,8.75,8.75,8.75,8.75,8.75,8.75,8.75,8.75,8.75,8.75,8.75,8.7929,8.9062,9.0781,9.2031,9.2578,9.2617,9.2617,9.2617,9.2617,9.2617,9.2617,9.2617,9.2617,9.2617,9.2617,9.2617,9.2617,9.2617,9.2617,9.2617,9.2617,9.2929,3.2968,3.6892,4.0777,4.197,4.497,4.8048,4.974,5.0699,5.1924,5.4451,5.5241,5.5818,5.7011,5.8473,5.9457,5.9326,6.0261,6.1306,6.212,6.309,6.4213,6.5566,6.5992,6.6766,6.8158,6.8622,6.9125,6.9938,7.0789,7.1291,7.1291,7.1291,7.1291,7.1291,7.2993,7.3883,7.3883,7.5546,7.6397,7.6397,7.6397,7.6862,7.7713,7.7713,7.7713,7.7713,7.8254,7.8873,7.9569,8.0575,8.1194,8.1504,8.1504,8.1504,8.1542,8.1813,8.1893,8.1945,8.2217,8.2304,8.2304,8.2304,8.3125,8.4219,8.4726,8.5742,8.6836,8.7344,8.75,8.75,8.75,8.75,8.75,8.75,8.75,8.75,8.75,8.75,8.75,8.75,8.75,8.75,8.75,8.75,8.75,8.75,8.75,8.75,8.75,8.789,8.8515,8.9414,9.1367,9.2617,9.2617,9.2617,9.2617,9.2617,9.2617,9.2617,9.2617,9.2617,9.2617,9.2617,9.2617,9.2617,9.2617,9.2617,9.2773,9.3125,9.3125,9.3594,3.9931,4.2547,4.5163,4.9202,4.8856,4.8509,5.2433,5.4049,5.4934,5.5665,5.6511,5.7588,5.9204,5.955,5.9896,6.0666,6.0911,6.1306,6.2193,6.3109,6.4058,6.4986,6.576,6.6572,6.7539,6.8352,6.9164,7.0054,7.0827,7.1291,7.1291,7.1291,7.133,7.1407,7.3032,7.396,7.3999,7.5585,7.6397,7.6397,7.6397,7.6823,7.7558,7.7674,7.7751,7.7829,7.7829,7.8718,8.0227,8.0304,8.0807,8.1504,8.1504,8.1504,8.1542,8.1813,8.1893,8.1945,8.2217,8.2304,8.2304,8.2304,8.3476,8.4883,8.4883,8.6133,8.75,8.75,8.75,8.75,8.75,8.75,8.75,8.75,8.75,8.75,8.75,8.75,8.75,8.75,8.75,8.75,8.75,8.75,8.75,8.75,8.75,8.75,8.75,8.8398,8.9219,8.9726,9.1484,9.2617,9.2617,9.2617,9.2617,9.2617,9.2617,9.2617,9.2617,9.2617,9.2617,9.2617,9.2617,9.2617,9.2617,9.2695,9.3125,9.3906,9.3984,9.4492,3.4391,3.9008,4.3893,4.6124,4.9279,5.2279,5.3857,5.5357,5.6511,5.6665,5.7396,5.8319,5.9319,6.005,6.0589,6.0781,6.0911,6.1537,6.3004,6.3495,6.4251,6.576,6.6108,6.6804,6.839,6.87,6.9435,7.0905,7.1175,7.1291,7.1291,7.1291,7.1601,7.2297,7.3342,7.4193,7.485,7.5895,7.6397,7.6397,7.6397,7.6514,7.6707,7.7403,7.8061,7.8718,7.8718,7.9299,8.0266,8.0962,8.1349,8.1504,8.1504,8.1504,8.1542,8.1813,8.1893,8.1945,8.2217,8.2304,8.2304,8.2304,8.3476,8.4883,8.4883,8.6133,8.75,8.75,8.75,8.75,8.75,8.75,8.75,8.75,8.75,8.75,8.75,8.75,8.75,8.75,8.75,8.75,8.75,8.75,8.75,8.75,8.75,8.75,8.75,8.7695,8.789,8.8047,9.0781,9.2617,9.2617,9.2617,9.2617,9.2617,9.2617,9.2617,9.2617,9.2617,9.2617,9.2617,9.2617,9.2617,9.2617,9.3281,9.3711,9.3906,9.4609,9.539,3.593,4.0085,4.3893,4.7201,5.0625,5.3318,5.378,5.5511,5.7126,5.755,5.828,5.9127,5.9973,6.0473,6.0781,6.0781,6.1196,6.1996,6.3312,6.3938,6.4773,6.6069,6.6572,6.7346,6.8661,6.9164,6.9899,7.1214,7.1291,7.1291,7.1291,7.1291,7.1678,7.2568,7.3458,7.4309,7.5082,7.5972,7.6397,7.6397,7.6397,7.663,7.7055,7.7481,7.8177,7.9028,7.9415,8.0034,8.0846,8.131,8.1504,8.1504,8.1504,8.1504,8.1542,8.1813,8.1893,8.1945,8.2217,8.2304,8.2304,8.2304,8.3476,8.4883,8.4883,8.6133,8.75,8.75,8.75,8.75,8.75,8.75,8.75,8.75,8.75,8.75,8.75,8.75,8.75,8.75,8.75,8.75,8.75,8.75,8.75,8.75,8.75,8.75,8.75,8.75,8.8125,8.9765,9.1523,9.2617,9.2617,9.2617,9.2617,9.2617,9.2617,9.2617,9.2617,9.2617,9.2617,9.2617,9.2617,9.2617,9.2617,9.3594,9.4375,9.4922,9.5547,9.6289,3.7853,4.1546,4.4547,4.9625,5.2049,5.3241,5.3395,5.5395,5.7434,5.8165,5.8934,5.9781,6.0627,6.0781,6.0781,6.0781,6.152,6.2436,6.3329,6.4282,6.5234,6.6088,6.6959,6.7849,6.8738,6.9512,7.0363,7.1214,7.1291,7.1291,7.1291,7.1291,7.1756,7.28,7.3535,7.4347,7.5314,7.6049,7.6397,7.6397,7.6397,7.6862,7.7713,7.7867,7.837,7.9221,7.9918,8.0691,8.1504,8.1504,8.1504,8.1504,8.1504,8.1504,8.1542,8.1813,8.1893,8.1945,8.2217,8.2304,8.2304,8.2461,8.3594,8.4922,8.5078,8.625,8.75,8.75,8.75,8.75,8.75,8.75,8.75,8.75,8.75,8.75,8.75,8.75,8.75,8.75,8.75,8.75,8.75,8.75,8.75,8.75,8.75,8.75,8.75,8.8008,8.9453,9.2304,9.2617,9.2617,9.2617,9.2617,9.2617,9.2617,9.2617,9.2617,9.2617,9.2617,9.2617,9.2617,9.2617,9.2656,9.2812,9.4023,9.5117,9.6094,9.6523,9.707,3.1237,3.7892,4.5355,5.0471,5.2472,5.3395,5.4164,5.6319,5.8165,5.828,5.8934,5.9781,6.0627,6.0781,6.0781,6.0781,6.152,6.2413,6.3284,6.426,6.5213,6.6024,6.6917,6.7849,6.8738,6.9512,7.0363,7.1214,7.1291,7.1291,7.1291,7.1291,7.2065,7.369,7.3844,7.4657,7.6204,7.632,7.6397,7.6397,7.6397,7.6862,7.7713,7.8486,7.926,8.0034,8.015,8.0691,8.1504,8.1504,8.1504,8.1504,8.1504,8.1504,8.1542,8.1813,8.1893,8.1945,8.2217,8.2304,8.2422,8.3164,8.4101,8.5039,8.5781,8.6719,8.75,8.75,8.75,8.75,8.75,8.75,8.75,8.75,8.75,8.75,8.75,8.75,8.75,8.75,8.75,8.75,8.75,8.75,8.75,8.75,8.75,8.75,8.75,9.0078,9.2109,9.2539,9.2617,9.2617,9.2617,9.2617,9.2617,9.2617,9.2617,9.2617,9.2617,9.2617,9.2617,9.2617,9.2617,9.2969,9.3711,9.5117,9.6015,9.6445,9.7187,9.7617,3.2083,3.9008,4.5432,5.0087,5.1856,5.2702,5.3587,5.5742,5.7703,5.8204,5.9319,6.0358,6.0742,6.0781,6.0781,6.0781,6.192,6.2906,6.3338,6.4617,6.565,6.6063,6.7321,6.8348,6.8777,6.9976,7.0905,7.1253,7.1291,7.1291,7.1291,7.1291,7.2104,7.3844,7.3883,7.4695,7.6359,7.6397,7.6397,7.6397,7.69,7.7558,7.8448,7.9299,7.9879,8.0227,8.073,8.1155,8.1504,8.1504,8.1504,8.1504,8.1504,8.1504,8.1542,8.1813,8.1893,8.1945,8.2217,8.2304,8.2422,8.332,8.4179,8.5078,8.5937,8.6797,8.75,8.75,8.75,8.75,8.75,8.75,8.75,8.75,8.75,8.75,8.75,8.75,8.75,8.75,8.75,8.75,8.75,8.75,8.75,8.75,8.75,8.8203,9.0117,9.0,9.0469,9.2383,9.2617,9.2617,9.2617,9.4375,9.4648,9.2734,9.2617,9.2617,9.2617,9.2617,9.3047,9.4023,9.3711,9.4375,9.6015,9.6211,9.6601,9.7187,9.7539,9.7969,3.2391,3.8046,4.2393,4.774,4.9856,5.1087,5.2818,5.5011,5.6973,5.8088,5.9473,6.055,6.0742,6.0781,6.0781,6.0781,6.2204,6.332,6.3392,6.4879,6.6044,6.6097,6.7625,6.8712,6.8756,7.0324,7.1291,7.1291,7.1291,7.1291,7.1291,7.1523,7.2336,7.3844,7.4115,7.4928,7.6397,7.6397,7.6397,7.6397,7.7287,7.8177,7.9028,7.984,8.0343,8.0575,8.1233,8.1504,8.1504,8.1504,8.1504,8.1504,8.1504,8.1504,8.1542,8.1813,8.1893,8.1945,8.2217,8.2461,8.2773,8.3633,8.4531,8.539,8.6289,8.6992,8.75,8.75,8.75,8.75,8.75,8.75,8.75,8.75,8.75,8.75,8.75,8.75,8.75,8.75,8.75,8.75,8.75,8.75,8.75,8.75,8.75,8.8437,9.0976,8.9844,8.9765,9.2344,9.2617,9.2969,9.3828,9.6211,9.625,9.2812,9.2617,9.2617,9.2617,9.2617,9.3633,9.5781,9.4961,9.5469,9.7383,9.6992,9.7109,9.7695,9.7929,9.8398,2.8841,3.1506,3.4314,4.2585,4.5893,4.824,5.2279,5.4511,5.6242,5.7934,5.8973,5.9819,6.0666,6.0781,6.0781,6.0781,6.2204,6.332,6.332,6.4855,6.5996,6.602,6.7579,6.8712,6.8712,7.0303,7.1291,7.1291,7.1291,7.1291,7.1291,7.2065,7.2955,7.3883,7.4657,7.5469,7.6397,7.6397,7.6397,7.6397,7.7287,7.8177,7.9028,7.984,8.0653,8.1426,8.1504,8.1504,8.1504,8.1504,8.1504,8.1504,8.1504,8.1504,8.1542,8.1813,8.1893,8.1945,8.2217,8.2851,8.3672,8.4531,8.5429,8.6289,8.7187,8.7461,8.75,8.75,8.75,8.75,8.75,8.75,8.75,8.75,8.75,8.75,8.75,8.75,8.75,8.75,8.75,8.75,8.75,8.75,8.75,8.75,8.75,8.7578,8.7734,9.0429,9.2383,9.2578,9.2617,9.3906,9.7148,9.7617,9.625,9.2812,9.2617,9.2617,9.2617,9.2617,9.4179,9.75,9.5976,9.5625,9.6562,9.7304,9.7656,9.7734,9.8554,9.8945,2.739,3.0237,3.3083,3.8815,4.2777,4.6047,4.9202,5.251,5.5588,5.7819,5.8934,5.9781,6.0627,6.0781,6.0781,6.0781,6.2204,6.332,6.332,6.4806,6.5947,6.5996,6.7556,6.8668,6.869,7.0303,7.1291,7.1291,7.1291,7.1291,7.1291,7.2142,7.2993,7.3883,7.4695,7.5508,7.6397,7.6397,7.6668,7.7248,7.8099,7.8989,7.9801,8.0653,8.1194,8.1504,8.1504,8.1504,8.1504,8.1504,8.1504,8.1504,8.1504,8.1504,8.1542,8.1813,8.1893,8.1945,8.2217,8.2851,8.375,8.4609,8.5508,8.6367,8.7226,8.75,8.75,8.75,8.75,8.75,8.75,8.75,8.75,8.75,8.75,8.75,8.75,8.75,8.75,8.75,8.75,8.75,8.75,8.75,8.75,8.75,8.75,8.75,8.75,9.0508,9.2617,9.2617,9.457,9.6367,9.7617,9.5703,9.3906,9.2695,9.2617,9.2617,9.2617,9.3672,9.5,9.6562,9.6758,9.6953,9.7265,9.7578,9.7695,9.7734,9.8594,9.9297,2.485,2.7642,3.0698,3.5507,3.8815,4.2316,4.774,5.0741,5.3395,5.7088,5.8511,5.9358,6.0204,6.0589,6.0781,6.0781,6.2204,6.332,6.332,6.4782,6.5923,6.5972,6.7485,6.8598,6.8668,7.022,7.1269,7.1291,7.1291,7.1291,7.1291,7.2413,7.3574,7.4695,7.5276,7.5817,7.6397,7.6397,7.6823,7.7713,7.8564,7.9415,8.0227,8.1117,8.1504,8.1504,8.1504,8.1504,8.1504,8.1504,8.1504,8.1504,8.1504,8.1504,8.1542,8.1813,8.1893,8.1984,8.2529,8.332,8.4179,8.5039,8.5937,8.6758,8.7304,8.75,8.75,8.75,8.75,8.75,8.75,8.75,8.75,8.75,8.75,8.75,8.75,8.75,8.75,8.75,8.75,8.75,8.75,8.75,8.75,8.75,8.75,8.789,8.9062,9.1172,9.2617,9.2617,9.5664,9.7695,9.7695,9.457,9.2617,9.2617,9.2617,9.2851,9.3437,9.4375,9.5429,9.6562,9.7031,9.7422,9.7695,9.7695,9.7851,9.8164,9.9023,10.0117,0.0,0.0,0.0,3.2468,3.4007,3.6969,4.7817,4.9086,4.9625,5.5626,5.755,5.8434,5.9319,6.0204,6.0781,6.0781,6.2204,6.332,6.332,6.4782,6.5897,6.5897,6.7435,6.8525,6.8598,7.0174,7.1224,7.1291,7.1291,7.1291,7.1291,7.2955,7.4657,7.6359,7.6397,7.6397,7.6397,7.6397,7.6862,7.7751,7.8602,7.9415,8.0266,8.1117,8.1504,8.1504,8.1504,8.1504,8.1504,8.1504,8.1504,8.1504,8.1504,8.1504,8.1542,8.1813,8.1893,8.2062,8.3193,8.4179,8.5039,8.5937,8.6797,8.75,8.75,8.75,8.75,8.75,8.75,8.75,8.75,8.75,8.75,8.75,8.75,8.75,8.75,8.75,8.75,8.75,8.75,8.75,8.75,8.75,8.75,8.75,8.75,8.875,9.2148,9.2617,9.2656,9.2734,9.5703,9.7695,9.7695,9.457,9.2617,9.2617,9.2617,9.3359,9.5078,9.4609,9.539,9.7617,9.6914,9.6914,9.7695,9.7734,9.8164,9.9023,9.9922,10.1289,2.1475,0.0,0.0,0.0,0.0,0.0,3.9315,4.2585,4.6163,5.2087,5.401,5.5626,5.8896,6.0204,6.0781,6.0781,6.2204,6.332,6.332,6.4782,6.5897,6.5897,6.7435,6.8525,6.8525,7.0103,7.1154,7.1224,7.1224,7.1247,7.1291,7.2955,7.4657,7.6359,7.6397,7.6397,7.6397,7.6397,7.7132,7.8641,7.8873,7.9763,8.1155,8.1387,8.1504,8.1504,8.1504,8.1504,8.1504,8.1504,8.1504,8.1504,8.1504,8.1504,8.1542,8.1697,8.1815,8.2062,8.3076,8.4101,8.5039,8.5937,8.6797,8.75,8.75,8.75,8.75,8.75,8.75,8.75,8.75,8.75,8.75,8.75,8.75,8.75,8.75,8.75,8.75,8.75,8.75,8.75,8.75,8.75,8.75,8.75,8.75,8.875,9.2148,9.2617,9.3554,9.6015,9.7148,9.7695,9.7695,9.457,9.2617,9.2617,9.2617,9.3086,9.4219,9.4687,9.5547,9.6797,9.7187,9.7461,9.7695,9.832,9.875,9.9023,10.0508,10.1797,2.2216,2.345,2.4973,2.6158,0.0,0.0,3.7969,4.1316,4.497,5.1625,5.3933,5.5665,5.8473,5.9704,6.0358,6.0742,6.2204,6.332,6.332,6.4782,6.5897,6.5897,6.7102,6.7936,6.7961,6.9527,7.058,7.0652,7.0985,7.151,7.2291,7.3319,7.4657,7.6359,7.6397,7.6397,7.6397,7.6397,7.7248,7.8989,7.8989,7.9879,8.1504,8.1504,8.1504,8.1504,8.1504,8.1504,8.1504,8.1504,8.1504,8.1504,8.1504,8.1504,8.1542,8.1697,8.1846,8.2092,8.3535,8.4414,8.5117,8.6328,8.7109,8.75,8.75,8.75,8.75,8.75,8.75,8.75,8.75,8.75,8.75,8.75,8.75,8.75,8.75,8.75,8.75,8.75,8.75,8.75,8.75,8.75,8.75,8.75,8.75,8.875,9.2148,9.2617,9.3906,9.7344,9.7695,9.7695,9.7695,9.457,9.2617,9.2617,9.2929,9.3515,9.4414,9.5273,9.6133,9.6992,9.7461,9.8047,9.8789,9.8945,9.9375,10.0117,10.1484,10.2187,2.3458,2.4447,2.594,2.7464,2.7943,0.0,3.9469,4.1777,4.4008,5.1202,5.3933,5.5395,5.6665,5.755,5.8396,5.9242,6.1127,6.2666,6.3243,6.4782,6.5897,6.5897,6.659,6.7116,6.7191,6.8693,6.972,6.9871,7.0643,7.1902,7.3712,7.3837,7.4657,7.6359,7.6397,7.6397,7.6397,7.6475,7.7365,7.8989,7.9105,7.9956,8.1504,8.1504,8.1504,8.1504,8.1504,8.1504,8.1504,8.1504,8.1504,8.1504,8.1504,8.1504,8.1542,8.1774,8.1862,8.2178,8.4167,8.4882,8.5195,8.6914,8.75,8.75,8.75,8.75,8.75,8.75,8.75,8.75,8.75,8.75,8.75,8.75,8.75,8.75,8.75,8.75,8.75,8.75,8.75,8.75,8.75,8.75,8.75,8.75,8.7812,8.914,9.2226,9.2617,9.3906,9.7344,9.7695,9.7539,9.7187,9.4336,9.2617,9.2617,9.3437,9.4297,9.5156,9.6054,9.6875,9.7695,9.7812,9.8633,10.0312,9.9609,10.0117,10.1797,10.2383,10.2383,2.5886,2.5827,2.6656,2.6893,2.7959,0.0,3.1376,3.343,3.6084,4.0354,4.2047,4.3816,4.7432,4.8779,4.9625,5.0433,5.428,5.8627,6.2743,6.4782,6.5897,6.5897,6.659,6.709,6.7116,6.8078,6.8989,6.9759,7.0618,7.1902,7.3712,7.3814,7.461,7.6359,7.6397,7.6397,7.6397,7.7094,7.7983,7.9028,7.9647,8.0498,8.1504,8.1504,8.1504,8.1504,8.1504,8.1504,8.1504,8.1504,8.1504,8.1504,8.1504,8.1504,8.1504,8.1581,8.1716,8.2153,8.3944,8.4726,8.5195,8.6914,8.75,8.75,8.75,8.75,8.75,8.75,8.75,8.75,8.75,8.75,8.75,8.75,8.75,8.75,8.75,8.75,8.75,8.75,8.75,8.75,8.75,8.75,8.75,8.75,8.9844,9.1836,9.25,9.2617,9.3906,9.7344,9.7695,9.6601,9.3828,9.2969,9.2617,9.2617,9.3437,9.4297,9.5156,9.6054,9.6875,9.7695,9.8398,9.9258,10.0312,10.0781,10.1601,10.2617,10.2109,10.2109,2.7234,2.6594,2.7082,2.789,2.8357,0.0,0.0,3.2671,3.4622,3.8469,3.9931,4.1431,4.4393,4.5663,4.6547,4.7355,5.1779,5.5395,5.6242,6.1512,6.5397,6.5859,6.6244,6.6513,6.6513,6.7244,6.8309,6.9643,7.0196,7.1235,7.3007,7.3558,7.4393,7.5701,7.6165,7.6397,7.6397,7.7248,7.8138,7.9028,7.984,8.0653,8.1504,8.1504,8.1504,8.1504,8.1504,8.1504,8.1504,8.1504,8.1504,8.1504,8.1504,8.1504,8.1504,8.1581,8.1746,8.2141,8.3956,8.471,8.5195,8.6914,8.75,8.75,8.75,8.75,8.75,8.75,8.75,8.75,8.75,8.75,8.75,8.75,8.75,8.75,8.75,8.75,8.75,8.75,8.75,8.75,8.75,8.75,8.75,8.75,9.039,9.2617,9.2617,9.4101,9.5781,9.7539,9.7695,9.6328,9.289,9.2617,9.2617,9.2617,9.3828,9.4726,9.5195,9.6406,9.75,9.832,9.9648,10.0508,10.1015,10.1797,10.25,10.289,10.1992,10.1797,2.9047,2.8173,2.8579,2.9316,2.9246,2.9691,0.0,0.0,0.0,3.7406,3.8777,3.9815,4.1354,4.2354,4.3162,4.3855,4.8394,5.0856,4.8086,5.5742,6.2127,6.332,6.4743,6.5474,6.4974,6.5513,6.6821,6.9013,6.8796,6.9604,7.2032,7.32,7.42,7.5082,7.5933,7.6397,7.6397,7.7442,7.8293,7.9028,7.9995,8.0807,8.1504,8.1504,8.1504,8.1504,8.1504,8.1504,8.1504,8.1504,8.1504,8.1504,8.1504,8.1504,8.1504,8.162,8.1774,8.215,8.3834,8.4646,8.5156,8.6758,8.7344,8.75,8.75,8.75,8.75,8.75,8.75,8.75,8.75,8.75,8.75,8.75,8.75,8.75,8.75,8.75,8.75,8.75,8.75,8.75,8.75,8.75,8.75,8.75,9.039,9.2617,9.2617,9.5586,9.7695,9.7695,9.7695,9.6328,9.289,9.2617,9.2734,9.3086,9.4414,9.5273,9.5429,9.707,9.8359,9.9219,10.0781,10.1601,10.1601,10.25,10.2812,10.2617,10.1914,10.1601,3.3066,3.2636,3.3135,3.0221,3.1091,3.1793,2.8349,0.0,2.9689,2.9374,0.0,3.0852,3.1814,0.0,0.0,3.343,3.8315,4.1931,4.1546,4.7048,5.201,5.4357,6.0627,6.3858,6.1589,6.1473,6.3128,6.709,6.532,6.6165,7.099,7.2828,7.4152,7.5082,7.5933,7.6397,7.6397,7.8022,7.8912,7.9028,8.0614,8.1387,8.1504,8.1504,8.1504,8.1504,8.1504,8.1504,8.1504,8.1504,8.1504,8.1504,8.1504,8.1504,8.1504,8.1542,8.1697,8.2065,8.3024,8.4056,8.5078,8.6015,8.6875,8.75,8.75,8.75,8.75,8.75,8.75,8.75,8.75,8.75,8.75,8.75,8.75,8.75,8.75,8.75,8.75,8.75,8.75,8.75,8.75,8.75,8.75,8.75,9.039,9.2617,9.2617,9.5586,9.7695,9.7695,9.7695,9.6328,9.289,9.2617,9.3242,9.4804,9.5078,9.5547,9.6328,9.7969,9.9258,10.0117,10.1094,10.1601,10.1601,10.25,10.25,10.1719,10.1601,10.1601,3.3339,3.3729,3.4859,3.2388,3.2916,3.3044,2.9219,2.8046,2.7649,2.7296,0.0,0.0,0.0,0.0,0.0,0.0,3.5815,3.8354,3.6353,4.2508,4.8509,5.2049,5.528,5.7973,5.9858,6.0512,6.2551,6.6782,6.4743,6.537,7.0092,7.2495,7.3895,7.434,7.5678,7.6397,7.6397,7.8138,7.8989,7.9028,8.0691,8.1504,8.1504,8.1504,8.1504,8.1504,8.1504,8.1504,8.1504,8.1504,8.1504,8.1504,8.1504,8.1504,8.1504,8.1504,8.1658,8.2003,8.2902,8.3965,8.5117,8.6523,8.7187,8.75,8.75,8.75,8.75,8.75,8.75,8.75,8.75,8.75,8.75,8.75,8.75,8.75,8.75,8.75,8.75,8.75,8.75,8.8125,9.0117,8.8828,8.75,8.75,9.039,9.332,9.5312,9.6797,9.7695,9.7695,9.7695,9.6328,9.289,9.2617,9.3359,9.5078,9.6094,9.7031,9.789,9.9609,10.0703,10.1015,10.1914,10.2383,10.2383,10.2187,10.1992,10.1601,10.1601,10.1601,3.5681,3.6111,3.7009,3.3846,3.3675,3.3384,2.994,2.8479,2.7697,2.7171,2.7575,0.0,0.0,0.0,3.0737,3.066,0.0,3.5238,3.2275,3.7584,4.3278,4.7278,4.9394,5.2356,5.6973,5.7357,5.9473,6.4628,6.2666,6.3614,6.9155,7.1904,7.3459,7.3765,7.5461,7.6374,7.6374,7.8138,7.8989,7.9028,8.0691,8.1504,8.1504,8.1504,8.1504,8.1504,8.1504,8.1504,8.1504,8.1504,8.1504,8.1504,8.1504,8.1504,8.1504,8.1504,8.1658,8.2003,8.2902,8.4122,8.5508,8.6992,8.75,8.75,8.75,8.75,8.75,8.75,8.75,8.75,8.75,8.75,8.75,8.75,8.75,8.75,8.75,8.75,8.75,8.75,8.75,8.8281,9.0781,8.914,8.7812,8.875,9.1015,9.3828,9.7265,9.7695,9.7695,9.7695,9.6875,9.5312,9.2812,9.2617,9.3554,9.5742,9.7344,9.8633,9.9687,10.0898,10.1719,10.1992,10.2617,10.2812,10.25,10.1914,10.1484,10.1211,10.1484,10.1601,4.2435,4.1498,4.0561,3.3846,3.2792,3.2511,2.9047,2.9503,3.0141,2.8334,2.9928,3.1101,2.9424,3.0506,0.0,0.0,0.0,0.0,0.0,3.0891,3.3391,3.6776,4.3047,4.8394,5.1818,4.9933,5.1625,5.9165,5.7396,5.9634,6.8077,7.0966,7.2765,7.3691,7.5388,7.6301,7.6301,7.8114,7.8989,7.9028,8.0691,8.1504,8.1504,8.1504,8.1504,8.1504,8.1504,8.1504,8.1504,8.1504,8.1504,8.1504,8.1504,8.1504,8.1504,8.1504,8.1658,8.2003,8.2902,8.4512,8.6328,8.7226,8.75,8.75,8.75,8.75,8.75,8.75,8.75,8.75,8.75,8.75,8.75,8.75,8.75,8.75,8.75,8.75,8.75,8.75,8.75,8.7539,8.7656,8.7578,8.8633,9.1953,9.2539,9.3828,9.7265,9.7695,9.7695,9.7695,9.4726,9.2734,9.2617,9.2617,9.4023,9.7422,9.8789,10.0117,10.1484,10.1601,10.1992,10.2812,10.289,10.25,10.1601,10.1601,10.1211,10.039,10.1211,10.1601,4.509,4.5987,4.5831,3.8921,3.8297,3.7708,3.1376,3.0774,3.1101,2.9352,3.0016,3.0768,3.0195,3.05,0.0,0.0,0.0,0.0,0.0,3.0083,3.1891,0.0,0.0,0.0,0.0,4.9663,5.351,5.8357,5.9473,6.2421,6.8116,7.0324,7.211,7.3574,7.4822,7.5721,7.6301,7.8114,7.8989,7.9028,8.0691,8.1504,8.1504,8.1504,8.1504,8.1504,8.1504,8.1504,8.1504,8.1504,8.1504,8.1504,8.1504,8.1504,8.1504,8.1504,8.162,8.2011,8.3644,8.5071,8.6328,8.7226,8.75,8.75,8.75,8.75,8.75,8.75,8.75,8.75,8.75,8.75,8.75,8.75,8.75,8.75,8.75,8.75,8.75,8.75,8.75,8.75,8.75,8.8437,8.9922,9.2265,9.2617,9.3828,9.7265,9.7695,9.7695,9.7695,9.6679,9.5078,9.2773,9.2617,9.4531,9.914,10.0195,10.0898,10.1601,10.2187,10.2617,10.289,10.289,10.25,10.1601,10.1601,10.1406,10.1211,10.1484,10.1601,4.845,4.9306,4.9189,4.3528,4.2942,4.2084,3.5486,3.4889,3.5108,3.3063,3.2538,3.2997,3.4846,3.3352,0.0,0.0,0.0,0.0,0.0,3.0121,0.0,0.0,0.0,0.0,0.0,0.0,5.1048,5.778,5.8704,6.1704,6.8052,6.9759,7.1479,7.352,7.4436,7.5362,7.6276,7.7755,7.8655,7.9028,8.0382,8.1194,8.1504,8.1504,8.1504,8.1504,8.1504,8.1504,8.1504,8.1504,8.1504,8.1504,8.1504,8.1504,8.1504,8.1504,8.2006,8.2948,8.4648,8.5859,8.6758,8.7304,8.75,8.75,8.75,8.75,8.75,8.75,8.75,8.75,8.75,8.75,8.75,8.75,8.75,8.75,8.75,8.75,8.75,8.75,8.75,8.75,8.75,8.8711,9.0586,9.3125,9.4023,9.5195,9.7422,9.7695,9.7539,9.7148,9.6719,9.5586,9.3398,9.3945,9.6172,10.039,10.1406,10.1914,10.2109,10.2617,10.289,10.289,10.2617,10.1992,10.1094,10.1094,10.1094,10.1094,10.1484,10.1797]},{"header":{"parameterUnit":"m.s-1","parameterCategory":1,"la1":30.6,"la2":29.2853,"lo1":-89.7004,"lo2":-87.6739,"dx":0.0162,"dy":0.0183,"nx":112,"ny":82,"refTime":"2022-11-07T18:00:00:Z","depth":0,"parameterNumber":3,"parameterNumberName":"V-component_of_WINDS"},"data":[0.0,0.0,0.0,0.0,0.0,0.0,0.0,0.0,0.0,0.0,0.0,0.0,0.0,0.0,0.0,0.0,0.0,0.0,0.0,0.0,0.0,0.0,0.0,0.0,0.0,0.0,0.0,0.0,0.0,0.0,0.0,0.0,0.0,0.0,0.0,0.0,0.0,0.0,0.0,0.0,0.0,0.0,0.0,0.0,0.0,0.0,0.0,0.0,0.0,0.0,0.0,0.0,0.0,0.0,0.0,0.0,0.0,0.0,0.0,0.0,0.0,0.0,0.0,0.0,0.0,0.0,0.0,0.0,0.0,0.0,0.0,0.0,0.0,0.0,0.0,0.0,0.0,0.0,0.0,0.0,0.0,0.0,0.0,0.0,0.0,0.0,0.0,0.0,0.0,0.0,0.0,0.0,0.0,0.0,0.0,0.0,0.0911,0.2869,0.0,0.0,0.0,0.0,0.0,0.0,0.0,0.0,0.0,0.0,0.0,0.0,0.0,0.0,0.0,0.0,0.0,0.0,0.0,0.0,0.0,0.0,0.0,0.0,0.0,0.0,0.0,0.0,0.0,0.0,0.0,0.0,0.0,0.0,0.0,0.0,0.0,0.0,0.0,0.0,0.0,0.0,0.0,0.0,0.0,0.0,0.0,0.0,0.0,0.0,0.0,0.0,0.0,0.0,0.0,0.0,0.0,0.0,0.0,0.0,0.0,0.0,0.0,0.0,0.0,0.0,0.0,0.0,0.0,0.0,0.0,0.0,0.0,0.0,0.0,0.0,0.0,0.0,0.0,0.0,0.0,0.0,0.0,0.0,0.0,0.0,0.0,0.0,0.0,0.0,0.0,0.0,0.0,0.0,0.0,0.0,0.0,0.0,0.0,0.0,0.0,0.0,0.0,0.0,0.0,0.0,0.0,0.0,0.0,0.0,0.0118,0.0531,0.0,0.0,0.0,0.0,0.0,0.0,0.0,0.0,0.0,0.0,0.0,0.0,0.0,0.0,0.0,0.0,0.0,0.0,0.0,0.0,0.0,0.0,0.0,0.0,0.0,0.0,0.0,0.0,0.0,0.0,0.0,0.0,0.0,0.0,0.0,0.0,0.0,0.0,0.0,0.0,0.0,0.0,0.0,0.0,0.0,0.0,0.0,0.0,0.0,0.0,0.0,0.0,0.0,0.0,0.0,0.0,0.0,0.0,0.0,0.0,0.0,0.0,0.0,0.0,0.0,0.0,0.0,0.0,0.0,0.0,0.0,0.0,0.0,0.0,0.0,0.0,0.0,0.0,0.0,0.0,0.0,0.0,0.0,0.0,0.0,0.0,0.0,0.0,0.0,0.0,0.0,0.0,0.0,0.0,0.0,0.0,0.0,0.0,0.0,0.0,0.0,0.0,0.0,0.0,0.0,0.0,0.0,0.0,0.0,0.0,0.0,0.0,0.1417,0.0,0.0,0.0,0.0,0.0,0.0,0.0,0.0,0.0,0.0,0.0,0.0,0.0,0.0,0.0,0.0,0.0,0.0,0.0,0.0,0.0,0.0,0.0,0.0,0.0,0.0,0.0,0.0,0.0,0.0,0.0,0.0,0.0,0.0,0.0,0.0,0.0,0.0,0.0,0.0,0.0,0.0,0.0,0.0,0.0,0.0,0.0,0.0,0.0,0.0,0.0,0.0,0.0,0.0,0.0,0.0,0.0,0.0,0.0,0.0,0.0,0.0,0.0,0.0,0.0,0.0,0.0,0.0,0.0,0.0,0.0,0.0,0.0,0.0,0.0,0.0,0.0,0.0,0.0,0.0,0.0,0.0,0.0,0.0,0.0,0.0,0.0,0.0,0.0,0.0,0.0,0.0,0.0,0.0,0.0,0.0,0.0,0.0,0.0,0.0,0.0,0.0,0.0,0.0,0.0,0.0,0.0,0.0,0.0,0.0,0.0,0.0305,0.0,0.0,0.0,0.0,0.0,0.0,0.0,0.0,0.0,0.0,0.0,0.0,0.0,0.0,0.0,0.0,0.0,0.0,0.0,0.0,0.0,0.0,0.0,0.0,0.0,0.0,0.0,0.0,0.0,0.0,0.0,0.0,0.0,0.0,0.0,0.0,0.0,0.0,0.0,0.0,0.0,0.0,0.0,0.0,0.0,0.0,0.0,0.0,0.0,0.0,0.0,0.0,0.0,0.0,0.0,0.0,0.0,0.0,0.0,0.0,0.0,0.0,0.0,0.0,0.0,0.0,0.0,0.0,0.0,0.0,0.0,0.0,0.0,0.0,0.0,0.0,0.0,0.0,0.0,0.0,0.0,0.0,0.0,0.0,0.0,0.0,0.0,0.0,0.0,0.0,0.0,0.0,0.0,0.0,0.0,0.0,0.0,0.0,0.0,0.0,0.0,0.0,0.0,0.0,0.0,0.0,0.0,0.0,0.0,0.0,0.0,0.0307,0.0,0.0,0.0,0.0,0.0,0.0,0.0,0.0,0.0,0.0,0.0,0.0,0.0,0.0,0.0,0.0,0.0,0.0,0.0,0.0,0.0,0.0,0.0,0.0,0.0,0.0,0.0,0.0,0.0,0.0,0.0,0.0,0.0,0.0,0.0,0.0,0.0,0.0,0.0,0.0,0.0,0.0,0.0,0.0,0.0,0.0,0.0,0.0,0.0,0.0,0.0,0.0,0.0,0.0,0.0,0.0,0.0,0.0,0.0,0.0,0.0,0.0,0.0,0.0,0.0,0.0,0.0,0.0,0.0,0.0,0.0,0.0,0.0,0.0,0.0,0.0,0.0,0.0,0.0,0.0,0.0,0.0,0.0,0.0,0.0,0.0,0.0,0.0,0.0,0.0,0.0,0.0,0.0,0.0,0.0,0.0,0.0,0.0,0.0,0.0,0.0,0.0,0.0,0.0,0.0,0.0,0.0,0.0,0.0,0.0,0.0,0.0,0.0,0.0,0.0,0.0,0.0,0.0,0.0,0.0,0.0,0.0,0.0,0.0,0.0,0.0,0.0,0.0,0.0,0.0,0.0,0.0,0.0,0.0,0.0,0.0,0.0,0.0,0.0,0.0,0.0,0.0,0.0,0.0,0.0,0.0,0.0,0.0,0.0,0.0,0.0,0.0,0.0,0.0,0.0,0.0,0.0,0.0,0.0,0.0,0.0,0.0,0.0,0.0,0.0,0.0,0.0,0.0,0.0,0.0,0.0,0.0,0.0,0.0,0.0,0.0,0.0,0.0,0.0,0.0,0.0,0.0,0.0,0.0,0.0,0.0,0.0,0.0,0.0,0.0,0.0,0.0,0.0,0.0,0.0,0.0,0.0,0.0,0.0,0.0,0.0,0.0,0.0,0.0,0.0,0.0,0.0,0.0,0.0,0.0,0.0,0.0,0.0,0.0,0.0,0.0,0.0,0.0,0.0,0.0,0.0,0.0,0.0,0.0,0.0,0.0,0.0,0.0,0.0,0.0,0.0,0.0,0.0,0.0,0.0,0.0,0.0,0.0,0.0,0.0,0.0,0.0,0.0,0.0,0.0,0.0,0.0,0.0,0.0,0.0,0.0,0.0,0.0,0.0,0.0,0.0,0.0,0.0,0.0,0.0,0.0,0.0,0.0,0.0,0.0,0.0,0.0,0.0,0.0,0.0,0.0,0.0,0.0,0.0,0.0,0.0,0.0,0.0,0.0,0.0,0.0,0.0,0.0,0.0,0.0,0.0,0.0,0.0,0.0,0.0,0.0,0.0,0.0,0.0,0.0,0.0,0.0,0.0,0.0,0.0,0.0,0.0,0.0,0.0,0.0,0.0,0.0,0.0,0.0,0.0,0.0,0.0,0.0,0.0,0.0,0.0,0.0,0.0,0.0,0.0,0.0,0.0,0.0,0.0,0.0,0.0,0.0,0.0,0.0,0.0,0.0,0.0,0.0,0.0,0.0,0.0,0.0,0.0,0.0,0.0,0.0,0.0,0.0,0.0,0.0,0.0,0.0,0.0,0.0,0.0,0.0,0.0,0.0,0.0,0.0,0.0,0.0,0.0,0.0,0.0,0.0,0.0,0.0,0.0,0.0,0.0,0.0,0.0,0.0,0.0,0.0,0.0,0.0,0.0,0.0,0.0,0.0,0.0,0.0,0.0,0.0,0.0,0.0,0.0,0.0,0.0,0.0,0.0,0.0,0.0,0.0,0.0,0.0,0.0,0.0,0.0,0.0,0.0,0.0,0.0,0.0,0.0,0.0,0.0,0.0,0.0,0.0,0.0,0.0,0.0,0.0,0.0,0.0,0.0,0.0,0.0,0.0,0.0,0.0,0.0,0.0,0.0,0.0,0.0,0.0,0.0,0.0,0.0,0.0,0.0,0.0,0.0,0.0,0.0,0.0,0.0,0.0,0.0,0.0,0.0,0.0,0.0,0.0,0.0,0.0,0.0,0.0,0.0,0.0,0.0,0.0,0.0,0.0,0.0,0.0,0.0,0.0,0.0,0.0,0.0,0.0,0.0,0.0,0.0,0.0,0.0,0.0,0.0,0.0,0.0,0.0,0.0,0.0,0.0,0.0,0.0,0.0,0.0,0.0,0.0,0.0,0.0,0.0,0.0,0.0,0.0,0.0,0.0,0.0,0.0,0.0,0.0,0.0,0.0,0.0,0.0,0.0,0.0,0.0,0.0,0.0,0.0,0.0,0.0,0.0,0.0,0.0,0.0,0.0,0.0,0.0,0.0,0.0,0.0,0.0,0.0,0.0,0.0,0.0,0.0,0.0,0.0,0.0,0.0,0.0,0.0,0.0,0.0,0.0,0.0,0.0,0.0,0.0,0.0,0.0,0.0,0.0,0.0,0.0,0.0,0.0,0.0,0.0,0.0,0.0,0.0,0.0,0.0,0.0,0.0,0.0,0.0,0.0,0.0,0.0,0.0,0.0,0.0,0.0,0.0,0.0,0.0,0.0,0.0,0.0,0.0,0.0,0.0,0.0,0.0,0.0,0.0,0.0,0.0,0.0,0.0,0.0,0.0,0.0,0.0,0.0,0.0,0.0,0.0,0.0,0.0,0.0,0.0,0.0,0.0,0.0,0.0,0.0,0.0,0.0,0.0,0.0,0.0,0.0,0.0,0.0,0.0,0.0,0.0,0.0,0.0,0.0,0.0,0.0,0.0,0.0,0.0,0.0,0.0,0.0,0.0,0.0,0.0,0.0,0.0,0.0,0.0,0.0,0.0,0.0,0.0,0.0,0.0,0.0,0.0,0.0,0.0,0.0,0.0,0.0,0.0,0.0,0.0,0.0,0.0,0.0,0.0,0.0,0.0,0.0,0.0,0.0,0.0,0.0,0.0,0.0,0.0,0.0,0.0,0.0,0.0,0.0,0.0,0.0,0.0,0.0,0.0,0.0,0.0,0.0,0.0,0.0,0.0,0.0,0.0,0.0,0.0,0.0,0.0,0.0,0.0,0.0,0.0,0.0,0.0,0.0,0.0,0.0,0.0,0.0,0.0,0.0,0.0,0.0,0.0,0.0,0.0,0.0,0.0,0.0,0.0,0.0,0.0,0.0,0.0,0.0,0.0,0.0,0.0,0.0,0.0,0.0,0.0,0.0,0.0,0.0,0.0,0.0,0.0,0.0,0.0,0.0,0.0,0.0,0.0,0.0,0.0,0.0,0.0,0.0,0.0,0.0,0.0,0.0,0.0,0.0,0.1514,0.108,0.0,0.0,0.0,0.0,0.0,0.0,0.0,0.0,0.0,0.0,0.0,0.0,0.0,0.0,0.0,0.0,0.0,0.0,0.0,0.0,0.0,0.0,0.0,0.0,0.0,0.0,0.0,0.0,0.0,0.0,0.0,0.0,0.0,0.0,0.0,0.0,0.0,0.0,0.0,0.0,0.0,0.0,0.0,0.0,0.0,0.0,0.0,0.0,0.0,0.0,0.0,0.0,0.0,0.0,0.0,0.0,0.0,0.0,0.0,0.0,0.0,0.0,0.0,0.0,0.0,0.0,0.0,0.0,0.0,0.0,0.0,0.0,0.0,0.0,0.0,0.0,0.0,0.0,0.0,0.0,0.0,0.0,0.0,0.0,0.0,0.0,0.0,0.0,0.0,0.0,0.0,0.0,0.0,0.0,0.0,0.0,0.0,0.0,0.0,0.0,0.0,0.0,0.0,0.0,0.0,0.0,0.0,0.0,0.0,0.0,0.1748,0.1478,0.0,0.0,0.0,0.0,0.0,0.0,0.0,0.0,0.0,0.0,0.0,0.0,0.0,0.0,0.0,0.0,0.0,0.0,0.0,0.0,0.0,0.0,0.0,0.0,0.0,0.0,0.0,0.0,0.0,0.0,0.0,0.0,0.0,0.0,0.0,0.0,0.0,0.0,0.0,0.0,0.0,0.0,0.0,0.0,0.0,0.0,0.0,0.0,0.0,0.0,0.0,0.0,0.0,0.0,0.0,0.0,0.0,0.0,0.0,0.0,0.0,0.0,0.0,0.0,0.0,0.0,0.0,0.0,0.0,0.0,0.0,0.0,0.0,0.0,0.0,0.0,0.0,0.0,0.0,0.0,0.0,0.0,0.0,0.0,0.0,0.0,0.0,0.0,0.0,0.0,0.0,0.0,0.0,0.0,0.0,0.0,0.0,0.0,0.0,0.0,0.0,0.0,0.0,0.0,0.0,0.0553,0.1501,0.1621,0.1676,0.1641,0.1707,0.1679,0.1434,0.1381,0.0,0.0,0.0,0.0,0.0,0.0,0.0,0.0,0.0,0.0,0.0,0.0,0.0,0.0,0.0,0.0,0.0,0.0,0.0,0.0,0.0,0.0,0.0,0.0,0.0,0.0,0.0,0.0,0.0,0.0,0.0,0.0,0.0,0.0,0.0,0.0,0.0,0.0,0.0,0.0,0.0,0.0,0.0,0.0,0.0,0.0,0.0,0.0,0.0,0.0,0.0,0.0,0.0,0.0,0.0,0.0,0.0,0.0,0.0,0.0,0.0,0.0,0.0,0.0,0.0,0.0,0.0,0.0,0.0,0.0,0.0,0.0,0.0,0.0,0.0,0.0,0.0,0.0,0.0,0.0,0.0,0.0,0.0,0.0,0.0,0.0,0.0,0.0,0.0,0.0,0.0,0.0,0.0,0.0,0.0,0.0,0.0,0.0,0.0,0.0,0.0,0.0,0.0,0.0109,0.0219,0.0767,0.099,0.0995,0.1532,0.0,0.1001,0.148,0.0,0.0,0.0,0.0,0.0,0.0,0.0,0.0,0.0,0.0,0.0,0.0,0.0,0.0,0.0,0.0,0.0,0.0,0.0,0.0,0.0,0.0,0.0,0.0,0.0,0.0,0.0,0.0,0.0,0.0,0.0,0.0,0.0,0.0,0.0,0.0,0.0,0.0,0.0,0.0,0.0,0.0,0.0,0.0,0.0,0.0,0.0,0.0,0.0,0.0,0.0,0.0129,0.0,0.0,0.0,0.0,0.0,0.0,0.0,0.0,0.0,0.0,0.0,0.0,0.0,0.0,0.0,0.0,0.0,0.0,0.0,0.0,0.0,0.0,0.0,0.0,0.0,0.0,0.0,0.0,0.0,0.0,0.0,0.0,0.0,0.0,0.0,0.0,0.0,0.0,0.0,0.0,0.0,0.0,0.0,0.0,0.0,0.0,0.0,0.0,0.0,0.0,0.0,0.0,0.0,0.0228,0.0572,0.0923,0.1514,0.1612,0.145,0.1368,0.1183,0.1106,0.0,0.0,0.0,0.0,0.0183,0.0,0.0,0.0,0.0,0.0,0.0,0.0,0.0,0.0,0.0,0.0,0.0,0.0,0.0,0.0,0.0,0.0,0.0,0.0,0.0,0.0,0.0,0.0,0.0,0.0,0.0,0.0,0.0,0.0,0.0,0.0,0.0,0.0,0.0,0.0,0.0,0.0,0.0,0.0,0.0,0.0,0.0,0.0,0.0,0.0,0.0255,0.0,0.0,0.0,0.0,0.0,0.0,0.0,0.0,0.0,0.0,0.0,0.0,0.0,0.0,0.0,0.0,0.0,0.0,0.0,0.0,0.0,0.0,0.0,0.0,0.0,0.0,0.0,0.0,0.0,0.0,0.0,0.0,0.0,0.0,0.0,0.0,0.0,0.0,0.0,0.0,0.0,0.0,0.0,0.0,0.0,0.0,0.0,0.0,0.0,0.0,0.0,0.0,0.0,0.0233,0.0708,0.1193,0.156,0.1791,0.1337,0.1177,0.126,0.1526,0.1489,0.1374,0.0724,0.0315,0.0,0.0,0.0,0.0,0.0,0.0,0.0,0.0,0.0,0.0,0.0,0.0,0.0,0.0,0.0,0.0,0.0,0.0,0.0,0.0,0.0,0.0,0.0,0.0,0.0,0.0,0.0,0.0,0.0,0.0,0.0,0.0,0.0,0.0,0.0,0.0,0.0,0.0,0.0,0.0,0.0,0.0,0.0,0.0,0.0,0.0,0.0,0.0,0.0,0.0,0.0,0.0,0.0,0.0,0.0,0.0,0.0,0.0,0.0,0.0,0.0,0.0,0.0,0.0,0.0,0.0,0.0,0.0,0.0,0.0,0.0,0.0,0.0,0.0,0.0,0.0,0.0,0.0,0.0,0.0,0.0,0.0,0.0,0.0,0.0,0.0,0.0,0.0,0.0,0.0,0.0,0.0,0.0,0.0,0.0,0.0,0.0,0.0,0.0,0.0,0.0,0.0118,0.0826,0.2008,0.191,0.19,0.1986,0.1951,0.1806,0.1563,0.0924,0.0347,0.0,0.0,0.0,0.0,0.0,0.0,0.0,0.0,0.0,0.0,0.0,0.0,0.0,0.0,0.0,0.0,0.0,0.0,0.0,0.0,0.0,0.0,0.0,0.0,0.0,0.0,0.0,0.0,0.0,0.0,0.0,0.0,0.0,0.0,0.0,0.0,0.0,0.0,0.0,0.0,0.0,0.0,0.0,0.0,0.0,0.0,0.0,0.0,0.0,0.0,0.0,0.0,0.0,0.0,0.0,0.0,0.0,0.0,0.0,0.0,0.0,0.0,0.0,0.0,0.0,0.0,0.0,0.0,0.0,0.0,0.0,0.0,0.0,0.0,0.0,0.0,-0.0169,0.0,0.0,0.0,0.0,0.0,0.0,0.0,0.0,0.0,0.0,0.0,0.0,0.0,0.0,0.0,0.0,0.0,0.0,0.0,0.0,0.0,0.0,0.0,0.0,0.1006,0.1658,0.2189,0.22,0.2,0.1888,0.1917,0.1933,0.1826,0.1129,0.0509,0.0,0.0,0.0,0.0,0.0,0.0,0.0,0.0,0.0,0.0,0.0,0.0,0.0,0.0,0.0,0.0,0.0,0.0,0.0,0.0,0.0,0.0,0.0,0.0,0.0,0.0,0.0,0.0,0.0,0.0,0.0,0.0,0.0,0.0,0.0,0.0,0.0,0.0,0.0,0.0,0.0,0.0,0.0,0.0,0.0,0.0,0.0,0.0,0.0,0.0,0.0,0.0,0.0,0.0,0.0,0.0,0.0,0.0,0.0,0.0,0.0,0.0,0.0,0.0,0.0,0.0,0.0,0.0,0.0,0.0,0.0,0.0,0.0,0.0,-0.4205,-0.3718,-0.2366,-0.0916,0.0,0.0,0.0,0.0,0.0,0.0,0.0,0.0,0.0,0.0,0.0,0.0,0.0,0.0,0.0,0.0,0.0,0.0,0.0,0.0,0.0,0.0,0.0128,0.1577,0.227,0.229,0.229,0.2084,0.1981,0.2033,0.2071,0.1971,0.1338,0.054,0.0,0.0,0.0,0.0,0.0,0.0,0.0,0.0,0.0,0.0,0.0,0.0,0.0,0.0,0.0,0.0,0.0,0.0,0.0,0.0,0.0,0.0,0.0,0.0,0.0,0.0,0.0,0.0,0.0,0.0,0.0,0.0,0.0,0.0,0.0,0.0,0.0,0.0,0.0,0.0,0.0,0.0,0.0,0.0,0.0,0.0,0.0,0.0,0.0,0.0,0.0,0.0,0.0,0.0,0.0,0.0,0.0,0.0,0.0,0.0,0.0,0.0,0.0,0.0,0.0,0.0,0.0,0.0,0.0,0.0,0.0,0.0,0.0,-0.6015,-0.6251,-0.6424,-0.634,-0.2651,-0.0102,-0.0,0.0,0.0,0.0,0.0,0.0,0.0,0.0,0.0,0.0,0.0,0.0,0.0,0.0,0.0,0.0,0.0,0.0,0.0,0.0,0.0,0.0132,0.1607,0.2158,0.2159,0.2294,0.2159,0.2163,0.2189,0.2218,0.2105,0.1403,0.0696,0.0,0.0,0.0,0.0,0.0,0.0,0.0,0.0,0.0,0.0,0.0,0.0,0.0,0.0,0.0,0.0,0.0,0.0,0.0,0.0,0.0,0.0,0.0,0.0,0.0,0.0,0.0,0.0,0.0,0.0,0.0,0.0,0.0,0.0,0.0,0.0,0.0,0.0,0.0,0.0,0.0,0.0,0.0,0.0,0.0,0.0,0.0,0.0,0.0,0.0,0.0,0.0,0.0,0.0,0.0,0.0,0.0,0.0,0.0,0.0,0.0,0.0,0.0,0.0,0.0,0.0,0.0,0.0,0.0,0.0,0.0,-0.5437,-0.5829,-0.5941,-0.6179,-0.6,-0.5165,-0.3468,-0.1667,-0.0106,0.0,0.0,0.0,0.0,0.0,0.0,0.0,0.0,0.0,0.0,0.0,0.0,0.0,0.0,0.0,0.0,0.0,0.0,0.0,0.0,0.0,0.0414,0.1255,0.2253,0.169,0.1416,0.1567,0.2083,0.2218,0.2108,0.1986,0.1143,0.0,0.0,0.0,0.0,0.0,0.0,0.0,0.0,0.0,0.0,0.0,0.0,0.0,0.0,0.0,0.0,0.0,0.0,0.0,0.0,0.0,0.0,0.0,0.0,0.0,0.0,0.0,0.0,0.0,0.0,0.0,0.0,0.0,0.0,0.0,0.0,0.0,0.0,0.0,0.0,0.0,0.0,0.0,0.0,0.0,0.0,0.0,0.0,0.0,0.0,0.0,0.0,0.0,0.0,0.0,0.0,0.0,0.0,0.0,0.0,0.0,0.0,0.0,0.0,0.0,0.0,0.0,0.0,0.0,0.0,0.0,-0.6109,-0.6384,-0.6384,-0.6382,-0.6183,-0.5525,-0.5063,-0.3953,-0.1741,-0.1539,-0.1557,-0.1583,-0.0566,0.0,0.0,0.0,0.0,0.0,0.0,0.0,0.0,0.0,0.0,0.0,0.0,0.0,0.0,0.0,0.0,0.0,0.0,0.086,0.2309,0.1732,0.1449,0.1311,0.0,0.0,0.0,0.0,0.0728,0.0,0.0,0.0,0.0,0.0,0.0,0.0,0.0,0.0,0.0,0.0,0.0,0.0,0.0,0.0,0.0,0.0,0.0,0.0,0.0,0.0,0.0,0.0,0.0,0.0,0.0,0.0,0.0,0.0,0.0,0.0,0.0,0.0,0.0,0.0,0.0,0.0,0.0,0.0,0.0,0.0,0.0,0.0,0.0,0.0,0.0,0.0,0.0,0.0,0.0,0.0,0.0,0.0,0.8048,0.7932,0.0,0.0,0.0,0.0,0.0,0.0,0.0,0.0,0.0,0.0,0.0,0.0,0.0,0.0,0.0,0.0,-0.6834,-0.705,-0.7079,-0.6878,-0.6714,-0.6717,-0.6942,-0.6349,-0.4157,-0.4,-0.4067,-0.4243,-0.2187,-0.0812,-0.0471,-0.012,0.0,0.0,0.0,0.0,0.0,0.0,0.0,0.0,0.0,0.0,0.0,0.0,0.0,0.0,0.0,0.073,0.2048,0.2048,0.161,0.1026,0.1024,0.1464,0.1905,0.044,0.0,0.0,0.0,0.0,0.0,0.0,0.0,0.0,0.0,0.0,0.0,0.0,0.0,0.0,0.0,0.0,0.0,0.0,0.0,0.0,0.0,0.0,0.0,0.0,0.0,0.0,0.0,0.0,0.0,0.0,0.0,0.0,0.0,0.0,0.0,0.0,0.0,0.0,0.0,0.0,0.0,0.0,0.0,0.0,0.0,0.0,0.0,0.0,0.0,0.0,0.0,0.0,0.3095,0.895,0.9652,1.0082,0.0,0.0,0.0,0.0,0.0,0.0,0.0,0.0,0.0,0.0,0.0,0.0,0.0,0.0,0.0,-0.6814,-0.6952,-0.7108,-0.731,-0.713,-0.6926,-0.6948,-0.698,-0.6816,-0.6574,-0.6694,-0.6774,-0.6794,-0.672,-0.5618,-0.3231,-0.1107,0.0,0.0,0.0,0.0,0.0,0.0,0.0,0.0,0.0,0.0,0.0,0.0,0.0,0.0,0.0,0.0147,0.0445,0.0445,0.0298,0.0301,0.0298,0.0298,0.0451,0.0151,0.0,0.0,0.0,0.0,0.0,0.0,0.0,0.0,0.0,0.0,0.0,0.0,0.0,0.0,0.0,0.0,0.0,0.0,0.0,0.0,0.0,0.0,0.0,0.0,0.0,0.0,0.0,0.0,0.0,0.0,0.0,0.0,0.0,0.0,0.0,0.0,0.0,0.0,0.0,0.0,0.0,0.0,0.0,0.0,0.0,0.0,0.0,0.0,0.0,0.0,0.0,0.0,0.0657,0.211,0.7553,1.0121,0.0,0.0,0.0,0.0,0.0,0.0,0.0,0.0,0.0,0.0,0.0,-0.6478,-0.6773,0.0,-0.7295,-0.7589,-0.7635,-0.7587,-0.7606,-0.7471,-0.7292,-0.7073,-0.7073,-0.7122,-0.7247,-0.7317,-0.7432,-0.7729,-0.7806,-0.7311,-0.6106,-0.4771,-0.2802,-0.013,0.0,0.0,0.0,0.0,0.0,0.0,0.0,0.0,0.0,0.0,0.0,0.0,0.0,0.0,0.0,0.0,0.0,0.0,0.0,0.0,0.0,0.0,0.0,0.0,0.0,0.0,0.0,0.0,0.0,0.0,0.0,0.0,0.0,0.0,0.0,0.0,0.0,0.0,0.0,0.0,0.0,0.0,0.0,0.0,0.0,0.0,0.0,0.0,0.0,0.0,0.0,0.0,0.0,0.0,0.0,0.0,0.0,0.0,0.0,0.0,0.0,0.0,0.0,0.0,0.0,0.0,0.0,0.0,0.0,0.0,0.0,0.0,0.0,0.0,0.0,0.0,0.3461,0.6356,0.0,0.0,0.0,0.0,0.0,0.0,0.0,-0.5779,-0.6017,-0.6614,-0.6831,-0.7048,-0.7468,-0.774,-0.7997,-0.8303,-0.8242,-0.8075,-0.7877,-0.7645,-0.7499,-0.7299,-0.7187,-0.723,-0.7328,-0.7399,-0.7562,-0.785,-0.7856,-0.7851,-0.8124,-0.7601,-0.5476,-0.1614,-0.0543,0.0,0.0,0.0,0.0,0.0,0.0,0.0,0.0,0.0,0.0,0.0,0.0,0.0,0.0,0.0,0.0,0.0,0.0,0.0,0.0,0.0,0.0,0.0,0.0,0.0,0.0,0.0,0.0,0.0,0.0,0.0,0.0,0.0,0.0,0.0,0.0,0.0,0.0,0.0,0.0,0.0,0.0,0.0,0.0,0.0,0.0,0.0,0.0,0.0,0.0,0.0,0.0,0.0,0.0,0.0,0.0,0.0,0.0,0.0,0.0,0.0,0.0,0.0,0.0,0.0,0.0,0.0,0.0,0.0,0.0,0.0,0.0,0.0,0.0,0.0,0.0,0.2507,-0.5006,-0.4972,-0.5135,-0.5257,-0.561,-0.6105,0.0,-0.6858,-0.6946,-0.7536,-0.7678,-0.7787,-0.8113,-0.8194,-0.8316,-0.8615,-0.8252,-0.7883,-0.8005,-0.7593,-0.731,-0.7301,-0.7312,-0.7323,-0.7334,-0.7622,-0.7828,-0.7867,-0.816,-0.8312,-0.8124,-0.5996,-0.5423,-0.7022,-0.2512,0.0,0.0,0.0,0.0,0.0,0.0,0.0,0.0,0.0,0.0,0.0,0.0,0.0,0.0,0.0,0.0,0.0,0.0,0.0,0.0,0.0,0.0,0.0,0.0,0.0,0.0,0.0,0.0,0.0,0.0,0.0,0.0,0.0,0.0,0.0,0.0,0.0,0.0,0.0,0.0,0.0,0.0,0.0,0.0,0.0,0.0,0.0,0.0,0.0,0.0,0.0,0.0,0.0,0.0,0.0,0.0,0.0,0.0,0.0,0.0,0.0,0.0,0.0,0.0,0.0,0.0,0.0,0.0,0.0,0.0,0.0,0.0,0.0,0.0,0.0,0.0,0.2199,-0.5698,-0.5745,-0.5847,-0.6084,-0.641,-0.6783,-0.7183,-0.7231,-0.7333,-0.7841,-0.8018,-0.8119,-0.8248,-0.8411,-0.8567,-0.8481,-0.8343,-0.809,-0.782,-0.7668,-0.7505,-0.7328,-0.7519,-0.7649,-0.7649,-0.778,-0.7959,-0.8176,-0.8263,-0.8388,-0.8557,-0.6333,-0.5464,-0.5994,-0.3824,-0.1863,-0.0,0.0,0.0,0.0,0.0,0.0,0.0,0.0,0.0,0.0,0.0,0.0,0.0,0.0,0.0,0.0,0.0,0.0,0.0,0.0,0.0,0.0,0.0,0.0,0.0,0.0,0.0,0.0,0.0,0.0,0.0,0.0,0.0,0.0,0.0,0.0,0.0,0.0,0.0,0.0,0.0,0.0,0.0,0.0,0.0,0.0,0.0,0.0,0.0,0.0,0.0,0.0,0.0,0.0,0.0,0.0,0.0,0.0,0.0,0.0,0.0,0.0,0.0,0.0,0.0,0.0,0.0,0.0,0.0,0.0,0.0,0.0,0.0,0.0,0.0,0.2048,-0.5989,-0.6193,-0.639,-0.6688,-0.7048,-0.7353,-0.7468,-0.7529,-0.7645,-0.797,-0.816,-0.8282,-0.8323,-0.8434,-0.8507,-0.8336,-0.831,-0.806,-0.7762,-0.7618,-0.7601,-0.747,-0.7714,-0.791,-0.8013,-0.8024,-0.8133,-0.8399,-0.8394,-0.8503,-0.878,-0.7392,-0.6371,-0.5994,-0.6023,-0.4904,-0.2619,-0.1745,-0.1312,-0.1319,-0.0444,0.0,-0.0,-0.1978,-0.1692,0.0,0.0,0.0,0.0,0.0,0.0,0.0,0.0,0.0,0.0,0.0,0.0,0.0,0.0,0.0,0.0,0.0,0.0,0.0,0.0,0.0,0.0,0.0,0.0,0.0,0.0,0.0,0.0,0.0,0.0,0.0,0.0,0.0,0.0,0.0,0.0,0.0,0.0,0.0,0.0,0.0,0.0,0.0,0.0,0.0,0.0,0.0,0.0,0.0,0.0,0.0,0.0,0.0,0.0,0.0,0.0,0.0,0.0,0.0,0.0,0.0,0.0,0.0,0.0,0.0,0.0,0.2074,-0.5603,-0.603,-0.6539,-0.6844,-0.736,-0.7794,-0.7794,-0.7916,-0.8024,-0.8038,-0.816,-0.8316,-0.8452,-0.8395,-0.8323,-0.8459,-0.8042,-0.765,-0.7766,-0.7561,-0.7464,-0.7812,-0.7867,-0.8013,-0.8367,-0.8399,-0.8405,-0.8416,-0.8628,-0.8769,-0.8796,-0.8868,-0.9002,-0.9177,-0.9147,-0.906,-0.9066,-0.6119,-0.4684,-0.4739,-0.1482,0.0,-0.0154,-0.6715,-0.6125,0.0,0.0,0.0,0.0,0.0,0.0,0.0,0.0,0.0,0.0,0.0,0.0,0.0,0.0,0.0,0.0,0.0,0.0,0.0,0.0,0.0,0.0,0.0,0.0,0.0,0.0,0.0,0.0,0.0,0.0,0.0,0.0,0.0,0.0,0.0,0.0,0.0,0.0,0.0,0.0,0.0,0.0,0.0,0.0,0.0,0.0,0.0,0.0,0.0,0.0,0.0,0.0,0.0,0.0,0.0,0.0,0.0,0.0,0.0,0.0,0.0,0.0,0.0,0.0,0.0,0.0,0.2097,-0.695,-0.7015,-0.7014,-0.7414,-0.774,-0.7963,-0.7963,-0.8004,-0.8065,-0.8174,-0.8153,-0.8194,-0.8438,-0.8315,-0.8075,-0.7998,-0.7767,-0.7539,-0.7431,-0.7475,-0.7649,-0.7845,-0.8084,-0.828,-0.8405,-0.8416,-0.8481,-0.8638,-0.8725,-0.8845,-0.9014,-0.9095,-0.9177,-0.9258,-0.9302,-0.9367,-0.9459,-0.8416,-0.8021,-0.8127,-0.4845,-0.3372,-0.327,-0.3285,-0.4549,-0.6448,-0.1899,0.0,0.0,0.0,0.0,0.0,0.0,0.0,0.0,0.0,0.0,0.0,0.0,0.0,0.0,0.0,0.0,0.0,0.0,0.0,0.0,0.0,0.0,0.0,0.0,0.0,0.0,0.0,0.0,0.0,0.0,0.0,0.0,0.0,0.0,0.0,0.0,0.0,0.0,0.0,0.0,0.0,0.0,0.0,0.0,0.0,0.0,0.0,0.0,0.0,0.0,0.0,0.0,0.0,0.0,0.0,0.0,0.0,0.0,0.0,0.0,0.0,0.0,0.0,0.0,0.0755,-0.7951,-0.7982,-0.7952,-0.8821,-0.9037,-0.9114,-0.9114,-0.8825,-0.8578,-0.8845,-0.8348,-0.8113,-0.8364,-0.8138,-0.7781,-0.7754,-0.7639,-0.7489,-0.7383,-0.7573,-0.7774,-0.7975,-0.8209,-0.8405,-0.853,-0.8546,-0.8606,-0.8758,-0.8851,-0.897,-0.9128,-0.9171,-0.9231,-0.9302,-0.9345,-0.941,-0.9503,-0.9546,-0.9633,-0.9764,-0.771,-0.6848,-0.6751,-0.4547,-0.4559,-0.6332,-0.4462,-0.2244,-0.0161,-0.2769,-0.3766,-0.377,-0.2485,-0.1164,-0.0167,-0.1509,-0.1178,0.0,0.0,0.0,0.0,0.0,0.0,0.0,0.0,0.0,0.0,0.0,0.0,0.0,0.0,0.0,0.0,0.0,0.0,0.0,0.0,0.0,0.0,0.0,0.0,0.0,0.0,0.0,0.0,0.0,0.0,0.0,0.0,0.0,0.0,0.0,0.0,0.0,0.0,0.0,0.0,0.0,0.0,0.0,0.0,0.0,0.0,0.0,0.0,0.0,0.0,0.0,0.0,0.0,0.0,0.0,-0.8495,-0.8877,-0.9334,-1.0826,-1.117,-1.117,-1.117,-1.0386,-0.9756,-0.9819,-0.8914,-0.8158,-0.8295,-0.7943,-0.7626,-0.7626,-0.7419,-0.7372,-0.7508,-0.7633,-0.7845,-0.8204,-0.8253,-0.8394,-0.8736,-0.878,-0.8791,-0.8791,-0.9003,-0.9139,-0.9144,-0.9247,-0.9307,-0.9313,-0.9427,-0.9492,-0.9503,-0.9628,-0.9748,-0.9873,-0.9992,-1.0057,-0.9928,-0.9766,-0.6326,-0.0639,-0.7213,-0.6291,-0.0815,-0.7596,-1.0479,-1.0319,-0.7031,-0.3524,-0.1008,-0.4195,-0.3362,-0.0506,-0.0341,-0.017,0.0,0.0,0.0,0.0,0.0,0.0,0.0,0.0,0.0,0.0,0.0,0.0,0.0,0.0,0.0,0.0,0.0,0.0,0.0,0.0,0.0,0.0,0.0,0.0,0.0,0.0,0.0,0.0,0.0,0.0,0.0,0.0,0.0,0.0,0.0,0.0,0.0,0.0,0.0,0.0,0.0,0.0,0.0,0.0,0.0,0.0,0.0,0.0,0.0,0.0,0.0,0.0,-0.9929,-1.0286,-1.0683,-1.1132,-1.117,-1.117,-1.117,-1.0974,-1.0751,-1.0457,-1.0183,-0.9836,-0.9469,-0.8766,-0.824,-0.824,-0.7654,-0.7307,-0.7611,-0.7758,-0.7964,-0.8329,-0.8524,-0.8671,-0.8764,-0.8932,-0.9041,-0.9041,-0.9101,-0.9171,-0.9258,-0.9291,-0.9345,-0.9438,-0.947,-0.9568,-0.9748,-0.9873,-0.9949,-0.9981,-1.0014,-1.003,-0.9885,-0.7437,-0.5887,-0.5266,-0.8973,-0.8061,-0.4114,-0.5995,-0.8378,-1.0586,-0.9761,-0.8751,-0.7737,-0.6044,-0.6589,-0.7855,-0.5168,-0.2405,0.0,0.0,0.0,0.0,0.0,0.0,0.0,0.0,0.0,0.0,0.0,0.0,0.0,0.0,0.0,0.0,0.0,0.0,0.0,0.0,0.0,0.0,0.0,0.0,0.0,0.0,0.0,0.0,0.0,0.0,0.0,0.0,0.0,0.0,0.0,0.0,0.0,0.0,0.0,0.0,0.0,0.0,0.0,0.0,0.0,0.0,0.0,0.0,0.0,0.0,0.0,0.0,-1.1281,-1.1672,-1.195,-1.2436,-1.2533,-1.248,-1.2278,-1.1857,-1.1387,-1.0886,-1.0305,-0.9823,-0.9542,-0.9099,-0.8624,-0.83,-0.8062,-0.7858,-0.7665,-0.7845,-0.8068,-0.8378,-0.8579,-0.8731,-0.884,-0.9024,-0.9155,-0.9204,-0.9209,-0.9237,-0.9302,-0.9356,-0.9416,-0.9487,-0.9584,-0.9731,-0.9916,-0.9987,-1.0019,-1.0019,-1.0019,-1.0052,-1.0117,-0.8115,-0.6897,-0.6479,-0.9395,-0.9642,-0.7663,-0.7706,-0.891,-1.078,-1.077,-1.0808,-1.0519,-0.8627,-0.921,-1.0891,-0.8887,-0.6795,-0.4518,-0.1048,0.0,0.0,0.0,0.0,0.0,0.0,0.0,0.0,0.0,0.0,0.0,0.0,0.0,0.0,0.0,0.0,0.0,0.0,0.0,0.0,0.0,0.0,0.0,0.0,0.0,0.0,0.0,0.0,0.0,0.0,0.0,0.0,0.0,0.0,0.0,0.0,0.0,0.0,0.0,0.0,0.0,0.0,0.0,0.0,0.0,0.0,0.0,0.0,0.0,0.0,-1.249,-1.2823,-1.3125,-1.41,-1.4292,-1.4159,-1.364,-1.2746,-1.1833,-1.1209,-1.0211,-0.9418,-0.9441,-0.9332,-0.9003,-0.8321,-0.8508,-0.8433,-0.7817,-0.7915,-0.8155,-0.8432,-0.8568,-0.8725,-0.8954,-0.9084,-0.9198,-0.9296,-0.9302,-0.9302,-0.9302,-0.9421,-0.9503,-0.953,-0.9748,-0.9911,-1.0019,-1.0019,-1.0019,-1.0019,-1.0019,-1.0095,-1.0231,-1.0248,-0.8746,-0.6269,-0.9283,-1.0688,-1.0786,-1.077,-1.0759,-1.0759,-1.0759,-1.0835,-1.0944,-1.0944,-1.1036,-1.1172,-1.1264,-1.133,-1.0298,-0.2474,0.0,0.0,0.0,0.0,0.0,0.0,0.0,0.0,0.0,0.0,0.0,0.0,0.0,0.0,0.0,0.0,0.0,0.0,0.0,0.0,0.0,0.0,0.0,0.0,0.0,0.0,0.0,0.0,0.0,0.0,0.0,0.0,0.0,0.0,0.0,0.0,0.0,0.0,0.0,0.0,0.0,0.0,0.0,0.0,0.0,0.0,0.0,0.0,0.0,0.0,-1.2767,-1.3318,-1.41,-1.4292,-1.4292,-1.4159,-1.364,-1.3159,-1.2655,-1.1617,-1.1432,-1.1169,-1.0582,-1.0191,-0.9731,-0.908,-0.8494,-0.8033,-0.7889,-0.7964,-0.8214,-0.8655,-0.8818,-0.8943,-0.909,-0.9204,-0.928,-0.9302,-0.9302,-0.9302,-0.9302,-0.9421,-0.9574,-0.9769,-0.9916,-0.9998,-1.0019,-1.0019,-1.0019,-1.0019,-1.0019,-1.0085,-1.021,-1.0329,-1.0119,-0.9738,-1.0351,-1.0742,-1.0748,-1.0742,-1.0742,-1.0748,-1.0851,-1.0905,-1.0938,-1.1036,-1.1145,-1.1253,-1.127,-1.1368,-1.0218,-0.25,0.0,0.0,0.0,0.0,0.0,0.0,0.0,0.0,0.0,0.0,0.0,0.0,0.0,0.0,0.0,0.0,0.0,0.0,0.0,0.0,0.0,0.0,0.0,0.0,0.0,0.0,0.0,0.0,0.0,0.0,0.0,0.0,0.0,0.0,0.0,0.0,0.0,0.0,0.0,0.0,0.0,0.0,0.0,0.0,0.0,0.0,0.0,0.0,0.0,0.0,-1.3576,-1.3908,-1.4292,-1.4292,-1.4292,-1.4087,-1.3278,-1.2783,-1.2192,-1.1129,-1.0791,-1.0647,-1.0538,-1.0415,-1.0154,-0.9777,-0.9135,-0.8693,-0.8426,-0.824,-0.8301,-0.872,-0.8878,-0.8997,-0.9122,-0.9237,-0.9302,-0.9302,-0.9362,-0.94,-0.94,-0.9568,-0.9753,-0.9927,-0.9987,-1.0019,-1.0019,-1.0019,-1.0019,-1.0019,-1.0085,-1.0177,-1.0302,-1.0433,-1.0547,-1.0655,-1.0721,-1.0742,-1.0737,-1.0737,-1.0737,-1.0748,-1.0873,-1.096,-1.1031,-1.115,-1.1264,-1.1368,-1.1368,-1.1433,-1.06,-0.4834,-0.1613,0.0,0.0,0.0,0.0,0.0,0.0,0.0,0.0,0.0,0.0,0.0,0.0,0.0,0.0,0.0,0.0,0.0,0.0,0.0,0.0,0.0,0.0,0.0,0.0,0.0,0.0,0.0,0.0,0.0,0.0,0.0,0.0,0.0,0.0,0.0,0.0,0.0,0.0,0.0,0.0,0.0,0.0,0.0,0.0,0.0,0.0,0.0,0.0,0.0,-1.4075,-1.4256,-1.4292,-1.4292,-1.4292,-1.4002,-1.288,-1.2216,-1.154,-1.0466,-0.9808,-0.964,-1.0236,-1.0315,-1.0305,-1.0229,-0.973,-0.9251,-0.8883,-0.8412,-0.828,-0.872,-0.8856,-0.8981,-0.9155,-0.9253,-0.9313,-0.934,-0.9481,-0.9563,-0.9563,-0.9737,-0.9894,-1.0014,-1.0019,-1.0019,-1.0019,-1.0019,-1.0019,-1.0019,-1.0144,-1.0269,-1.0389,-1.0503,-1.0623,-1.0737,-1.0737,-1.0737,-1.0737,-1.0737,-1.0737,-1.0753,-1.09,-1.102,-1.1118,-1.1259,-1.1373,-1.1455,-1.1455,-1.1476,-1.0784,-0.7004,-0.3056,0.0,0.0,0.0,0.0,0.0,0.0,0.0,0.0,0.0,0.0,0.0,0.0,0.0,0.0,0.0,0.0,0.0,0.0,0.0,0.0,0.0,0.0,0.0,0.0,0.0,0.0,0.0,0.0,0.0,0.0,0.0,0.0,0.0,0.0,0.0,0.0,0.0,0.0,0.0,0.0,0.0,0.0,0.0,0.0,0.0,0.0,0.0,0.0,0.0,-1.3797,-1.4111,-1.4292,-1.4292,-1.4292,-1.3954,-1.265,-1.195,-1.1262,-1.0131,-0.9676,-0.964,-1.0236,-1.0181,-1.0121,-1.02,-0.9307,-0.8716,-0.8698,-0.8129,-0.8002,-0.8687,-0.878,-0.8921,-0.9258,-0.9296,-0.9351,-0.9459,-0.9677,-0.9807,-0.9807,-0.9824,-0.9894,-1.0014,-1.0019,-1.0019,-1.0019,-1.0019,-1.0019,-1.0019,-1.0144,-1.0269,-1.0389,-1.0503,-1.0623,-1.0737,-1.0737,-1.0737,-1.0737,-1.0737,-1.0737,-1.0759,-1.0992,-1.109,-1.1128,-1.1357,-1.1444,-1.1455,-1.1455,-1.1471,-1.0779,-0.688,-0.3089,0.0,0.0,0.0,0.0,0.0,0.0,0.0,0.0,0.0,0.0,0.0,0.0,0.0,0.0,0.0,0.0,0.0,0.0,0.0,0.0,0.0,0.0,0.0,0.0,0.0,0.0,0.0,0.0,0.0,0.0,0.0,0.0,0.0,0.0,0.0,0.0,0.0,0.0,0.0,0.0,0.0,0.0,0.0,0.0,0.0,0.0,0.0,0.0,0.0,-1.3713,-1.4099,-1.4292,-1.4292,-1.4063,-1.3556,-1.2542,-1.1648,-1.0828,-1.0024,-0.9532,-0.9448,-1.02,-0.9997,-0.9896,-1.0692,-0.9469,-0.8549,-0.9085,-0.8292,-0.7915,-0.8492,-0.8682,-0.891,-0.9269,-0.9302,-0.9383,-0.9584,-0.9748,-0.9867,-0.9943,-0.9949,-0.997,-1.0019,-1.0019,-1.0019,-1.0019,-1.0019,-1.0057,-1.0134,-1.0253,-1.0373,-1.0492,-1.0612,-1.0688,-1.0737,-1.0737,-1.0737,-1.0737,-1.0737,-1.078,-1.0862,-1.1036,-1.1145,-1.1226,-1.1395,-1.1455,-1.1455,-1.1455,-1.1476,-1.1157,-0.9631,-0.494,0.0,0.0,0.0,0.0,0.0,0.0,0.0,0.0,0.0,0.0,0.0,0.0,0.0,0.0,0.0,0.0,0.0,0.0,0.0,0.0,0.0,0.0,0.0,0.0,0.0,0.0,0.0,0.0,0.0,0.0,0.0,0.0,0.0,0.0,0.0,0.0,0.0,0.0,0.0,0.0,0.0,0.0,0.0,0.0,0.0,0.0,0.0,0.0,0.0,-1.3375,-1.3918,-1.4292,-1.4292,-1.3906,-1.329,-1.2397,-1.1431,-1.055,-0.988,-0.9388,-0.9379,-1.0176,-0.9899,-0.9852,-1.0626,-0.9362,-0.8415,-0.8898,-0.8084,-0.7638,-0.8193,-0.8437,-0.8725,-0.9155,-0.9329,-0.9487,-0.9655,-0.9807,-0.9927,-1.0014,-1.0019,-1.0019,-1.0019,-1.0019,-1.0019,-1.0019,-1.0019,-1.0085,-1.0204,-1.0329,-1.0443,-1.0558,-1.0683,-1.0737,-1.0737,-1.0737,-1.0737,-1.0737,-1.0775,-1.084,-1.0933,-1.109,-1.1199,-1.1281,-1.1368,-1.1422,-1.1449,-1.1417,-1.1449,-1.1531,-1.1512,-0.7738,-0.2966,-0.0746,0.0,0.0,0.0,0.0,0.0,0.0,0.0,0.0,0.0,0.0,0.0,0.0,0.0,0.0,0.0,0.0,0.0,0.0,0.0,0.0,0.0,0.0,0.0,0.0,0.0,0.0,0.0,0.0,0.0,0.0,0.0,0.0,0.0,0.0,0.0,0.0,0.0,0.0,0.0,0.0,0.0,0.0,0.0,0.0,0.0,0.0,0.0,-1.265,-1.3495,-1.4292,-1.4292,-1.3906,-1.323,-1.2168,-1.1298,-1.0502,-0.9652,-0.9256,-0.9379,-1.0176,-1.0113,-0.9938,-0.981,-0.8931,-0.8223,-0.785,-0.7252,-0.7078,-0.779,-0.7986,-0.8296,-0.8899,-0.9389,-0.9666,-0.9671,-0.9883,-1.0019,-1.0019,-1.0019,-1.0019,-1.0019,-1.0019,-1.0019,-1.0019,-1.0019,-1.0085,-1.0204,-1.0329,-1.0443,-1.0558,-1.0683,-1.0737,-1.0737,-1.0737,-1.0737,-1.0748,-1.0867,-1.0916,-1.0944,-1.1177,-1.127,-1.127,-1.1275,-1.1351,-1.1438,-1.1335,-1.1378,-1.1531,-1.1436,-1.1526,-0.9879,-0.2276,0.0,0.0,0.0,0.0,0.0,0.0,0.0,0.0,0.0,0.0,0.0,0.0,0.0,0.0,0.0,0.0,0.0,0.0,0.0,0.0,0.0,0.0,0.0,0.0,0.0,0.0,0.0,0.0,0.0,0.0,0.0,0.0,0.0,0.0,0.0,0.0,0.0,0.0,0.0,0.0,0.0,0.0,0.0,0.0,0.0,0.0,0.0,-1.1733,-1.2276,-1.2674,-1.2674,-1.2276,-1.1733,-1.1214,-1.0622,-1.0,-0.9568,-0.9412,-0.9532,-1.0212,-0.9833,-0.9501,-0.9902,-0.8865,-0.7852,-0.7726,-0.7492,-0.7437,-0.7823,-0.8486,-0.9014,-0.9291,-0.953,-0.9704,-0.978,-0.9932,-1.0019,-1.0019,-1.0019,-1.0019,-1.0019,-1.0019,-1.0019,-1.0019,-1.0101,-1.021,-1.0329,-1.0449,-1.0563,-1.0683,-1.0721,-1.0737,-1.0737,-1.0737,-1.0737,-1.0748,-1.0867,-1.0971,-1.1058,-1.1215,-1.1324,-1.1389,-1.1302,-1.1357,-1.1455,-1.134,-1.1271,-1.1491,-1.1473,-0.8013,-0.3189,-0.0761,0.0,0.0,0.0,0.0,0.0,0.0,0.0,0.0,0.0,0.0,0.0,0.0,0.0,0.0,0.0,0.0,0.0,0.0,0.0,0.0,0.0,0.0,0.0,0.0,0.0,0.0,0.0,0.0,0.0,0.0,0.0,0.0,0.0,0.0,0.0,0.0,0.0,0.0,0.0,0.0,0.0,0.0,0.0,0.0,0.0,0.0,0.0,-1.0803,-1.1492,-1.1926,-1.1926,-1.1516,-1.1045,-1.0779,-1.0321,-0.9796,-0.9544,-0.9484,-0.964,-1.0236,-0.9845,-0.9406,-0.9442,-0.8632,-0.7823,-0.7267,-0.7265,-0.7491,-0.7954,-0.8698,-0.922,-0.934,-0.9546,-0.9715,-0.9829,-0.9949,-1.0019,-1.0019,-1.0019,-1.0019,-1.0019,-1.0019,-1.0019,-1.0019,-1.0139,-1.0242,-1.0318,-1.0481,-1.0596,-1.0672,-1.0715,-1.0737,-1.0737,-1.0737,-1.0764,0.0,-1.0938,-1.1058,-1.1177,-1.1297,-1.1357,-1.1378,-1.1302,-1.133,-1.1223,-0.9545,-1.004,-1.0998,-0.8136,-0.3927,0.0,0.0,0.0,0.0,0.0,0.0,0.0,0.0,0.0,0.0,0.0,0.0,0.0,0.0,0.0,0.0,0.0,0.0,0.0,0.0,0.0,0.0,0.0,0.0,0.0,0.0,0.0,0.0,0.0,0.0,0.0,0.0,0.0,0.0,0.0,0.0,0.0,0.0,0.0,0.0,0.0,0.0,0.0,0.0,0.0,0.0,0.0,0.0,0.0,0.0,-1.0924,-1.1697,-1.1697,-1.1335,-1.09,-1.0659,-1.0248,0.0,-0.9532,-0.9484,-0.9652,-1.0284,-1.0136,-0.9649,-0.8603,-0.8426,-0.7913,-0.6592,-0.6823,-0.7388,-0.8193,-0.8693,-0.9024,-0.915,-0.947,-0.972,-0.984,-0.9954,-1.0019,-1.0019,-1.0019,-1.0019,-1.0019,-1.0019,-1.0019,-1.0019,-1.0139,-1.021,-1.0221,-1.0449,-1.0558,-1.0574,-1.0683,-1.0737,-1.0737,-1.0737,-1.0808,-1.0927,-1.1052,-1.1166,-1.1286,-1.1406,-1.1378,-1.127,-1.127,-1.1286,-1.059,-0.6696,-0.7702,-0.9534,-0.2404,0.0,0.0,0.0,0.0,0.0,0.0,0.0,0.0,0.0,0.0,0.0,0.0,0.0,0.0,0.0,0.0,0.0,0.0,0.0,0.0,0.0,0.0,0.0,0.0,0.0,0.0,0.0,0.0,0.0,0.0,0.0,0.0,0.0,0.0,0.0,0.0,0.0,0.0,0.0,0.0,0.0,0.0,0.0,0.0,0.0,0.0,0.0,0.0,0.0,0.0,-0.8551,0.0,-0.9424,-0.9424,-0.9536,-0.9572,0.0,-0.9508,-0.9556,-0.9496,-0.9484,-0.976,-1.0755,-1.016,-0.9428,-0.9225,-0.9066,-0.854,-0.6958,-0.7502,-0.8258,-0.8725,-0.9041,-0.9269,-0.9394,-0.9568,-0.9753,-0.996,-1.0003,-1.0019,-1.0019,-1.0019,-1.0019,-1.0019,-1.0019,-1.0019,-1.0019,-1.0139,-1.0248,-1.0346,-1.0487,-1.0606,-1.0693,-1.0726,-1.0737,-1.0737,-1.0737,-1.0808,-1.0927,-1.1052,-1.1166,-1.1286,-1.1406,-1.1378,-1.127,-1.127,-1.1291,-1.0786,-0.6872,-0.4134,-0.2406,-0.0565,0.0,0.0,0.0,0.0,0.0,0.0,0.0,0.0,0.0,0.0,0.0,0.0,0.0,0.0,0.0,0.0,0.0,0.0,0.0,0.0,0.0,0.0,0.0,0.0,0.0,0.0,0.0,0.0,0.0,0.0,0.0,0.0,0.0,0.0,0.0,0.0,0.0,0.0,0.0,0.0,0.0,0.0,0.0,0.0,0.0,0.0,0.0,0.0,0.0,0.0,-0.7665,-0.8481,-0.9232,-0.9232,-0.9424,-0.9681,-0.9681,-0.9544,-0.9484,-0.9484,-0.9676,-1.0048,-1.0803,-1.0319,-0.9644,-0.9279,-0.8989,-0.8431,-0.736,-0.7954,-0.859,-0.884,-0.9128,-0.9372,-0.9552,-0.9677,-0.9802,-0.9927,-0.9987,-0.9998,-0.9938,-0.9987,-1.0019,-1.0019,-1.0019,-1.0019,-1.0019,-1.0139,-1.0237,-1.0302,-1.0476,-1.059,-1.0655,-1.071,-1.0737,-1.0737,-1.0737,-1.084,-1.1009,-1.1074,-1.1204,-1.1357,-1.1368,-1.133,-1.127,-1.127,-1.1297,-1.0796,-0.6915,-0.3074,0.0,0.0,0.0,0.0,0.0,0.0,0.0,0.0,0.0,0.0,0.0,0.0,0.0,0.0,0.0,0.0,0.0,0.0,0.0,0.0,0.0,0.0,0.0,0.0,0.0,0.0,0.0,0.0,0.0,0.0,0.0,0.0,0.0,0.0,0.0,0.0,0.0,0.0,0.0,0.0,0.0,0.0,0.0,0.0,0.0,0.0,0.0,0.0,0.0,0.0,0.0,0.0,-0.7007,-0.8299,-0.9659,-0.9557,-0.9781,-1.0042,-1.0006,-0.9789,-0.9616,-0.9652,-1.0115,-1.0503,-1.0775,-1.0486,-0.9951,-0.9153,-0.8549,-0.8115,-0.7914,-0.8397,-0.8687,-0.8812,-0.9106,-0.94,-0.9644,-0.9758,-0.9824,-0.9862,-0.9943,-0.9954,-0.9867,-0.9965,-1.0019,-1.0019,-1.0019,-1.003,-1.0047,-1.015,-1.0215,-1.0231,-1.0449,-1.0563,-1.0585,-1.0688,-1.0737,-1.0737,-1.0737,-1.0878,-1.1101,-1.1101,-1.1243,-1.1444,-1.134,-1.1291,-1.1275,-1.1297,-1.1313,-1.0455,-0.627,-0.2733,0.0,0.0,0.0,0.0,0.0,0.0,0.0,0.0,0.0,0.0,0.0,0.0,0.0,0.0,0.0,0.0,0.0,0.0,0.0,0.0,0.0,0.0,0.0,0.0,0.0,0.0,0.0,0.0,0.0,0.0,0.0,0.0,0.0,0.0,0.0,0.0,0.0,0.0,0.0,0.0,0.0,0.0,0.0,0.0,0.0,0.0,0.0,0.0,0.0,0.0,0.0,0.0,-0.6518,-0.7615,-0.8374,-0.7814,-0.8269,-0.8772,-0.8777,-0.9533,-1.0272,-1.049,-1.0779,-1.1042,-1.124,-1.0665,-0.9842,-0.912,-0.8285,-0.8022,-0.8817,-0.891,-0.8943,-0.9063,-0.9215,-0.94,-0.9644,-0.9688,-0.978,-0.9976,-0.9911,-0.99,-0.9987,-1.0008,-1.0019,-1.0019,-1.0019,-1.0068,-1.0172,-1.0193,-1.0253,-1.0362,-1.0492,-1.0612,-1.071,-1.0726,-1.0737,-1.0737,-1.0737,-1.0878,-1.1101,-1.1101,-1.1243,-1.1455,-1.1433,-1.1362,-1.1286,-1.1406,-1.1395,-1.0121,-0.3283,-0.0554,0.0,0.0,0.0,0.0,0.0,0.0,0.0,0.0,0.0,0.0,0.0,0.0,0.0,0.0,0.0,0.0,0.0,0.0,0.0,0.0,0.0,0.0,0.0,0.0,0.0,0.0,0.0,0.0,0.0,0.0,0.0,0.0,0.0,0.0,0.0,0.0,0.0,0.0,0.0,0.0,0.0,0.0,0.0,0.0,0.0,0.0,0.0,0.0,0.0,0.0,0.0,0.0,-0.5927,-0.6795,-0.7523,-0.7111,-0.8087,-0.918,-0.9279,-0.9498,-0.9665,-0.9689,-1.0519,-1.1077,-1.0532,-1.075,-1.048,-0.9181,-0.8443,-0.8244,-0.862,-0.8761,-0.8823,-0.9014,-0.9193,-0.94,-0.9644,-0.9726,-0.978,-0.9829,-0.9835,-0.9862,-0.9916,-0.9981,-1.0019,-1.0019,-1.0085,-1.0144,-1.0204,-1.0329,-1.0422,-1.0476,-1.053,-1.0617,-1.0737,-1.0737,-1.0737,-1.0742,-1.0808,-1.0938,-1.1107,-1.1166,-1.1297,-1.1449,-1.1384,-1.1362,-1.1202,-0.9113,-0.8246,-0.738,-0.1838,0.0,0.0,0.0,0.0,0.0,0.0,0.0,0.0,0.0,0.0,0.0,0.0,0.0,0.0,0.0,0.0,0.0,0.0,0.0,0.0,0.0,0.0,0.0,0.0,0.0,0.0,0.0,0.0,0.0,0.0,0.0,0.0,0.0,0.0,0.0,0.0,0.0,0.0,0.0,0.0,0.0,0.0,0.0,0.0,0.0,0.0,0.0,0.0,0.0,0.0,0.0,0.0,0.0,-0.5377,-0.5986,-0.6713,-0.6656,-0.81,-0.9488,-0.9657,-0.9625,-0.9484,-0.9195,-1.0279,-1.0899,-0.9831,-1.044,-1.054,-0.9054,-0.8717,-0.8443,-0.8253,-0.8481,-0.8731,-0.9003,-0.9171,-0.9383,-0.9682,-0.9764,-0.9775,-0.9715,-0.9791,-0.9851,-0.9878,-0.997,-1.0019,-1.0019,-1.0139,-1.0215,-1.0248,-1.0449,-1.0558,-1.0558,-1.0585,-1.0645,-1.0737,-1.0737,-1.0737,-1.0742,-1.0867,-1.0987,-1.1112,-1.1226,-1.1346,-1.1444,-1.1351,-1.1373,-1.1104,-0.8238,-0.5948,-0.4005,-0.1103,0.0,0.0,0.0,0.0,0.0,0.0,0.0,0.0,0.0,0.0,0.0,0.0,0.0,0.0,0.0,0.0,0.0,0.0,0.0,0.0,0.0,0.0,0.0,0.0,0.0,0.0,0.0,0.0,0.0,0.0,0.0,0.0,0.0,0.0,0.0,0.0,0.0,0.0,0.0,0.0,0.0,0.0,0.0,0.0,0.0,0.0,0.0,0.0,0.0,0.0,0.0,0.0,0.0,-0.5034,-0.5391,-0.5853,-0.6359,-0.7496,-0.8431,-0.8689,-0.9602,-1.0469,-1.0324,-1.056,-1.0627,-0.9973,-0.9449,-0.9007,-0.8488,-0.8641,-0.8773,-0.8405,-0.8606,-0.8889,-0.9237,-0.9198,-0.9323,-0.978,-0.9737,-0.972,-0.9818,-0.9835,-0.9889,-1.0003,-1.0014,-1.0019,-1.0019,-1.0139,-1.0259,-1.0373,-1.0492,-1.0558,-1.0558,-1.0672,-1.0726,-1.0737,-1.0737,-1.0737,-1.0742,-1.0867,-1.0987,-1.1112,-1.1226,-1.1346,-1.1455,-1.1444,-1.146,-1.1482,-1.1141,-0.6494,-0.0364,-0.0182,0.0,0.0,0.0,0.0,0.0,0.0,0.0,0.0,0.0,0.0,0.0,0.0,0.0,0.0,0.0,0.0,0.0,0.0,0.0,0.0,0.0,0.0,0.0,0.0,0.0,0.0,0.0,0.0,0.0,0.0,0.0,0.0,0.0,0.0,0.0,0.0,0.0,0.0,0.0,0.0,0.0,0.0,0.0,0.0,0.0,0.0,0.0,0.0,0.0,0.0,0.0,0.0,0.0,-0.49,-0.5538,-0.6323,-0.6388,-0.7255,-0.8238,-0.8387,-0.9364,-0.9972,-0.9252,-0.9895,-1.0592,-1.0524,-0.9946,-0.9353,-0.8922,-0.9106,-0.9092,-0.8646,-0.8666,-0.8905,-0.9264,-0.9264,-0.9367,-0.9704,-0.9693,-0.9688,-0.9731,-0.9796,-0.9889,-1.0014,-1.0019,-1.0019,-1.0019,-1.0215,-1.034,-1.0384,-1.0574,-1.0666,-1.0666,-1.0715,-1.0737,-1.0737,-1.0737,-1.0737,-1.0748,-1.0949,-1.1058,-1.1118,-1.1308,-1.1411,-1.1455,-1.1455,-1.146,-1.1471,-1.1498,-0.8125,-0.3273,-0.0911,0.0,0.0,0.0,0.0,0.0,0.0,0.0,0.0,0.0,0.0,0.0,0.0,0.0,0.0,0.0,0.0,0.0,0.0,0.0,0.0,0.0,0.0,0.0,0.0,0.0,0.0,0.0,0.0,0.0,0.0,0.0,0.0,0.0,0.0,0.0,0.0,0.0,0.0,0.0,0.0,0.0,0.0,0.0,0.0,0.0,0.0,0.0,0.0,0.0,0.0,0.0,0.0,0.0,-0.5109,-0.5716,-0.6493,-0.6503,-0.7394,-0.8208,-0.8265,-0.8976,-0.9445,-0.8716,-0.937,-1.0273,-1.0439,-1.0165,-0.9731,-0.9462,-0.9398,-0.9288,-0.8839,-0.8828,-0.8889,-0.9215,-0.9253,-0.9345,-0.959,-0.965,-0.9671,-0.9671,-0.9807,-0.9932,-1.0014,-1.0019,-1.0019,-1.0019,-1.0259,-1.0384,-1.0384,-1.0617,-1.0737,-1.0737,-1.0737,-1.0759,-1.0797,-1.0797,-1.0797,-1.0808,-1.1014,-1.1079,-1.1063,-1.1302,-1.1422,-1.1455,-1.1455,-1.1455,-1.146,-1.1498,-0.9028,-0.5089,-0.1271,0.0,0.0,0.0,0.0,0.0,0.0,0.0,0.0,0.0,0.0,0.0,0.0,0.0,0.0,0.0,0.0,0.0,0.0,0.0,0.0,0.0,0.0,0.0,0.0,0.0,0.0,0.0,0.0,0.0,0.0,0.0,0.0,0.0,0.0,0.0,0.0,0.0,0.0,0.0,0.0,0.0,0.0,0.0,0.0,0.0,0.0,0.0,0.0,0.0,0.0,0.0,0.0,0.0,-0.5711,-0.5915,-0.6213,-0.6953,-0.7722,-0.8304,-0.8265,-0.8627,-0.9061,-0.9196,-0.9279,-0.9429,-0.9585,-0.9856,-0.9975,-0.9735,-0.9739,-0.9528,-0.9117,-0.8963,-0.8861,-0.9106,-0.9133,-0.9231,-0.9465,-0.9595,-0.9671,-0.9671,-0.9889,-1.0019,-1.0019,-1.0019,-1.0019,-1.0019,-1.0259,-1.0384,-1.0384,-1.0617,-1.0737,-1.0737,-1.0737,-1.0802,-1.0922,-1.0922,-1.0922,-1.0927,-1.1047,-1.1036,-1.0938,-1.1177,-1.1346,-1.1455,-1.1455,-1.1455,-1.146,-1.1498,-0.9028,-0.5082,-0.126,0.0,0.0,0.0,0.0,0.0,0.0,0.0,0.0,0.0,0.0,0.0,0.0,0.0,0.0,0.0,0.0,0.0,0.0,0.0,0.0,0.0,0.0,0.0,0.0,0.0,0.0,0.0,0.0,0.0,0.0,0.0,0.0,0.0,0.0,0.0,0.0,0.0,0.0,0.0,0.0,0.0,0.0,0.0,0.0,0.0,0.0,0.0,0.0,0.0,0.0,0.0,0.0,0.0,-0.5155,-0.5827,-0.6532,-0.6641,-0.7528,-0.8485,-0.846,-0.9153,-0.9686,-0.9557,-0.951,-0.9585,-0.9734,-1.0086,-1.021,-0.9767,-0.9739,-0.9558,-0.9244,-0.9092,-0.8986,-0.9226,-0.9253,-0.9351,-0.959,-0.965,-0.9704,-0.978,-0.9932,-1.0019,-1.0019,-1.0019,-1.0019,-1.0019,-1.0259,-1.0384,-1.0384,-1.0617,-1.0737,-1.0737,-1.0737,-1.0802,-1.0922,-1.0922,-1.0922,-1.0927,-1.1047,-1.1079,-1.1069,-1.1302,-1.1422,-1.1455,-1.1455,-1.1455,-1.146,-1.1498,-0.8986,-0.5214,-0.1257,0.0,0.0,0.0,0.0,0.0,0.0,0.0,0.0,0.0,0.0,0.0,0.0,0.0,0.0,0.0,0.0,0.0,0.0,0.0,0.0,0.0,0.0,0.0,0.0,0.0,0.0,0.0,0.0,0.0,0.0,0.0,0.0,0.0,0.0,0.0,0.0,0.0,0.0,0.0,0.0,0.0,0.0,0.0,0.0,0.0,0.0,0.0,0.0,0.0,0.0,0.0,0.0,0.0,-0.5813,-0.6505,-0.719,-0.74,-0.7929,-0.8472,-0.8771,-0.9396,-0.9858,-0.9724,-0.9741,-0.9842,-1.0053,-1.031,-1.035,-1.0194,-0.9814,-0.971,-0.9561,-0.9148,-0.9024,-0.9215,-0.9275,-0.9383,-0.9579,-0.9644,-0.9715,-0.9829,-0.9949,-1.0019,-1.0019,-1.0019,-1.0019,-1.0019,-1.0259,-1.0384,-1.0384,-1.0617,-1.0737,-1.0737,-1.0737,-1.0802,-1.0922,-1.0922,-1.0922,-1.0922,-1.0998,-1.1085,-1.1183,-1.1324,-1.1411,-1.1455,-1.1455,-1.1455,-1.146,-1.1498,-0.8969,-0.5191,-0.1256,0.0,0.0,0.0,0.0,0.0,0.0,0.0,0.0,0.0,0.0,0.0,0.0,0.0,0.0,0.0,0.0,0.0,0.0,0.0,0.0,0.0,0.0,0.0,0.0,0.0,0.0,0.0,0.0,0.0,0.0,0.0,0.0,0.0,0.0,0.0,0.0,0.0,0.0,0.0,0.0,0.0,0.0,0.0,0.0,0.0,0.0,0.0,0.0,0.0,0.0,0.0,0.0,0.0,-0.7041,-0.7502,-0.7963,-0.8676,-0.8615,-0.8554,-0.9245,-0.953,-0.9686,-0.9815,-0.9964,-1.0154,-1.0439,-1.05,-1.0561,-1.0697,-1.0193,-0.971,-0.985,-0.9291,-0.9003,-0.9133,-0.9242,-0.9356,-0.9492,-0.9606,-0.972,-0.9845,-0.9954,-1.0019,-1.0019,-1.0019,-1.0025,-1.0036,-1.0264,-1.0394,-1.04,-1.0623,-1.0737,-1.0737,-1.0737,-1.0797,-1.09,-1.0916,-1.0927,-1.0938,-1.0938,-1.1063,-1.1275,-1.1286,-1.1357,-1.1455,-1.1455,-1.1455,-1.146,-1.1498,-0.8969,-0.5191,-0.1256,0.0,0.0,0.0,0.0,0.0,0.0,0.0,0.0,0.0,0.0,0.0,0.0,0.0,0.0,0.0,0.0,0.0,0.0,0.0,0.0,0.0,0.0,0.0,0.0,0.0,0.0,0.0,0.0,0.0,0.0,0.0,0.0,0.0,0.0,0.0,0.0,0.0,0.0,0.0,0.0,0.0,0.0,0.0,0.0,0.0,0.0,0.0,0.0,0.0,0.0,0.0,0.0,0.0,-0.6064,-0.6878,-0.774,-0.8133,-0.8689,-0.9218,-0.9496,-0.9761,-0.9964,-0.9992,-1.012,-1.0283,-1.046,-1.0588,-1.0683,-1.0717,-1.0193,-0.9747,-0.9979,-0.9348,-0.903,-0.9242,-0.9291,-0.9389,-0.9612,-0.9655,-0.9758,-0.9965,-1.0003,-1.0019,-1.0019,-1.0019,-1.0063,-1.0161,-1.0307,-1.0427,-1.052,-1.0666,-1.0737,-1.0737,-1.0737,-1.0753,-1.078,-1.0878,-1.0971,-1.1063,-1.1063,-1.1145,-1.1281,-1.1378,-1.1433,-1.1455,-1.1455,-1.1455,-1.146,-1.1498,-0.8969,-0.5191,-0.1256,0.0,0.0,0.0,0.0,0.0,0.0,0.0,0.0,0.0,0.0,0.0,0.0,0.0,0.0,0.0,0.0,0.0,0.0,0.0,0.0,0.0,0.0,0.0,0.0,0.0,0.0,0.0,0.0,0.0,0.0,0.0,0.0,0.0,0.0,0.0,0.0,0.0,0.0,0.0,0.0,0.0,0.0,0.0,0.0,0.0,0.0,0.0,0.0,0.0,0.0,0.0,0.0,0.0,-0.6335,-0.7068,-0.774,-0.8323,-0.8927,-0.9401,-0.9483,-0.9788,-1.0073,-1.0148,-1.0276,-1.0426,-1.0575,-1.0663,-1.0717,-1.0717,-1.0378,-1.0097,-1.0028,-0.9556,-0.9247,-0.9285,-0.9356,-0.9465,-0.965,-0.972,-0.9824,-1.0008,-1.0019,-1.0019,-1.0019,-1.0019,-1.0074,-1.0199,-1.0324,-1.0443,-1.0552,-1.0677,-1.0737,-1.0737,-1.0737,-1.077,-1.0829,-1.0889,-1.0987,-1.1107,-1.1161,-1.1248,-1.1362,-1.1427,-1.1455,-1.1455,-1.1455,-1.1455,-1.146,-1.1498,-0.8969,-0.5191,-0.1256,0.0,0.0,0.0,0.0,0.0,0.0,0.0,0.0,0.0,0.0,0.0,0.0,0.0,0.0,0.0,0.0,0.0,0.0,0.0,0.0,0.0,0.0,0.0,0.0,0.0,0.0,0.0,0.0,0.0,0.0,0.0,0.0,0.0,0.0,0.0,0.0,0.0,0.0,0.0,0.0,0.0,0.0,0.0,0.0,0.0,0.0,0.0,0.0,0.0,0.0,0.0,0.0,0.0,-0.6675,-0.7326,-0.7855,-0.875,-0.9178,-0.9388,-0.9415,-0.9768,-1.0127,-1.0256,-1.0392,-1.0541,-1.069,-1.0717,-1.0717,-1.0717,-1.0571,-1.0308,-1.0172,-0.9894,-0.9604,-0.9435,-0.941,-0.9536,-0.9661,-0.9769,-0.9889,-1.0008,-1.0019,-1.0019,-1.0019,-1.0019,-1.0085,-1.0231,-1.0335,-1.0449,-1.0585,-1.0688,-1.0737,-1.0737,-1.0737,-1.0802,-1.0922,-1.0944,-1.1014,-1.1134,-1.1232,-1.134,-1.1455,-1.1455,-1.1455,-1.1455,-1.1455,-1.1455,-1.146,-1.1498,-0.8969,-0.5191,-0.1256,0.0,0.0,0.0,0.0,0.0,0.0,0.0,0.0,0.0,0.0,0.0,0.0,0.0,0.0,0.0,0.0,0.0,0.0,0.0,0.0,0.0,0.0,0.0,0.0,0.0,0.0,0.0,0.0,0.0,0.0,0.0,0.0,0.0,0.0,0.0,0.0,0.0,0.0,0.0,0.0,0.0,0.0,0.0,0.0,0.0,0.0,0.0,0.0,0.0,0.0,0.0,0.0,0.0,-0.5508,-0.6681,-0.7997,-0.8899,-0.9252,-0.9415,-0.9551,-0.993,-1.0256,-1.0276,-1.0392,-1.0541,-1.069,-1.0717,-1.0717,-1.0717,-1.0571,-1.0444,-1.0448,-1.0034,-0.9746,-0.9867,-0.9703,-0.9536,-0.9661,-0.9769,-0.9889,-1.0008,-1.0019,-1.0019,-1.0019,-1.0019,-1.0128,-1.0356,-1.0378,-1.0492,-1.071,-1.0726,-1.0737,-1.0737,-1.0737,-1.0802,-1.0922,-1.1031,-1.1139,-1.1248,-1.1264,-1.134,-1.1455,-1.1455,-1.1455,-1.1455,-1.1455,-1.1455,-1.146,-1.1498,-0.8969,-0.5191,-0.1256,0.0,0.0,0.0,0.0,0.0,0.0,0.0,0.0,0.0,0.0,0.0,0.0,0.0,0.0,0.0,0.0,0.0,0.0,0.0,0.0,0.0,0.0,0.0,0.0,0.0,0.0,0.0,0.0,0.0,0.0,0.0,0.0,0.0,0.0,0.0,0.0,0.0,0.0,0.0,0.0,0.0,0.0,0.0,0.0,0.0,0.0,0.0,0.0,0.0,0.0,0.0,0.0,0.0,-0.5657,-0.6878,-0.8011,-0.8832,-0.9144,-0.9293,-0.9449,-0.9829,-1.0175,-1.0263,-1.046,-1.0643,-1.0711,-1.0717,-1.0717,-1.0717,-1.0779,-1.0809,-1.0599,-1.0524,-1.0251,-0.9873,-0.9911,-0.991,-0.9666,-0.9835,-0.9965,-1.0014,-1.0019,-1.0019,-1.0019,-1.0019,-1.0134,-1.0378,-1.0384,-1.0498,-1.0732,-1.0737,-1.0737,-1.0737,-1.0808,-1.09,-1.1025,-1.1145,-1.1226,-1.1275,-1.1346,-1.1406,-1.1455,-1.1455,-1.1455,-1.1455,-1.1455,-1.1455,-1.146,-1.1498,-0.8969,-0.5191,-0.1256,0.0,0.0,0.0,0.0,0.0,0.0,0.0,0.0,0.0,0.0,0.0,0.0,0.0,0.0,0.0,0.0,0.0,0.0,0.0,0.0,0.0,0.0,0.0,0.0,0.0,0.0,0.0,0.0,0.0,0.0,0.0,0.0,0.0,0.0,0.0,0.0,0.0,0.0,0.0,0.0,0.0,0.0,0.0,0.0,0.0,0.0,0.0,0.0,0.0,0.0,0.0,0.0,0.0,-0.5711,-0.6709,-0.7475,-0.8418,-0.8791,-0.9008,-0.9313,-0.97,-1.0046,-1.0243,-1.0487,-1.0677,-1.0711,-1.0717,-1.0717,-1.0717,-1.0968,-1.1165,-1.075,-1.0857,-1.0756,-1.0173,-1.0257,-1.0116,-0.9816,-0.9883,-1.0019,-1.0019,-1.0019,-1.0019,-1.0019,-1.0052,-1.0166,-1.0378,-1.0416,-1.053,-1.0737,-1.0737,-1.0737,-1.0737,-1.0862,-1.0987,-1.1107,-1.1221,-1.1291,-1.1324,-1.1417,-1.1455,-1.1455,-1.1455,-1.1455,-1.1455,-1.1455,-1.1455,-1.146,-1.1498,-0.8969,-0.5191,-0.1256,0.0,0.0,0.0,0.0,0.0,0.0,0.0,0.0,0.0,0.0,0.0,0.0,0.0,0.0,0.0,0.0,0.0,0.0,0.0,0.0,0.0,0.0,0.0,0.0,0.0,0.0,0.0,0.0,0.0,0.0,0.0,0.0,0.0,0.0,0.0,0.0,0.0,0.0,0.0,0.0,0.0,0.0,0.0,0.0,0.0,0.0,0.0,0.0,0.0,0.0,0.0,0.0,0.0,-0.515,-0.5555,-0.6051,-0.7509,-0.8092,-0.8506,-0.9218,-0.9612,-0.9917,-1.0215,-1.0399,-1.0548,-1.0697,-1.0717,-1.0717,-1.0717,-1.0968,-1.1165,-1.1165,-1.0999,-1.1044,-1.09,-1.0552,-1.0116,-1.0116,-1.0037,-1.0019,-1.0019,-1.0019,-1.0019,-1.0019,-1.0128,-1.0253,-1.0384,-1.0492,-1.0606,-1.0737,-1.0737,-1.0737,-1.0737,-1.0862,-1.0987,-1.1107,-1.1221,-1.1335,-1.1444,-1.1455,-1.1455,-1.1455,-1.1455,-1.1455,-1.1455,-1.1455,-1.1455,-1.146,-1.1498,-0.8969,-0.5191,-0.1256,0.0,0.0,0.0,0.0,0.0,0.0,0.0,0.0,0.0,0.0,0.0,0.0,0.0,0.0,0.0,0.0,0.0,0.0,0.0,0.0,0.0,0.0,0.0,0.0,0.0,0.0,0.0,0.0,0.0,0.0,0.0,0.0,0.0,0.0,0.0,0.0,0.0,0.0,0.0,0.0,0.0,0.0,0.0,0.0,0.0,0.0,0.0,0.0,0.0,0.0,0.0,0.0,0.0,-0.483,-0.5332,-0.5833,-0.6844,-0.7543,-0.8119,-0.8676,-0.9259,-0.9802,-1.0195,-1.0392,-1.0541,-1.069,-1.0717,-1.0717,-1.0717,-1.0968,-1.1165,-1.1165,-1.1281,-1.1332,-1.1044,-1.07,-1.0416,-1.0266,-1.0037,-1.0019,-1.0019,-1.0019,-1.0019,-1.0019,-1.0139,-1.0259,-1.0384,-1.0498,-1.0612,-1.0737,-1.0737,-1.0775,-1.0857,-1.0976,-1.1101,-1.1215,-1.1335,-1.1411,-1.1455,-1.1455,-1.1455,-1.1455,-1.1455,-1.1455,-1.1455,-1.1455,-1.1455,-1.146,-1.1498,-0.8969,-0.5191,-0.1256,0.0,0.0,0.0,0.0,0.0,0.0,0.0,0.0,0.0,0.0,0.0,0.0,0.0,0.0,0.0,0.0,0.0,0.0,0.0,0.0,0.0,0.0,0.0,0.0,0.0,0.0,0.0,0.0,0.0,0.0,0.0,0.0,0.0,0.0,0.0,0.0,0.0,0.0,0.0,0.0,0.0,0.0,0.0,0.0,0.0,0.0,0.0,0.0,0.0,0.0,0.0,0.0,0.0,-0.4158,-0.475,-0.5413,-0.6261,-0.6844,-0.7461,-0.8418,-0.8947,-0.9415,-1.0066,-1.0317,-1.0466,-1.0616,-1.0683,-1.0717,-1.0717,-1.0968,-1.1165,-1.1165,-1.1423,-1.1476,-1.1188,-1.1142,-1.0865,-1.0416,-1.0338,-1.0175,-1.0019,-1.0019,-1.0019,-1.0019,-1.0177,-1.034,-1.0498,-1.0579,-1.0655,-1.0737,-1.0737,-1.0797,-1.0922,-1.1041,-1.1161,-1.1275,-1.14,-1.1455,-1.1455,-1.1455,-1.1455,-1.1455,-1.1455,-1.1455,-1.1455,-1.1455,-1.1455,-1.146,-1.1498,-0.8969,-0.5194,-0.126,0.0,0.0,0.0,0.0,0.0,0.0,0.0,0.0,0.0,0.0,0.0,0.0,0.0,0.0,0.0,0.0,0.0,0.0,0.0,0.0,0.0,0.0,0.0,0.0,0.0,0.0,0.0,0.0,0.0,0.0,0.0,0.0,0.0,0.0,0.0,0.0,0.0,0.0,0.0,0.0,0.0,0.0,0.0,0.0,0.0,0.0,0.0,0.0,0.0,0.0,0.0,0.0,0.0,0.0,0.0,0.0,-0.5725,-0.5996,-0.6519,-0.8431,-0.8655,-0.875,-0.9808,-1.0148,-1.0304,-1.046,-1.0616,-1.0717,-1.0717,-1.0968,-1.1165,-1.1165,-1.1423,-1.1619,-1.1619,-1.1436,-1.1314,-1.0865,-1.0644,-1.0486,-1.0019,-1.0019,-1.0019,-1.0019,-1.0253,-1.0492,-1.0732,-1.0737,-1.0737,-1.0737,-1.0737,-1.0802,-1.0927,-1.1047,-1.1161,-1.1281,-1.14,-1.1455,-1.1455,-1.1455,-1.1455,-1.1455,-1.1455,-1.1455,-1.1455,-1.1455,-1.1455,-1.146,-1.1498,-0.8969,-0.5199,-0.1271,0.0,0.0,0.0,0.0,0.0,0.0,0.0,0.0,0.0,0.0,0.0,0.0,0.0,0.0,0.0,0.0,0.0,0.0,0.0,0.0,0.0,0.0,0.0,0.0,0.0,0.0,0.0,0.0,0.0,0.0,0.0,0.0,0.0,0.0,0.0,0.0,0.0,0.0,0.0,0.0,0.0,0.0,0.0,0.0,0.0,0.0,0.0,0.0,0.0,0.0,0.0,0.0,0.0,-0.297,0.0,0.0,0.0,0.0,0.0,-0.6932,-0.7509,-0.814,-0.9184,-0.9523,-0.9808,-1.0385,-1.0616,-1.0717,-1.0717,-1.0968,-1.1165,-1.1165,-1.1423,-1.1619,-1.1619,-1.1436,-1.1314,-1.1314,-1.1103,-1.0952,-1.0486,-1.0486,-1.033,-1.0019,-1.0253,-1.0492,-1.0732,-1.0737,-1.0737,-1.0737,-1.0737,-1.084,-1.1052,-1.1085,-1.121,-1.1406,-1.1438,-1.1455,-1.1455,-1.1455,-1.1455,-1.1455,-1.1455,-1.1455,-1.1455,-1.1455,-1.1455,-1.146,-1.1482,-0.896,-0.5199,-0.1269,0.0,0.0,0.0,0.0,0.0,0.0,0.0,0.0,0.0,0.0,0.0,0.0,0.0,0.0,0.0,0.0,0.0,0.0,0.0,0.0,0.0,0.0,0.0,0.0,0.0,0.0,0.0,0.0,0.0,0.0,0.0,0.0,0.0,0.0,0.0,0.0,0.0,0.0,0.0,0.0,0.0,0.0,0.0,0.0,0.0,0.0,0.0,0.0,0.0,0.0,0.0,0.0,0.0,-0.2384,-0.2931,-0.3621,-0.4143,0.0,0.0,-0.6695,-0.7285,-0.7929,-0.9103,-0.951,-0.9815,-1.031,-1.0527,-1.0643,-1.0711,-1.0968,-1.1165,-1.1165,-1.1423,-1.1619,-1.1619,-1.153,-1.1521,-1.1373,-1.1479,-1.1337,-1.0874,-1.0767,-1.0687,-1.0482,-1.0467,-1.0492,-1.0732,-1.0737,-1.0737,-1.0737,-1.0737,-1.0857,-1.1101,-1.1101,-1.1226,-1.1455,-1.1455,-1.1455,-1.1455,-1.1455,-1.1455,-1.1455,-1.1455,-1.1455,-1.1455,-1.1455,-1.1455,-1.146,-1.1482,-1.0049,-0.7363,-0.1823,0.0,0.0,0.0,0.0,0.0,0.0,0.0,0.0,0.0,0.0,0.0,0.0,0.0,0.0,0.0,0.0,0.0,0.0,0.0,0.0,0.0,0.0,0.0,0.0,0.0,0.0,0.0,0.0,0.0,0.0,0.0,0.0,0.0,0.0,0.0,0.0,0.0,0.0,0.0,0.0,0.0,0.0,0.0,0.0,0.0,0.0,0.0,0.0,0.0,0.0,0.0,0.0,0.0,-0.164,-0.2462,-0.3473,-0.386,-0.4363,0.0,-0.6959,-0.7366,-0.776,-0.9028,-0.951,-0.9768,-0.9992,-1.0148,-1.0297,-1.0446,-1.0778,-1.105,-1.1151,-1.1423,-1.1619,-1.1619,-1.1742,-1.1683,-1.1244,-1.1495,-1.1511,-1.1066,-1.1189,-1.1227,-1.1016,-1.0706,-1.0492,-1.0732,-1.0737,-1.0737,-1.0737,-1.0748,-1.0873,-1.1101,-1.1118,-1.1237,-1.1455,-1.1455,-1.1455,-1.1455,-1.1455,-1.1455,-1.1455,-1.1455,-1.1455,-1.1455,-1.1455,-1.1455,-1.146,-1.1493,-1.1141,-0.9908,-0.2939,-0.037,0.0,0.0,0.0,0.0,0.0,0.0,0.0,0.0,0.0,0.0,0.0,0.0,0.0,0.0,0.0,0.0,0.0,0.0,0.0,0.0,0.0,0.0,0.0,0.0,0.0,0.0,0.0,0.0,0.0,0.0,0.0,0.0,0.0,0.0,0.0,0.0,0.0,0.0,0.0,0.0,0.0,0.0,0.0,0.0,0.0,0.0,0.0,0.0,0.0,0.0,0.0,0.0,-0.164,-0.1919,-0.2332,-0.3421,-0.3992,0.0,-0.5391,-0.5895,-0.6363,-0.7115,-0.7414,-0.7726,-0.8364,-0.8601,-0.875,-0.8893,-0.9571,-1.0337,-1.1063,-1.1423,-1.1619,-1.1619,-1.1742,-1.183,-1.1683,-1.1851,-1.1854,-1.1517,-1.1343,-1.1227,-1.1016,-1.0867,-1.0818,-1.0732,-1.0737,-1.0737,-1.0737,-1.0835,-1.096,-1.1107,-1.1194,-1.1313,-1.1455,-1.1455,-1.1455,-1.1455,-1.1455,-1.1455,-1.1455,-1.1455,-1.1455,-1.1455,-1.1455,-1.1455,-1.1455,-1.1465,-0.9491,-0.6646,-0.5134,-0.2589,0.0,0.0,0.0,0.0,0.0,0.0,0.0,0.0,0.0,0.0,0.0,0.0,0.0,0.0,0.0,0.0,0.0,0.0,0.0,0.0,0.0,0.0,0.0,0.0,0.0,0.0,0.0,0.0,0.0,0.0,0.0,0.0,0.0,0.0,0.0,0.0,0.0,0.0,0.0,0.0,0.0,0.0,0.0,0.0,0.0,0.0,0.0,0.0,0.0,0.0,0.0,0.0,-0.1308,-0.1568,-0.1894,-0.2563,-0.3356,0.0,0.0,-0.5467,-0.6105,-0.6783,-0.7041,-0.7305,-0.7828,-0.8052,-0.8208,-0.835,-0.913,-0.9768,-0.9917,-1.0846,-1.1531,-1.1613,-1.1681,-1.1728,-1.1728,-1.1857,-1.1891,-1.1967,-1.1747,-1.1442,-1.1237,-1.0993,-1.0952,-1.0639,-1.0704,-1.0737,-1.0737,-1.0857,-1.0982,-1.1107,-1.1221,-1.1335,-1.1455,-1.1455,-1.1455,-1.1455,-1.1455,-1.1455,-1.1455,-1.1455,-1.1455,-1.1455,-1.1455,-1.1455,-1.1455,-1.1465,-1.0218,-0.809,-0.4216,-0.1663,0.0,0.0,0.0,0.0,0.0,0.0,0.0,0.0,0.0,0.0,0.0,0.0,0.0,0.0,0.0,0.0,0.0,0.0,0.0,0.0,0.0,0.0,0.0,0.0,0.0,0.0,0.0,0.0,0.0,0.0,0.0,0.0,0.0,0.0,0.0,0.0,0.0,0.0,0.0,0.0,0.0,0.0,0.0,0.0,0.0,0.0,0.0,0.0,0.0,0.0,0.0,0.0,-0.0951,-0.1292,-0.1748,-0.1857,-0.2752,-0.3711,0.0,0.0,0.0,-0.6512,-0.6837,-0.7021,-0.7292,-0.7468,-0.7611,-0.7733,-0.8533,-0.8967,-0.8479,-0.9829,-1.0955,-1.1165,-1.1416,-1.1545,-1.1457,-1.1552,-1.1782,-1.2169,-1.1821,-1.1492,-1.1409,-1.1267,-1.0924,-1.0552,-1.0672,-1.0737,-1.0737,-1.0884,-1.1003,-1.1107,-1.1243,-1.1357,-1.1455,-1.1455,-1.1455,-1.1455,-1.1455,-1.1455,-1.1455,-1.1455,-1.1455,-1.1455,-1.1455,-1.1455,-1.1455,-1.1471,-1.1493,-1.0451,-0.3477,-0.0554,0.0,0.0,0.0,0.0,0.0,0.0,0.0,0.0,0.0,0.0,0.0,0.0,0.0,0.0,0.0,0.0,0.0,0.0,0.0,0.0,0.0,0.0,0.0,0.0,0.0,0.0,0.0,0.0,0.0,0.0,0.0,0.0,0.0,0.0,0.0,0.0,0.0,0.0,0.0,0.0,0.0,0.0,0.0,0.0,0.0,0.0,0.0,0.0,0.0,0.0,0.0,0.0,-0.1155,-0.114,-0.1374,-0.1782,-0.2242,-0.2781,-0.3732,0.0,-0.457,-0.5047,0.0,-0.544,-0.561,0.0,0.0,-0.5895,-0.6756,-0.7394,-0.7326,-0.8296,-0.9171,-0.9585,-1.069,-1.126,-1.086,-1.0839,-1.1131,-1.183,-1.1518,-1.1221,-1.1244,-1.1372,-1.1247,-1.0552,-1.0672,-1.0737,-1.0737,-1.0965,-1.109,-1.1107,-1.133,-1.1438,-1.1455,-1.1455,-1.1455,-1.1455,-1.1455,-1.1455,-1.1455,-1.1455,-1.1455,-1.1455,-1.1455,-1.1455,-1.1455,-1.146,-1.1482,-1.0804,-0.6534,-0.2752,0.0,0.0,0.0,0.0,0.0,0.0,0.0,0.0,0.0,0.0,0.0,0.0,0.0,0.0,0.0,0.0,0.0,0.0,0.0,0.0,0.0,0.0,0.0,0.0,0.0,0.0,0.0,0.0,0.0,0.0,0.0,0.0,0.0,0.0,0.0,0.0,0.0,0.0,0.0,0.0,0.0,0.0,0.0,0.0,0.0,0.0,0.0,0.0,0.0,0.0,0.0,0.0,-0.1164,-0.1178,-0.1293,-0.1485,-0.1869,-0.2311,-0.2621,-0.332,-0.3947,-0.4201,0.0,0.0,0.0,0.0,0.0,0.0,-0.6315,-0.6763,-0.641,-0.7495,-0.8554,-0.9178,-0.9747,-1.0222,-1.0555,-1.067,-1.1029,-1.1775,-1.1416,-1.1233,-1.1415,-1.1482,-1.1374,-1.0779,-1.0804,-1.0737,-1.0737,-1.0982,-1.1101,-1.1107,-1.134,-1.1455,-1.1455,-1.1455,-1.1455,-1.1455,-1.1455,-1.1455,-1.1455,-1.1455,-1.1455,-1.1455,-1.1455,-1.1455,-1.1455,-1.1455,-1.1476,-1.0978,-0.7071,-0.3116,0.0,0.0,0.0,0.0,0.0,0.0,0.0,0.0,0.0,0.0,0.0,0.0,0.0,0.0,0.0,0.0,0.0,0.0,0.0,0.0,0.0,0.0,0.0,0.0,0.0,0.0,0.0,0.0,0.0,0.0,0.0,0.0,0.0,0.0,0.0,0.0,0.0,0.0,0.0,0.0,0.0,0.0,0.0,0.0,0.0,0.0,0.0,0.0,0.0,0.0,0.0,0.0,-0.1246,-0.1261,-0.1292,-0.1182,-0.1544,-0.1896,-0.1897,-0.2554,-0.3278,-0.3698,-0.4183,0.0,0.0,0.0,-0.542,-0.5406,0.0,-0.6213,-0.5691,-0.6627,-0.7631,-0.8336,-0.871,-0.9232,-1.0046,-1.0114,-1.0487,-1.1396,-1.105,-1.1074,-1.1573,-1.171,-1.1635,-1.1189,-1.0941,-1.0904,-1.0904,-1.0982,-1.1101,-1.1107,-1.134,-1.1455,-1.1455,-1.1455,-1.1455,-1.1455,-1.1455,-1.1455,-1.1455,-1.1455,-1.1455,-1.1455,-1.1455,-1.1455,-1.1455,-1.1455,-1.1476,-1.0978,-0.7071,-0.3121,0.0,0.0,0.0,0.0,0.0,0.0,0.0,0.0,0.0,0.0,0.0,0.0,0.0,0.0,0.0,0.0,0.0,0.0,0.0,0.0,0.0,0.0,0.0,0.0,0.0,0.0,0.0,0.0,0.0,0.0,0.0,0.0,0.0,0.0,0.0,0.0,0.0,0.0,0.0,0.0,0.0,0.0,0.0,0.0,0.0,0.0,0.0,0.0,0.0,0.0,0.0,0.0,-0.1482,-0.1449,-0.1416,-0.1182,-0.1145,-0.1348,-0.1777,-0.1998,-0.2372,-0.3542,-0.4007,-0.4371,-0.499,-0.5379,0.0,0.0,0.0,0.0,0.0,-0.5447,-0.5888,-0.6485,-0.759,-0.8533,-0.9137,-0.8804,-0.9103,-1.0432,-1.012,-1.0247,-1.1392,-1.1876,-1.2014,-1.1671,-1.1435,-1.1403,-1.1403,-1.1152,-1.1101,-1.1107,-1.134,-1.1455,-1.1455,-1.1455,-1.1455,-1.1455,-1.1455,-1.1455,-1.1455,-1.1455,-1.1455,-1.1455,-1.1455,-1.1455,-1.1455,-1.1455,-1.1476,-1.0978,-0.7071,-0.3136,0.0,0.0,0.0,0.0,0.0,0.0,0.0,0.0,0.0,0.0,0.0,0.0,0.0,0.0,0.0,0.0,0.0,0.0,0.0,0.0,0.0,0.0,0.0,0.0,0.0,0.0,0.0,0.0,0.0,0.0,0.0,0.0,0.0,0.0,0.0,0.0,0.0,0.0,0.0,0.0,0.0,0.0,0.0,0.0,0.0,0.0,0.0,0.0,0.0,0.0,0.0,0.0,-0.1575,-0.1606,-0.16,-0.1359,-0.1337,-0.1399,-0.137,-0.168,-0.2107,-0.2439,-0.3287,-0.3914,-0.3774,-0.4694,0.0,0.0,0.0,0.0,0.0,-0.5304,-0.5623,0.0,0.0,0.0,0.0,-0.8757,-0.9435,-1.029,-1.0487,-1.0866,-1.1858,-1.1926,-1.1905,-1.2147,-1.1516,-1.1317,-1.1403,-1.1152,-1.1101,-1.1107,-1.134,-1.1455,-1.1455,-1.1455,-1.1455,-1.1455,-1.1455,-1.1455,-1.1455,-1.1455,-1.1455,-1.1455,-1.1455,-1.1455,-1.1455,-1.1455,-1.1471,-1.0615,-0.4201,-0.1114,0.0,0.0,0.0,0.0,0.0,0.0,0.0,0.0,0.0,0.0,0.0,0.0,0.0,0.0,0.0,0.0,0.0,0.0,0.0,0.0,0.0,0.0,0.0,0.0,0.0,0.0,0.0,0.0,0.0,0.0,0.0,0.0,0.0,0.0,0.0,0.0,0.0,0.0,0.0,0.0,0.0,0.0,0.0,0.0,0.0,0.0,0.0,0.0,0.0,0.0,0.0,0.0,-0.1586,-0.1722,-0.1718,-0.152,-0.15,-0.147,-0.1239,-0.1523,-0.184,-0.2022,-0.2775,-0.3323,-0.3279,-0.4021,0.0,0.0,0.0,0.0,0.0,-0.5311,0.0,0.0,0.0,0.0,0.0,0.0,-0.9001,-1.0188,-1.0351,-1.088,-1.1999,-1.1987,-1.2122,-1.2468,-1.1956,-1.1599,-1.157,-1.1447,-1.1229,-1.1107,-1.1297,-1.1411,-1.1455,-1.1455,-1.1455,-1.1455,-1.1455,-1.1455,-1.1455,-1.1455,-1.1455,-1.1455,-1.1455,-1.1455,-1.1455,-1.1455,-1.1525,-1.0368,-0.2586,0.0,0.0,0.0,0.0,0.0,0.0,0.0,0.0,0.0,0.0,0.0,0.0,0.0,0.0,0.0,0.0,0.0,0.0,0.0,0.0,0.0,0.0,0.0,0.0,0.0,0.0,0.0,0.0,0.0,0.0,0.0,0.0,0.0,0.0,0.0,0.0,0.0,0.0,0.0,0.0,0.0,0.0,0.0,0.0,0.0,0.0,0.0,0.0,0.0,0.0,0.0,0.0,0.0]}]]